[[{"header":{"parameterUnit":"m.s-1","parameterCategory":1,"la1":31.0,"la2":29.5877,"lo1":-88.7671,"lo2":-86.6584,"dy":0.0162,"dx":0.0185,"nx":115,"ny":88,"refTime":"2026-04-24T18:00:00:Z","depth":0,"parameterNumber":2,"parameterNumberName":"U-component_of_WINDS"},"data":[0.0,0.0,0.0,0.0,0.0,0.0,0.0,0.0,0.0,0.0,0.0,0.0,0.0,0.0,0.0,0.0,0.0,0.0,0.0,0.0,0.0,0.0,0.0,0.0,0.0,0.0,0.0,0.0,0.0,0.0,0.0,0.0,0.0,0.0,0.0,0.0,0.0,0.0,0.0,0.0,0.0,0.0,0.0,0.0,0.0,0.0,0.0,0.0,0.0,0.0,0.0,0.0,0.0,0.0,0.0,0.0,0.0,0.0,0.0,0.0,0.0,0.0,0.0,0.0,0.0,0.0,0.0,0.0,0.0,0.0,0.0,0.0,0.0,0.0,0.0,0.0,0.0,0.0,0.0,0.0,0.0,0.0,0.0,0.0,0.0,0.0,0.0,0.0,0.0,0.0,0.0,0.0,0.0,0.0,0.0,0.0,0.0,0.0,0.0,0.0,0.0,0.0,0.0,0.0,0.0,0.0,0.0,0.0,0.0,0.0,0.0,0.0,0.0,0.0,0.0,0.0,0.0,0.0,0.0,0.0,0.0,0.0,0.0,0.0,0.0,0.0,0.0,0.0,0.0,0.0,0.0,0.0,0.0,0.0,0.0,0.0,0.0,0.0,0.0,0.0,0.0,0.0,0.0,0.0,0.0,0.0,0.0,0.0,0.0,0.0,0.0,0.0,0.0,0.0,0.0,0.0,0.0,0.0,0.0,0.0,0.0,0.0,0.0,0.0,0.0,0.0,0.0,0.0,0.0,0.0,0.0,0.0,0.0,0.0,0.0,0.0,0.0,0.0,0.0,0.0,0.0,0.0,0.0,0.0,0.0,0.0,0.0,0.0,0.0,0.0,0.0,0.0,0.0,0.0,0.0,0.0,0.0,0.0,0.0,0.0,0.0,0.0,0.0,0.0,0.0,0.0,0.0,0.0,0.0,0.0,0.0,0.0,0.0,0.0,0.0,0.0,0.0,0.0,0.0,0.0,0.0,0.0,0.0,0.0,0.0,0.0,0.0,0.0,0.0,0.0,0.0,0.0,0.0,0.0,0.0,0.0,0.0,0.0,0.0,0.0,0.0,0.0,0.0,0.0,0.0,0.0,0.0,0.0,0.0,0.0,0.0,0.0,0.0,0.0,0.0,0.0,0.0,0.0,0.0,0.0,0.0,0.0,0.0,0.0,0.0,0.0,0.0,0.0,0.0,0.0,0.0,0.0,0.0,0.0,0.0,0.0,0.0,0.0,0.0,0.0,0.0,0.0,0.0,0.0,0.0,0.0,0.0,0.0,0.0,0.0,0.0,0.0,0.0,0.0,0.0,0.0,0.0,0.0,0.0,0.0,0.0,0.0,0.0,0.0,0.0,0.0,0.0,0.0,0.0,0.0,0.0,0.0,0.0,0.0,0.0,0.0,0.0,0.0,0.0,0.0,0.0,0.0,0.0,0.0,0.0,0.0,0.0,0.0,0.0,0.0,0.0,0.0,0.0,0.0,0.0,0.0,0.0,0.0,0.0,0.0,0.0,0.0,0.0,0.0,0.0,0.0,0.0,0.0,0.0,0.0,0.0,0.0,0.0,0.0,0.0,0.0,0.0,0.0,0.0,0.0,0.0,0.0,0.0,0.0,0.0,0.0,0.0,0.0,0.0,0.0,0.0,0.0,0.0,0.0,0.0,0.0,0.0,0.0,0.0,0.0,0.0,0.0,0.0,0.0,0.0,0.0,0.0,0.0,0.0,0.0,0.0,0.0,0.0,0.0,0.0,0.0,0.0,0.0,0.0,0.0,0.0,0.0,0.0,0.0,0.0,0.0,0.0,0.0,0.0,0.0,0.0,0.0,0.0,0.0,0.0,0.0,0.0,0.0,0.0,0.0,0.0,0.0,0.0,0.0,0.0,0.0,0.0,0.0,0.0,0.0,0.0,0.0,0.0,0.0,0.0,0.0,0.0,0.0,0.0,0.0,0.0,0.0,0.0,0.0,0.0,0.0,0.0,0.0,0.0,0.0,0.0,0.0,0.0,0.0,0.0,0.0,0.0,0.0,0.0,0.0,0.0,0.0,0.0,0.0,0.0,0.0,0.0,0.0,0.0,0.0,0.0,0.0,0.0,0.0,0.0,0.0,0.0,0.0,0.0,0.0,0.0,0.0,0.0,0.0,0.0,0.0,0.0,0.0,0.0,0.0,0.0,0.0,0.0,0.0,0.0,0.0,0.0,0.0,0.0,0.0,0.0,0.0,0.0,0.0,0.0,0.0,0.0,0.0,0.0,0.0,0.0,0.0,0.0,0.0,0.0,0.0,0.0,0.0,0.0,0.0,0.0,0.0,0.0,0.0,0.0,0.0,0.0,0.0,0.0,0.0,0.0,0.0,0.0,0.0,0.0,0.0,0.0,0.0,0.0,0.0,0.0,0.0,0.0,0.0,0.0,0.0,0.0,0.0,0.0,0.0,0.0,0.0,0.0,0.0,0.0,0.0,0.0,0.0,0.0,0.0,0.0,0.0,0.0,0.0,0.0,0.0,0.0,0.0,0.0,0.0,0.0,0.0,0.0,0.0,0.0,0.0,0.0,0.0,0.0,0.0,0.0,0.0,0.0,0.0,0.0,0.0,0.0,0.0,0.0,0.0,0.0,0.0,0.0,0.0,0.0,0.0,0.0,0.0,0.0,0.0,0.0,0.0,0.0,0.0,0.0,0.0,0.0,0.0,0.0,0.0,0.0,0.0,0.0,0.0,0.0,0.0,0.0,0.0,0.0,0.0,0.0,0.0,0.0,0.0,0.0,0.0,0.0,0.0,0.0,0.0,0.0,0.0,0.0,0.0,0.0,0.0,0.0,0.0,0.0,0.0,0.0,0.0,0.0,0.0,0.0,0.0,0.0,0.0,0.0,0.0,0.0,0.0,0.0,0.0,0.0,0.0,0.0,0.0,0.0,0.0,0.0,0.0,0.0,0.0,0.0,0.0,0.0,0.0,0.0,0.0,0.0,0.0,0.0,0.0,0.0,0.0,0.0,0.0,0.0,0.0,0.0,0.0,0.0,0.0,0.0,0.0,0.0,0.0,0.0,0.0,0.0,0.0,0.0,0.0,0.0,0.0,0.0,0.0,0.0,0.0,0.0,0.0,0.0,0.0,0.0,0.0,0.0,0.0,0.0,0.0,0.0,0.0,0.0,0.0,0.0,0.0,0.0,0.0,0.0,0.0,0.0,0.0,0.0,0.0,0.0,0.0,0.0,0.0,0.0,0.0,0.0,0.0,0.0,0.0,0.0,0.0,0.0,0.0,0.0,0.0,0.0,0.0,0.0,0.0,0.0,0.0,0.0,0.0,0.0,0.0,0.0,0.0,0.0,0.0,0.0,0.0,0.0,0.0,0.0,0.0,0.0,0.0,0.0,0.0,0.0,0.0,0.0,0.0,0.0,0.0,0.0,0.0,0.0,0.0,0.0,0.0,0.0,0.0,0.0,0.0,0.0,0.0,0.0,0.0,0.0,0.0,0.0,0.0,0.0,0.0,0.0,0.0,0.0,0.0,0.0,0.0,0.0,0.0,0.0,0.0,0.0,0.0,0.0,0.0,0.0,0.0,0.0,0.0,0.0,0.0,0.0,0.0,0.0,0.0,0.0,0.0,0.0,0.0,0.0,0.0,0.0,0.0,0.0,0.0,0.0,0.0,0.0,0.0,0.0,0.0,0.0,0.0,0.0,0.0,0.0,0.0,0.0,0.0,0.0,0.0,0.0,0.0,0.0,0.0,0.0,0.0,0.0,0.0,0.0,0.0,0.0,0.0,0.0,0.0,0.0,0.0,0.0,0.0,0.0,0.0,0.0,0.0,0.0,0.0,0.0,0.0,0.0,0.0,0.0,0.0,0.0,0.0,0.0,0.0,0.0,0.0,0.0,0.0,0.0,0.0,0.0,0.0,0.0,0.0,0.0,0.0,0.0,0.0,0.0,0.0,0.0,0.0,0.0,0.0,0.0,0.0,0.0,0.0,0.0,0.0,0.0,0.0,0.0,0.0,0.0,0.0,0.0,0.0,0.0,0.0,0.0,0.0,0.0,0.0,0.0,0.0,0.0,0.0,0.0,0.0,0.0,0.0,0.0,0.0,0.0,0.0,0.0,0.0,0.0,0.0,0.0,0.0,0.0,0.0,0.0,0.0,0.0,0.0,0.0,0.0,0.0,0.0,0.0,0.0,0.0,0.0,0.0,0.0,0.0,0.0,0.0,0.0,0.0,0.0,0.0,0.0,0.0,0.0,0.0,0.0,0.0,0.0,0.0,0.0,0.0,0.0,-2.814,0.0,0.0,0.0,0.0,0.0,0.0,0.0,0.0,0.0,0.0,0.0,0.0,0.0,0.0,0.0,0.0,0.0,0.0,0.0,0.0,0.0,0.0,0.0,0.0,0.0,0.0,0.0,0.0,0.0,0.0,0.0,0.0,0.0,0.0,0.0,0.0,0.0,0.0,0.0,0.0,0.0,0.0,0.0,0.0,0.0,0.0,0.0,0.0,0.0,0.0,0.0,0.0,0.0,0.0,0.0,0.0,0.0,0.0,0.0,0.0,0.0,0.0,0.0,0.0,0.0,0.0,0.0,0.0,0.0,0.0,0.0,0.0,0.0,0.0,0.0,0.0,0.0,0.0,0.0,0.0,0.0,0.0,0.0,0.0,0.0,0.0,0.0,0.0,0.0,0.0,0.0,0.0,0.0,0.0,0.0,0.0,0.0,0.0,0.0,0.0,0.0,0.0,0.0,0.0,0.0,0.0,0.0,0.0,0.0,0.0,-3.04,-3.0404,-3.0404,-2.9615,-2.7972,0.0,0.0,0.0,0.0,0.0,0.0,0.0,0.0,0.0,0.0,0.0,0.0,0.0,0.0,0.0,0.0,0.0,0.0,0.0,0.0,0.0,0.0,0.0,0.0,0.0,0.0,0.0,0.0,0.0,0.0,0.0,0.0,0.0,0.0,0.0,0.0,0.0,0.0,0.0,0.0,0.0,0.0,0.0,0.0,0.0,0.0,0.0,0.0,0.0,0.0,0.0,0.0,0.0,0.0,0.0,0.0,0.0,0.0,0.0,0.0,0.0,0.0,0.0,0.0,0.0,0.0,0.0,0.0,0.0,0.0,0.0,0.0,0.0,0.0,0.0,0.0,0.0,0.0,0.0,0.0,0.0,0.0,0.0,0.0,0.0,0.0,0.0,0.0,0.0,0.0,0.0,0.0,0.0,0.0,0.0,0.0,0.0,0.0,0.0,0.0,0.0,0.0,0.0,0.0,0.0,0.0,0.0,0.0,0.0,0.0,0.0,0.0,-3.0788,-2.9813,-2.7953,0.0,0.0,0.0,0.0,0.0,0.0,0.0,0.0,0.0,0.0,0.0,0.0,0.0,0.0,0.0,0.0,0.0,0.0,0.0,0.0,0.0,0.0,0.0,0.0,0.0,0.0,0.0,0.0,0.0,0.0,0.0,0.0,0.0,0.0,0.0,0.0,0.0,0.0,0.0,0.0,0.0,0.0,0.0,0.0,0.0,0.0,0.0,0.0,0.0,0.0,0.0,0.0,0.0,0.0,0.0,0.0,0.0,0.0,0.0,0.0,0.0,0.0,0.0,0.0,0.0,0.0,0.0,0.0,0.0,0.0,0.0,0.0,0.0,0.0,0.0,0.0,0.0,0.0,0.0,0.0,0.0,0.0,0.0,0.0,0.0,0.0,0.0,0.0,0.0,0.0,0.0,0.0,0.0,0.0,0.0,0.0,0.0,0.0,0.0,0.0,0.0,0.0,0.0,0.0,0.0,0.0,0.0,0.0,0.0,0.0,-3.1929,-3.2622,-3.1968,0.0,-2.8005,0.0,0.0,0.0,0.0,0.0,0.0,0.0,0.0,0.0,0.0,0.0,0.0,0.0,0.0,0.0,0.0,0.0,0.0,0.0,0.0,0.0,0.0,0.0,0.0,0.0,0.0,0.0,0.0,0.0,0.0,0.0,0.0,0.0,0.0,0.0,0.0,0.0,0.0,0.0,0.0,0.0,0.0,0.0,0.0,0.0,0.0,0.0,0.0,0.0,0.0,0.0,0.0,0.0,0.0,0.0,0.0,0.0,0.0,0.0,0.0,0.0,0.0,0.0,0.0,0.0,0.0,0.0,0.0,0.0,0.0,0.0,0.0,0.0,0.0,0.0,0.0,0.0,0.0,0.0,0.0,0.0,0.0,0.0,0.0,0.0,0.0,0.0,0.0,0.0,0.0,0.0,0.0,0.0,0.0,0.0,0.0,0.0,0.0,0.0,0.0,0.0,0.0,0.0,0.0,0.0,0.0,0.0,0.0,0.0,0.0,-3.2083,-3.2891,-3.2122,-3.0717,0.0,0.0,0.0,0.0,0.0,0.0,0.0,0.0,0.0,0.0,0.0,0.0,0.0,0.0,0.0,0.0,0.0,0.0,0.0,0.0,0.0,0.0,0.0,0.0,0.0,0.0,0.0,0.0,0.0,0.0,0.0,0.0,0.0,0.0,0.0,0.0,0.0,0.0,0.0,0.0,0.0,0.0,0.0,0.0,0.0,0.0,0.0,0.0,0.0,0.0,0.0,0.0,0.0,0.0,0.0,0.0,0.0,0.0,0.0,0.0,0.0,0.0,0.0,0.0,0.0,0.0,0.0,0.0,0.0,0.0,0.0,0.0,0.0,0.0,0.0,0.0,0.0,0.0,0.0,0.0,0.0,0.0,0.0,0.0,0.0,0.0,0.0,0.0,0.0,0.0,0.0,0.0,0.0,0.0,0.0,0.0,0.0,0.0,0.0,0.0,0.0,0.0,0.0,0.0,0.0,0.0,0.0,0.0,0.0,0.0,-3.0794,0.0,-3.2487,-3.2,-3.0679,-2.8486,0.0,0.0,0.0,0.0,0.0,0.0,0.0,0.0,0.0,0.0,0.0,0.0,0.0,0.0,0.0,0.0,0.0,0.0,0.0,0.0,0.0,0.0,0.0,0.0,0.0,0.0,0.0,0.0,0.0,0.0,0.0,0.0,0.0,0.0,0.0,0.0,0.0,0.0,0.0,0.0,0.0,0.0,0.0,0.0,0.0,0.0,0.0,0.0,0.0,0.0,0.0,0.0,0.0,0.0,0.0,0.0,0.0,0.0,0.0,0.0,0.0,0.0,0.0,0.0,0.0,0.0,0.0,0.0,0.0,0.0,0.0,0.0,0.0,0.0,0.0,0.0,0.0,0.0,0.0,0.0,0.0,0.0,0.0,0.0,0.0,0.0,0.0,0.0,0.0,0.0,0.0,0.0,0.0,0.0,0.0,0.0,0.0,0.0,0.0,0.0,0.0,0.0,0.0,0.0,0.0,0.0,0.0,0.0,0.0,-3.0814,-3.1712,-3.1775,-3.1712,-3.014,0.0,0.0,0.0,0.0,0.0,0.0,0.0,0.0,0.0,0.0,0.0,0.0,0.0,0.0,0.0,0.0,0.0,0.0,0.0,0.0,0.0,0.0,0.0,0.0,0.0,0.0,0.0,0.0,0.0,0.0,0.0,0.0,0.0,0.0,0.0,0.0,0.0,0.0,0.0,0.0,0.0,0.0,0.0,0.0,0.0,0.0,0.0,0.0,0.0,0.0,0.0,0.0,0.0,0.0,0.0,0.0,0.0,0.0,0.0,0.0,0.0,0.0,0.0,0.0,0.0,0.0,0.0,0.0,0.0,0.0,0.0,0.0,0.0,0.0,0.0,0.0,0.0,0.0,0.0,0.0,0.0,0.0,0.0,0.0,0.0,0.0,0.0,0.0,0.0,0.0,0.0,0.0,0.0,0.0,0.0,0.0,0.0,0.0,0.0,0.0,0.0,0.0,0.0,0.0,0.0,0.0,0.0,0.0,0.0,-2.9242,-3.1295,-3.2218,-3.1737,-3.1698,-3.0102,0.0,0.0,0.0,0.0,0.0,0.0,0.0,0.0,0.0,0.0,0.0,0.0,0.0,0.0,0.0,0.0,0.0,0.0,0.0,0.0,0.0,0.0,0.0,0.0,0.0,0.0,0.0,0.0,0.0,0.0,0.0,0.0,0.0,0.0,0.0,0.0,0.0,0.0,0.0,0.0,0.0,0.0,0.0,0.0,0.0,0.0,0.0,0.0,0.0,0.0,0.0,0.0,0.0,0.0,0.0,0.0,0.0,0.0,0.0,0.0,0.0,0.0,0.0,0.0,0.0,0.0,0.0,0.0,0.0,0.0,0.0,0.0,0.0,0.0,0.0,0.0,0.0,0.0,0.0,0.0,0.0,0.0,0.0,0.0,0.0,0.0,0.0,0.0,0.0,0.0,0.0,0.0,0.0,0.0,0.0,0.0,0.0,0.0,0.0,0.0,0.0,0.0,0.0,0.0,0.0,0.0,0.0,0.0,0.0,-3.004,0.0,-3.2562,0.0,-3.1434,-2.9811,0.0,0.0,0.0,0.0,0.0,0.0,0.0,0.0,0.0,0.0,0.0,0.0,0.0,0.0,0.0,0.0,0.0,0.0,0.0,0.0,0.0,0.0,0.0,0.0,0.0,0.0,0.0,0.0,0.0,0.0,0.0,0.0,0.0,0.0,0.0,0.0,0.0,0.0,0.0,0.0,0.0,0.0,0.0,0.0,0.0,0.0,0.0,0.0,0.0,0.0,0.0,0.0,0.0,0.0,0.0,0.0,0.0,0.0,0.0,0.0,0.0,0.0,0.0,0.0,0.0,0.0,0.0,0.0,0.0,0.0,0.0,0.0,0.0,0.0,0.0,0.0,0.0,0.0,0.0,0.0,0.0,0.0,0.0,0.0,0.0,0.0,0.0,0.0,0.0,0.0,0.0,0.0,0.0,0.0,0.0,0.0,0.0,0.0,0.0,0.0,0.0,0.0,0.0,0.0,0.0,0.0,0.0,0.0,-3.0896,-3.1797,-3.2632,-3.2715,-3.1816,-3.0932,-2.9219,0.0,0.0,0.0,0.0,0.0,0.0,0.0,0.0,0.0,0.0,0.0,0.0,0.0,0.0,0.0,0.0,0.0,0.0,0.0,0.0,0.0,0.0,0.0,0.0,0.0,0.0,0.0,0.0,0.0,0.0,0.0,0.0,0.0,0.0,0.0,0.0,0.0,0.0,0.0,0.0,0.0,0.0,0.0,0.0,0.0,0.0,0.0,0.0,0.0,0.0,0.0,0.0,0.0,0.0,0.0,0.0,0.0,0.0,0.0,0.0,0.0,0.0,0.0,0.0,0.0,0.0,0.0,0.0,0.0,0.0,0.0,0.0,0.0,0.0,0.0,0.0,0.0,0.0,0.0,0.0,0.0,0.0,0.0,0.0,0.0,0.0,0.0,0.0,0.0,0.0,0.0,0.0,0.0,0.0,0.0,0.0,0.0,0.0,0.0,0.0,0.0,0.0,0.0,0.0,0.0,0.0,0.0,0.0,0.0,-3.3582,-3.4477,-3.3947,-3.1954,-3.095,-2.8994,0.0,0.0,0.0,0.0,0.0,0.0,0.0,0.0,0.0,0.0,0.0,0.0,0.0,0.0,0.0,0.0,0.0,0.0,0.0,0.0,0.0,0.0,0.0,0.0,0.0,0.0,0.0,0.0,0.0,0.0,0.0,0.0,0.0,0.0,0.0,0.0,0.0,0.0,0.0,0.0,0.0,0.0,0.0,0.0,0.0,0.0,0.0,0.0,0.0,0.0,0.0,0.0,0.0,0.0,0.0,0.0,0.0,0.0,0.0,0.0,0.0,0.0,0.0,0.0,0.0,0.0,0.0,0.0,0.0,0.0,0.0,0.0,0.0,0.0,0.0,0.0,0.0,0.0,0.0,0.0,0.0,0.0,0.0,0.0,0.0,0.0,0.0,0.0,0.0,0.0,0.0,0.0,0.0,0.0,0.0,0.0,0.0,0.0,0.0,0.0,0.0,0.0,0.0,0.0,0.0,0.0,0.0,0.0,0.0,-3.6231,-3.7225,-3.6466,-3.3854,-3.2283,-3.0016,-2.6979,0.0,0.0,0.0,0.0,0.0,0.0,0.0,0.0,0.0,0.0,0.0,0.0,0.0,0.0,0.0,0.0,0.0,0.0,0.0,0.0,0.0,0.0,0.0,0.0,0.0,0.0,0.0,0.0,0.0,0.0,0.0,0.0,0.0,0.0,0.0,0.0,0.0,0.0,0.0,0.0,0.0,0.0,0.0,0.0,0.0,0.0,0.0,0.0,0.0,0.0,0.0,0.0,0.0,0.0,0.0,0.0,0.0,0.0,0.0,0.0,0.0,0.0,0.0,0.0,0.0,0.0,0.0,0.0,0.0,0.0,0.0,0.0,0.0,0.0,0.0,0.0,0.0,0.0,0.0,0.0,0.0,0.0,0.0,0.0,0.0,0.0,0.0,0.0,0.0,0.0,0.0,0.0,0.0,0.0,0.0,0.0,0.0,0.0,0.0,0.0,0.0,0.0,0.0,0.0,0.0,0.0,0.0,0.0,-3.9575,-4.0699,-3.9906,-3.7167,-3.4638,-3.2072,0.0,0.0,0.0,0.0,0.0,0.0,0.0,0.0,0.0,0.0,0.0,0.0,0.0,0.0,0.0,0.0,0.0,0.0,0.0,0.0,0.0,0.0,0.0,0.0,0.0,0.0,0.0,0.0,0.0,0.0,0.0,0.0,0.0,0.0,0.0,0.0,0.0,0.0,0.0,0.0,0.0,0.0,0.0,0.0,0.0,0.0,0.0,0.0,0.0,0.0,0.0,0.0,0.0,0.0,0.0,0.0,0.0,0.0,0.0,0.0,0.0,0.0,0.0,0.0,0.0,0.0,0.0,0.0,0.0,0.0,0.0,0.0,0.0,0.0,0.0,0.0,0.0,0.0,0.0,0.0,0.0,0.0,0.0,0.0,0.0,0.0,0.0,0.0,0.0,0.0,0.0,0.0,0.0,0.0,0.0,0.0,0.0,0.0,0.0,0.0,0.0,0.0,0.0,0.0,0.0,0.0,0.0,0.0,0.0,-4.1222,-4.4046,-4.3376,-3.9005,-3.6997,-3.4171,0.0,0.0,0.0,0.0,0.0,0.0,0.0,0.0,0.0,0.0,0.0,0.0,0.0,0.0,0.0,0.0,0.0,0.0,0.0,0.0,0.0,0.0,0.0,0.0,0.0,0.0,0.0,0.0,0.0,0.0,0.0,0.0,0.0,0.0,0.0,0.0,0.0,0.0,0.0,0.0,0.0,0.0,0.0,0.0,0.0,0.0,0.0,0.0,0.0,0.0,0.0,0.0,0.0,0.0,0.0,0.0,0.0,0.0,0.0,0.0,0.0,0.0,0.0,0.0,0.0,0.0,0.0,0.0,0.0,0.0,0.0,0.0,0.0,0.0,0.0,0.0,0.0,0.0,0.0,0.0,0.0,0.0,0.0,0.0,0.0,0.0,0.0,0.0,0.0,0.0,0.0,0.0,0.0,0.0,0.0,0.0,0.0,0.0,0.0,0.0,0.0,0.0,0.0,0.0,0.0,0.0,0.0,0.0,-3.8157,-4.2377,-4.5808,-4.5827,-4.2195,-3.9478,-3.6062,0.0,0.0,0.0,0.0,0.0,0.0,0.0,0.0,0.0,0.0,0.0,0.0,0.0,0.0,0.0,0.0,0.0,0.0,0.0,0.0,0.0,0.0,0.0,0.0,0.0,0.0,0.0,0.0,0.0,0.0,0.0,0.0,0.0,0.0,0.0,0.0,0.0,0.0,0.0,0.0,0.0,0.0,0.0,0.0,0.0,0.0,0.0,0.0,0.0,0.0,0.0,0.0,0.0,0.0,0.0,0.0,0.0,0.0,0.0,0.0,0.0,0.0,0.0,0.0,0.0,0.0,0.0,0.0,0.0,0.0,0.0,0.0,0.0,0.0,0.0,0.0,0.0,0.0,0.0,0.0,0.0,0.0,0.0,0.0,0.0,0.0,0.0,0.0,0.0,0.0,0.0,0.0,0.0,0.0,0.0,0.0,0.0,0.0,0.0,0.0,0.0,0.0,0.0,0.0,0.0,0.0,0.0,0.0,-3.8868,-4.3031,-4.6348,-4.7309,-4.5669,-4.1835,-3.7763,0.0,0.0,0.0,0.0,0.0,0.0,0.0,0.0,0.0,0.0,0.0,0.0,0.0,0.0,0.0,0.0,0.0,0.0,0.0,0.0,0.0,0.0,0.0,0.0,0.0,0.0,0.0,0.0,0.0,0.0,0.0,0.0,0.0,0.0,0.0,0.0,0.0,0.0,0.0,0.0,0.0,0.0,0.0,0.0,0.0,0.0,0.0,0.0,0.0,0.0,0.0,0.0,0.0,0.0,0.0,0.0,0.0,0.0,0.0,0.0,0.0,0.0,0.0,0.0,0.0,0.0,0.0,0.0,0.0,0.0,0.0,0.0,0.0,0.0,0.0,0.0,0.0,0.0,0.0,0.0,0.0,0.0,0.0,0.0,0.0,0.0,0.0,0.0,0.0,0.0,0.0,0.0,0.0,0.0,0.0,0.0,0.0,0.0,0.0,0.0,0.0,0.0,0.0,0.0,0.0,0.0,0.0,0.0,-3.8842,-4.3023,-4.577,-4.6711,-4.5711,-4.2908,-3.9399,0.0,0.0,0.0,0.0,0.0,0.0,0.0,0.0,0.0,0.0,0.0,0.0,0.0,0.0,0.0,0.0,0.0,0.0,0.0,0.0,0.0,0.0,0.0,0.0,0.0,0.0,0.0,0.0,0.0,0.0,0.0,0.0,0.0,0.0,0.0,0.0,0.0,0.0,0.0,0.0,0.0,0.0,0.0,0.0,0.0,0.0,0.0,0.0,-2.4369,0.0,0.0,0.0,0.0,0.0,0.0,0.0,0.0,0.0,0.0,0.0,0.0,0.0,0.0,0.0,0.0,0.0,0.0,0.0,0.0,0.0,0.0,0.0,0.0,0.0,0.0,0.0,0.0,0.0,0.0,0.0,0.0,0.0,0.0,0.0,0.0,0.0,0.0,0.0,0.0,0.0,0.0,0.0,0.0,0.0,0.0,0.0,0.0,0.0,0.0,0.0,0.0,0.0,0.0,0.0,0.0,0.0,0.0,0.0,-3.9872,-4.3671,-4.5877,-4.6587,-4.5723,-4.3612,-4.0498,0.0,0.0,0.0,0.0,0.0,0.0,0.0,0.0,0.0,0.0,0.0,0.0,0.0,0.0,0.0,0.0,0.0,0.0,0.0,0.0,0.0,0.0,0.0,0.0,0.0,0.0,0.0,0.0,0.0,0.0,0.0,0.0,0.0,0.0,0.0,0.0,0.0,0.0,0.0,0.0,0.0,0.0,0.0,0.0,0.0,0.0,0.0,0.0,0.0,0.0,0.0,0.0,0.0,0.0,0.0,0.0,0.0,0.0,0.0,0.0,0.0,0.0,0.0,0.0,0.0,0.0,0.0,0.0,0.0,0.0,0.0,0.0,0.0,0.0,0.0,0.0,0.0,0.0,0.0,0.0,0.0,0.0,0.0,0.0,0.0,0.0,0.0,0.0,0.0,0.0,0.0,0.0,0.0,0.0,0.0,0.0,0.0,0.0,0.0,0.0,0.0,0.0,0.0,0.0,0.0,0.0,0.0,-3.7636,-4.0988,-4.4183,-4.599,-4.6418,-4.5413,-4.3659,-4.0771,-3.6626,0.0,0.0,0.0,0.0,0.0,0.0,0.0,0.0,0.0,0.0,0.0,0.0,0.0,0.0,0.0,0.0,0.0,0.0,0.0,0.0,0.0,0.0,0.0,0.0,0.0,0.0,0.0,0.0,0.0,0.0,0.0,0.0,0.0,0.0,0.0,0.0,0.0,0.0,-2.1589,-2.3556,0.0,0.0,0.0,0.0,0.0,0.0,0.0,0.0,-2.4125,0.0,0.0,0.0,0.0,0.0,0.0,0.0,0.0,0.0,0.0,0.0,0.0,0.0,0.0,0.0,0.0,0.0,0.0,0.0,0.0,0.0,0.0,0.0,0.0,0.0,0.0,0.0,0.0,0.0,0.0,0.0,0.0,0.0,0.0,0.0,0.0,0.0,0.0,0.0,0.0,0.0,0.0,0.0,0.0,0.0,0.0,0.0,0.0,0.0,0.0,0.0,0.0,0.0,0.0,0.0,0.0,-3.4148,-3.7636,-4.0705,-4.3373,-4.5109,-4.5259,-4.3668,-4.1931,-3.9024,-3.4907,0.0,0.0,0.0,0.0,0.0,0.0,0.0,0.0,0.0,0.0,0.0,0.0,0.0,0.0,0.0,0.0,0.0,0.0,0.0,0.0,0.0,0.0,0.0,0.0,0.0,0.0,0.0,0.0,0.0,0.0,0.0,0.0,0.0,0.0,0.0,0.0,0.0,0.0,0.0,-2.4853,-2.5659,0.0,0.0,0.0,0.0,0.0,0.0,0.0,0.0,-2.4249,0.0,0.0,0.0,0.0,0.0,0.0,0.0,0.0,0.0,0.0,0.0,0.0,0.0,0.0,0.0,0.0,0.0,0.0,0.0,0.0,0.0,0.0,0.0,0.0,0.0,0.0,0.0,0.0,0.0,0.0,0.0,0.0,0.0,0.0,0.0,0.0,0.0,0.0,0.0,0.0,0.0,0.0,0.0,0.0,0.0,0.0,0.0,0.0,0.0,0.0,0.0,0.0,0.0,0.0,0.0,-3.4763,-3.8311,-4.1103,-4.3142,-4.4506,-4.4341,-4.2595,-4.0454,-3.7533,0.0,0.0,0.0,0.0,0.0,0.0,0.0,0.0,0.0,0.0,0.0,0.0,0.0,0.0,0.0,0.0,0.0,0.0,0.0,0.0,0.0,0.0,0.0,0.0,0.0,0.0,0.0,0.0,0.0,0.0,0.0,0.0,0.0,0.0,0.0,0.0,0.0,0.0,0.0,0.0,-2.6646,-2.7334,-2.7663,0.0,0.0,0.0,0.0,0.0,0.0,-2.5695,-2.5069,0.0,0.0,0.0,0.0,0.0,0.0,0.0,0.0,0.0,0.0,0.0,0.0,0.0,0.0,0.0,0.0,0.0,0.0,0.0,0.0,0.0,0.0,0.0,0.0,0.0,0.0,0.0,0.0,0.0,0.0,0.0,0.0,0.0,0.0,0.0,0.0,0.0,0.0,0.0,0.0,0.0,0.0,0.0,0.0,0.0,0.0,0.0,0.0,0.0,0.0,0.0,0.0,0.0,0.0,0.0,-3.5405,-3.8754,-4.1258,-4.2898,-4.387,-4.3421,-4.1538,-3.9129,-3.6211,0.0,0.0,0.0,0.0,0.0,0.0,0.0,0.0,0.0,0.0,0.0,0.0,0.0,0.0,0.0,0.0,0.0,0.0,0.0,0.0,0.0,0.0,0.0,0.0,0.0,0.0,0.0,0.0,0.0,0.0,0.0,0.0,0.0,0.0,0.0,0.0,0.0,0.0,0.0,0.0,0.0,-2.8912,-2.8374,-2.8248,0.0,0.0,0.0,0.0,-2.7316,-2.6904,0.0,0.0,0.0,0.0,0.0,0.0,0.0,0.0,0.0,0.0,0.0,0.0,0.0,0.0,0.0,0.0,0.0,0.0,0.0,0.0,0.0,0.0,0.0,0.0,0.0,0.0,0.0,0.0,0.0,0.0,0.0,0.0,0.0,0.0,0.0,0.0,0.0,0.0,0.0,0.0,0.0,0.0,0.0,0.0,0.0,0.0,0.0,0.0,0.0,0.0,0.0,0.0,0.0,0.0,0.0,0.0,-3.5368,-3.8163,-4.0396,-4.2084,-4.3007,-4.2273,-3.9865,-3.8011,-3.5131,0.0,0.0,0.0,0.0,0.0,0.0,0.0,0.0,0.0,0.0,0.0,0.0,0.0,0.0,0.0,0.0,0.0,0.0,0.0,0.0,0.0,0.0,0.0,0.0,0.0,0.0,0.0,0.0,0.0,0.0,0.0,0.0,0.0,0.0,0.0,0.0,0.0,0.0,0.0,0.0,0.0,-2.9327,-2.9926,-3.0011,-2.973,0.0,0.0,-2.9209,-2.7804,-2.8005,0.0,0.0,0.0,0.0,0.0,0.0,0.0,0.0,0.0,0.0,0.0,0.0,0.0,0.0,0.0,0.0,0.0,0.0,0.0,0.0,0.0,0.0,0.0,0.0,0.0,0.0,0.0,0.0,0.0,0.0,0.0,0.0,0.0,0.0,0.0,0.0,0.0,0.0,0.0,0.0,0.0,0.0,0.0,0.0,0.0,0.0,0.0,0.0,0.0,0.0,0.0,0.0,0.0,0.0,0.0,-2.972,-3.4718,-3.7842,-4.0243,-4.1936,-4.2376,-4.1583,-3.9544,-3.689,-3.3992,0.0,0.0,0.0,0.0,0.0,0.0,0.0,0.0,0.0,0.0,0.0,0.0,0.0,0.0,0.0,0.0,0.0,0.0,0.0,0.0,0.0,0.0,0.0,0.0,0.0,0.0,0.0,0.0,0.0,0.0,0.0,0.0,0.0,0.0,0.0,0.0,0.0,0.0,0.0,0.0,0.0,0.0,-3.0911,-3.1091,0.0,0.0,0.0,-3.1469,-3.0673,0.0,0.0,0.0,0.0,0.0,0.0,0.0,0.0,0.0,0.0,0.0,0.0,0.0,0.0,0.0,0.0,0.0,0.0,0.0,0.0,0.0,0.0,0.0,0.0,0.0,0.0,0.0,0.0,0.0,0.0,0.0,0.0,0.0,0.0,0.0,0.0,0.0,0.0,0.0,0.0,0.0,0.0,0.0,0.0,0.0,0.0,0.0,0.0,0.0,0.0,0.0,0.0,0.0,0.0,0.0,0.0,0.0,-3.4228,-3.7462,-3.9928,-4.1641,-4.1706,-4.0899,-3.9217,-3.6512,0.0,0.0,0.0,0.0,0.0,0.0,0.0,0.0,0.0,0.0,0.0,0.0,0.0,0.0,0.0,0.0,0.0,0.0,0.0,0.0,0.0,0.0,0.0,0.0,0.0,0.0,0.0,-1.5827,0.0,0.0,0.0,0.0,0.0,0.0,0.0,0.0,0.0,0.0,0.0,0.0,0.0,0.0,-3.0223,-3.1525,-3.2237,-3.2718,0.0,0.0,-3.3391,-3.2896,-3.2771,-3.1833,0.0,0.0,0.0,0.0,0.0,0.0,0.0,0.0,0.0,0.0,0.0,0.0,0.0,0.0,0.0,0.0,0.0,0.0,0.0,0.0,0.0,0.0,0.0,0.0,0.0,0.0,0.0,0.0,0.0,0.0,0.0,0.0,0.0,0.0,0.0,0.0,0.0,0.0,0.0,0.0,0.0,0.0,0.0,0.0,0.0,0.0,0.0,0.0,0.0,0.0,0.0,0.0,0.0,0.0,0.0,-3.4171,-3.6914,-3.9135,-4.081,-4.0887,-4.0084,-3.8433,-3.7446,-3.4989,0.0,0.0,0.0,0.0,0.0,0.0,0.0,0.0,0.0,0.0,0.0,0.0,0.0,0.0,0.0,0.0,0.0,0.0,0.0,0.0,0.0,0.0,0.0,0.0,0.0,0.0,0.0,0.0,0.0,0.0,0.0,0.0,0.0,0.0,0.0,0.0,0.0,0.0,0.0,0.0,0.0,-3.1583,-3.1698,-3.3737,-3.4673,0.0,0.0,-3.4756,-3.3146,-3.2857,-3.1903,-2.9326,0.0,0.0,0.0,0.0,0.0,0.0,0.0,0.0,0.0,0.0,0.0,0.0,0.0,0.0,0.0,0.0,0.0,0.0,0.0,0.0,0.0,0.0,0.0,0.0,0.0,0.0,0.0,0.0,0.0,0.0,0.0,0.0,0.0,0.0,0.0,0.0,0.0,0.0,0.0,0.0,0.0,0.0,0.0,0.0,0.0,0.0,0.0,0.0,0.0,0.0,0.0,0.0,0.0,-2.8695,-3.2724,-3.6344,-3.8786,-3.9965,-4.0526,-3.9993,-3.834,-3.7526,-3.5129,0.0,0.0,0.0,0.0,0.0,0.0,0.0,0.0,0.0,0.0,0.0,0.0,0.0,0.0,0.0,0.0,0.0,0.0,0.0,0.0,0.0,0.0,0.0,0.0,0.0,0.0,0.0,0.0,-1.8161,-1.8834,-1.9688,0.0,0.0,0.0,0.0,0.0,0.0,0.0,0.0,0.0,0.0,-3.225,-3.3808,-3.4885,0.0,0.0,-3.6161,-3.6019,-3.5332,-3.4807,-3.3569,-3.0982,-2.7542,0.0,0.0,0.0,0.0,0.0,0.0,0.0,0.0,0.0,0.0,0.0,0.0,0.0,0.0,0.0,0.0,0.0,0.0,0.0,0.0,0.0,0.0,0.0,0.0,0.0,0.0,0.0,0.0,0.0,0.0,0.0,0.0,0.0,0.0,0.0,0.0,0.0,0.0,0.0,0.0,0.0,0.0,0.0,0.0,0.0,0.0,0.0,0.0,0.0,0.0,0.0,0.0,-2.8384,-3.1792,-3.6008,-3.863,-3.9493,-4.0357,-4.0001,-3.841,-3.7803,-3.5534,0.0,0.0,0.0,0.0,0.0,0.0,0.0,0.0,0.0,0.0,0.0,0.0,0.0,0.0,0.0,0.0,0.0,0.0,0.0,0.0,0.0,0.0,0.0,0.0,0.0,0.0,0.0,0.0,-1.9584,-1.99,-2.0262,0.0,0.0,0.0,0.0,0.0,0.0,0.0,0.0,0.0,0.0,-3.3083,-3.4853,-3.5538,-3.6173,-3.7123,-3.7161,-3.693,-3.6423,-3.5865,-3.4614,-3.2038,0.0,0.0,0.0,0.0,0.0,0.0,0.0,0.0,0.0,0.0,0.0,0.0,0.0,0.0,0.0,0.0,0.0,0.0,0.0,0.0,0.0,0.0,0.0,0.0,0.0,0.0,0.0,-2.6992,0.0,0.0,-2.4551,0.0,0.0,0.0,0.0,0.0,0.0,0.0,0.0,0.0,0.0,0.0,0.0,0.0,0.0,0.0,0.0,0.0,0.0,0.0,0.0,0.0,0.0,-2.8408,-3.1792,-3.6027,-3.8617,-3.9464,-4.0344,-4.0019,-3.8478,-3.843,-3.6444,-3.2173,0.0,0.0,0.0,0.0,0.0,0.0,0.0,0.0,0.0,0.0,0.0,0.0,0.0,0.0,0.0,0.0,0.0,0.0,0.0,0.0,0.0,0.0,0.0,0.0,0.0,0.0,-2.2478,-2.1995,-2.1132,0.0,0.0,0.0,0.0,0.0,0.0,0.0,0.0,0.0,0.0,-3.2012,-3.4167,-3.4282,-3.5641,-3.6423,-3.575,-3.6949,-3.7392,-3.5808,-3.5519,-3.4614,0.0,0.0,0.0,0.0,0.0,0.0,0.0,0.0,0.0,0.0,0.0,0.0,0.0,0.0,0.0,0.0,0.0,0.0,0.0,0.0,0.0,0.0,0.0,0.0,0.0,0.0,0.0,-3.3456,-3.207,0.0,0.0,0.0,0.0,0.0,0.0,0.0,0.0,0.0,0.0,0.0,-3.4643,-3.4368,0.0,0.0,0.0,0.0,0.0,0.0,0.0,0.0,0.0,0.0,0.0,0.0,-2.8954,-3.1831,-3.6033,-3.8357,-3.8717,-3.9553,-3.9479,-3.8436,-3.789,-3.5644,-3.1443,0.0,0.0,0.0,0.0,0.0,0.0,0.0,0.0,0.0,0.0,0.0,0.0,0.0,0.0,0.0,0.0,0.0,0.0,0.0,0.0,0.0,0.0,0.0,0.0,0.0,-2.0625,0.0,0.0,0.0,0.0,0.0,0.0,0.0,0.0,0.0,0.0,0.0,-2.7748,-2.9707,-3.2904,-3.525,-3.5776,-3.6334,-3.6808,0.0,0.0,0.0,0.0,0.0,0.0,0.0,0.0,0.0,0.0,0.0,0.0,0.0,0.0,-2.9126,-2.7241,-2.6888,-2.6451,-2.5069,0.0,0.0,0.0,0.0,0.0,0.0,0.0,0.0,0.0,0.0,0.0,0.0,0.0,0.0,-3.7148,0.0,-3.4805,0.0,0.0,0.0,0.0,0.0,0.0,0.0,0.0,-3.7533,-3.7962,-3.8196,-3.763,-3.7332,0.0,-3.7242,-3.4438,0.0,0.0,0.0,0.0,0.0,0.0,0.0,0.0,-2.9577,-3.1903,-3.6054,-3.8125,-3.7938,-3.9036,-3.9112,-3.801,-3.6903,-3.4759,-3.1465,-2.8887,-2.6699,0.0,0.0,0.0,0.0,0.0,0.0,0.0,0.0,0.0,0.0,0.0,0.0,0.0,0.0,0.0,0.0,0.0,0.0,0.0,0.0,0.0,0.0,0.0,-2.0739,0.0,0.0,0.0,0.0,0.0,0.0,0.0,0.0,0.0,-2.506,-2.746,-2.9844,-3.1515,-3.3911,-3.5692,-3.6212,0.0,0.0,0.0,0.0,0.0,0.0,0.0,-3.4859,-3.4201,-3.1999,-3.0449,-3.0763,-3.0874,-3.1032,-3.148,0.0,0.0,-3.0634,-2.9991,-2.9386,-2.8019,-2.8639,-2.913,-2.8275,-2.8765,-2.9454,0.0,0.0,0.0,0.0,0.0,0.0,0.0,0.0,-4.0996,-4.0449,0.0,-3.7109,0.0,0.0,0.0,0.0,0.0,-3.4121,0.0,0.0,-4.1172,-4.168,-4.2246,-4.0703,-3.9921,-3.9878,-3.9808,-3.8458,-3.5805,-3.1731,0.0,0.0,0.0,0.0,0.0,0.0,-3.0205,-3.2086,-3.6125,-3.788,-3.7191,-3.8724,-3.8809,-3.7209,-3.5577,-3.3945,-3.2305,-3.1309,-2.9297,-2.6016,-2.4941,0.0,0.0,0.0,0.0,0.0,0.0,0.0,0.0,0.0,0.0,0.0,0.0,0.0,0.0,0.0,0.0,0.0,0.0,0.0,0.0,-2.2923,0.0,0.0,0.0,0.0,0.0,0.0,0.0,0.0,0.0,0.0,-2.9236,-3.0786,-3.2407,-3.4006,0.0,0.0,0.0,0.0,-3.6712,-3.675,-3.8161,-3.8642,-3.7026,-3.6692,-3.607,-3.4478,0.0,0.0,-3.2522,-3.3081,-3.3486,-3.3452,-3.3979,-3.4431,-3.4146,-3.3385,-3.2648,-3.1868,-3.1682,-3.1533,-3.092,-3.1151,-3.1693,-5.015,0.0,0.0,0.0,0.0,-4.4681,-4.4686,-4.4492,-4.4726,-4.457,-4.3984,-4.2246,0.0,0.0,0.0,0.0,0.0,0.0,-3.9434,-4.125,-4.2422,-4.3105,-4.3281,-4.2207,-4.1679,-4.1638,-4.1028,-4.0037,-3.8634,-3.6745,-3.3813,-2.9893,0.0,0.0,0.0,0.0,-3.1395,-3.3746,-3.6148,-3.7315,-3.7173,-3.7652,-3.7416,-3.6383,-3.5273,-3.418,-3.3086,-3.166,-3.0156,-2.8535,-2.6465,0.0,0.0,0.0,0.0,0.0,0.0,0.0,0.0,0.0,0.0,0.0,0.0,0.0,0.0,0.0,0.0,0.0,0.0,0.0,-2.2769,-2.3491,-2.3174,0.0,0.0,0.0,0.0,0.0,0.0,0.0,0.0,0.0,-3.2729,-3.3823,-3.465,0.0,0.0,-3.6651,-3.7268,-3.6983,-3.6904,-3.7546,-3.8065,0.0,-3.7719,-3.6622,-3.5885,-3.5935,-3.5187,-3.4542,-3.4416,-3.4485,-3.4557,-3.4472,-3.4552,-3.4609,-3.4498,-3.4195,-3.3625,-3.2883,-3.2667,-3.2593,-3.2377,-3.2518,-3.2787,-5.3632,-5.1108,-4.9072,-4.7831,-4.7271,-4.7634,-4.7637,-4.7343,-4.7695,-4.7851,-4.7734,-4.6016,-4.4297,-4.2558,-4.0195,0.0,0.0,0.0,-4.1543,-4.2754,-4.373,-4.4394,-4.4648,-4.3496,-4.2929,-4.2851,-4.1717,-4.0674,-3.9786,-3.9213,-3.715,-3.3682,0.0,0.0,-3.1577,-3.1624,-3.26,-3.4528,-3.6219,-3.695,-3.675,-3.6732,-3.6498,-3.5996,-3.5156,-3.4297,-3.3418,-3.2109,-3.084,-2.9648,-2.7109,-2.5254,0.0,0.0,0.0,0.0,0.0,0.0,0.0,0.0,0.0,0.0,0.0,-1.3925,-1.4754,0.0,0.0,0.0,-2.1048,-2.2721,-2.3424,-2.421,0.0,0.0,0.0,0.0,0.0,0.0,0.0,-2.9979,-3.1782,-3.3353,-3.4737,-3.5615,-3.5999,-3.5664,-3.6305,-3.6883,-3.705,0.0,-3.6885,-3.7411,-3.7777,-3.7873,-3.7526,-3.6635,-3.6058,-3.6192,-3.5739,-3.5335,-3.5246,-3.5182,-3.5088,-3.5037,-3.4908,-3.4782,-3.466,-3.4498,-3.4228,-3.362,-3.3473,-3.3484,-3.3473,-3.3484,-3.3597,-5.543,-5.5097,-5.2731,-5.0718,-4.9217,-4.9961,-4.9823,-4.9178,-4.994,-5.0292,-5.0156,-4.8535,-4.6816,-4.4902,-4.168,0.0,-4.1445,-4.2246,-4.3457,-4.5,-4.5019,-4.543,-4.6094,-4.4394,-4.3594,-4.3535,-4.1973,-4.0759,-3.9939,-3.9841,-3.9351,-3.8419,-3.524,-3.3572,-3.351,-3.3378,-3.3777,-3.4701,-3.6289,-3.6733,-3.6025,-3.6009,-3.5976,-3.5879,-3.5117,-3.4258,-3.334,-3.2598,-3.1367,-2.9551,-2.7148,-2.5723,-2.541,0.0,0.0,0.0,0.0,0.0,0.0,0.0,0.0,0.0,0.0,0.0,0.0,0.0,0.0,0.0,-2.3528,0.0,-2.4571,-2.5228,0.0,0.0,0.0,-2.3987,-2.5724,-2.7329,-2.9263,-3.1734,0.0,0.0,-3.5588,-3.64,-3.6582,-3.5728,-3.6311,-3.6537,-3.5824,-3.6323,-3.6719,-3.6892,-3.7507,-3.7719,-3.7103,-3.6769,-3.6385,-3.5712,-3.5453,-3.5379,-3.5323,-3.5312,-3.5293,-3.5234,-3.5098,-3.4945,-3.4763,-3.4588,-3.445,-3.4215,-3.4179,-3.4179,-3.4141,-3.4141,-3.4111,-5.6836,-5.6232,-5.5589,-5.3959,-5.1797,-5.199,-5.1578,-5.0838,-5.1014,-5.1113,-5.1055,-5.0019,-4.8242,-4.5879,-4.375,-4.291,-4.3164,-4.4004,-4.4609,-4.5,-4.5019,-4.5117,-4.5215,-4.3516,-4.2715,-4.2637,-4.168,-4.1072,-4.0784,-4.0738,-4.0281,-3.9424,-3.7913,-3.6819,-3.614,-3.4905,-3.47,-3.558,-3.599,-3.6151,-3.6013,-3.6015,-3.5703,-3.5019,-3.4824,-3.4004,-3.2559,-3.2305,-3.1094,-2.873,-2.7383,-2.582,-2.3867,-2.1562,0.0,0.0,0.0,0.0,0.0,0.0,0.0,0.0,0.0,-1.7123,-1.7999,0.0,-2.1043,0.0,-2.3392,-2.5282,-2.7018,-2.7359,0.0,0.0,-2.6935,-2.7484,-2.9205,-3.0288,-3.1661,-3.3543,-3.4737,-3.5477,-3.5665,-3.6381,-3.6588,-3.5809,-3.636,-3.7031,-3.745,-3.707,-3.6984,-3.7523,-3.7791,-3.793,-3.7623,-3.7115,-3.6423,-3.5615,-3.5493,-3.5486,-3.546,-3.5453,-3.5458,-3.5417,-3.5285,-3.5089,-3.4889,-3.471,-3.4495,-3.4257,-3.4216,-3.4216,-3.4216,-3.4216,-3.4185,-5.6996,-5.6604,-5.6604,-5.5524,-5.3821,-5.3444,-5.2567,-5.1402,-5.1402,-5.1385,-5.1308,-5.0156,-4.8613,-4.6816,-4.5469,-4.4863,-4.4883,-4.5351,-4.5566,-4.5566,-4.5195,-4.5019,-4.4922,-4.3203,-4.2383,-4.2363,-4.1582,-4.1171,-4.1102,-4.1067,-4.0818,-4.0344,-3.9082,-3.822,-3.7715,-3.6081,-3.5465,-3.5928,-3.5961,-3.5952,-3.5976,-3.5625,-3.5176,-3.4707,-3.3984,-3.2969,-3.166,-3.125,-3.0371,-2.8926,-2.7305,-2.5957,-2.4922,-2.291,-2.1211,0.0,0.0,0.0,0.0,0.0,0.0,0.0,0.0,0.0,0.0,0.0,-2.3864,-2.4643,-2.5857,-2.7349,-2.9143,-2.9593,-2.9951,-3.0326,-3.0311,-3.0656,-3.1618,-3.2454,-3.3344,-3.4297,-3.5168,-3.5704,-3.5723,-3.6091,-3.6207,-3.5742,-3.6079,-3.6526,-3.6895,-3.655,-3.6388,-3.6806,-3.6894,-3.6885,-3.6892,-3.6488,-3.6019,-3.5596,-3.55,-3.55,-3.55,-3.55,-3.55,-3.5474,-3.5373,-3.5185,-3.4982,-3.4812,-3.4524,-3.3982,-3.3787,-3.3902,-3.4147,-3.4216,-3.4185,-5.6662,-5.674,-5.676,-5.6274,-5.5415,-5.4654,-5.3279,-5.1555,-5.1457,-5.1384,-5.1308,-4.9766,-4.8594,-4.7715,-4.6855,-4.6406,-4.6289,-4.6289,-4.6289,-4.625,-4.541,-4.4941,-4.4766,-4.3164,-4.2363,-4.2226,-4.1543,-4.1171,-4.1108,-4.1098,-4.1033,-4.0878,-3.9315,-3.8481,-3.8353,-3.6823,-3.6021,-3.6007,-3.6013,-3.5937,-3.584,-3.5098,-3.459,-3.4336,-3.2851,-3.1621,-3.0762,-2.9902,-2.9375,-2.9199,-2.6973,-2.5996,-2.6562,-2.4375,-2.2344,0.0,-2.0664,0.0,0.0,0.0,0.0,0.0,0.0,0.0,0.0,-2.4687,-2.6719,-2.8318,-2.9208,-3.0028,-3.0886,-3.1647,-3.2388,-3.3109,-3.3147,-3.3146,-3.3262,-3.3944,-3.4432,-3.4549,-3.5226,-3.5704,-3.5704,-3.5704,-3.5704,-3.5704,-3.5742,-3.577,-3.567,-3.5636,-3.5592,-3.5515,-3.5495,-3.5692,-3.5654,-3.5558,-3.5538,-3.55,-3.55,-3.55,-3.55,-3.55,-3.55,-3.5474,-3.5395,-3.5234,-3.5051,-3.4917,-3.4508,-3.3594,-3.3398,-3.3526,-3.3871,-3.3849,-3.393,-5.6977,-5.7562,-5.7582,-5.7094,-5.6333,-5.6177,-5.4724,-5.2414,-5.1711,-5.1384,-5.1328,-5.0391,-4.9473,-4.8613,-4.7734,-4.6973,-4.6308,-4.6289,-4.6289,-4.6269,-4.541,-4.4629,-4.3906,-4.2871,-4.2051,-4.1445,-4.1289,-4.1171,-4.1111,-4.1107,-4.0772,-4.0128,-3.9093,-3.8236,-3.7517,0.0,0.0,0.0,-3.6015,-3.5644,-3.498,-3.4785,-3.4062,-3.2715,-3.1699,0.0,-2.9883,-2.9004,-2.8203,-2.75,-2.6348,0.0,0.0,0.0,0.0,0.0,0.0,0.0,0.0,0.0,0.0,0.0,-2.5801,-2.5684,-2.6035,-2.7109,-2.8242,-2.9256,-3.0094,-3.0903,-3.1769,-3.2578,-3.3086,-3.3164,-3.3151,-3.3378,-3.4065,-3.4316,-3.4665,-3.538,-3.5593,-3.5704,-3.5704,-3.5704,-3.5704,-3.5704,-3.5704,-3.5704,-3.5679,-3.5608,-3.5585,-3.5579,-3.5528,-3.5481,-3.55,-3.55,-3.55,-3.55,-3.55,-3.55,-3.55,-3.55,-3.55,-3.55,-3.5391,-3.527,-3.5182,-3.5062,-3.465,-3.3734,-3.3496,-3.3441,-3.3377,-3.2821,-3.2508,-5.7074,0.0,-5.7367,-5.7211,0.0,-5.5845,-5.4564,-5.3268,-5.2429,-5.1791,-5.1347,-5.0547,-4.9707,-4.8848,-4.7988,-4.7109,-4.6308,-4.6289,-4.6289,-4.625,-4.5391,-4.4531,-4.3672,-4.2812,-4.1973,-4.1211,-4.1191,-4.1172,-4.1113,-4.0721,-4.0291,-3.9901,-3.8612,-3.7733,-3.7285,-3.6426,-3.6016,-3.6016,-3.6016,-3.5566,-3.4726,-3.4277,-3.3457,-3.2246,-3.1367,0.0,0.0,0.0,0.0,0.0,0.0,0.0,0.0,0.0,0.0,-2.2598,-2.291,-2.3496,-2.4316,-2.4805,-2.5996,-2.8105,-2.8672,-2.873,-2.832,-2.9082,-2.9941,-3.082,-3.162,-3.2436,-3.329,-3.3695,-3.405,-3.4408,-3.4425,-3.4582,-3.4955,-3.5051,-3.5201,-3.5607,-3.5704,-3.5704,-3.5704,-3.5704,-3.5704,-3.5704,-3.5704,-3.5704,-3.5679,-3.5633,-3.5591,-3.5547,-3.5534,-3.5481,-3.55,-3.55,-3.55,-3.55,-3.55,-3.55,-3.55,-3.55,-3.55,-3.55,-3.5412,-3.5335,-3.5262,-3.5198,-3.4723,-3.3513,-3.3076,-3.277,-3.2294,-3.2019,-3.2013,-5.7289,-5.7972,-5.7328,-5.725,-5.7406,-5.5337,-5.4191,-5.371,0.0,0.0,0.0,-5.0683,-4.9941,-4.9082,-4.8223,-4.7344,-4.6543,-4.6367,-4.6289,-4.6269,-4.5547,-4.4687,-4.3672,-4.2969,-4.2148,-4.123,-4.1191,-4.1191,-4.1172,-4.0469,-3.9961,-3.957,-3.8223,-3.7383,-3.7051,-3.6348,-3.6016,-3.6016,-3.6016,-3.5488,-3.4492,-3.3769,-3.2949,-3.2012,-3.1113,-3.0332,-2.9629,-2.9453,-2.9434,-2.9551,-2.8066,-2.7305,-2.7422,-2.6621,-2.5547,-2.4297,-2.541,-2.623,-2.6367,-2.7051,-2.8144,-2.9726,-3.0488,-3.0605,-2.9863,-3.0625,-3.1426,-3.2129,-3.3066,-3.3924,-3.4629,-3.4731,-3.5028,-3.5737,-3.5723,-3.5681,-3.5695,-3.5709,-3.5665,-3.5704,-3.5704,-3.5704,-3.5704,-3.5704,-3.5704,-3.5704,-3.5704,-3.5704,-3.5693,-3.5639,-3.5585,-3.5521,-3.5501,-3.5494,-3.55,-3.55,-3.55,-3.55,-3.55,-3.55,-3.55,-3.55,-3.55,-3.55,-3.5453,-3.5405,-3.5357,-3.532,-3.4722,-3.3084,-3.2622,-3.2161,-3.1155,-3.1203,-3.1536,-5.8128,-5.8907,-5.8792,-5.7992,-5.6743,-5.6372,-5.4966,-5.2845,-5.1945,-5.1501,-5.1385,-5.1269,-5.0762,-4.998,-4.9101,-4.8242,-4.7383,-4.6641,-4.6289,-4.6289,-4.6172,-4.5254,-4.373,-4.3594,-4.2695,-4.1289,-4.1191,-4.1191,-4.1191,-4.1055,-4.0273,-3.8926,-3.8535,-3.7656,-3.6289,-3.6055,-3.6016,-3.6016,-3.6016,-3.5215,-3.3633,-3.3457,-3.2656,-3.1133,-3.0254,-2.9746,-2.959,-2.8906,-2.8828,-2.9531,-2.8652,-2.8457,-2.9141,-2.8379,-2.7832,-2.7598,-2.7793,-2.8262,-2.8965,-2.918,-2.9668,-3.0605,-3.084,-3.084,-3.0762,-3.1504,-3.207,-3.2266,-3.3613,-3.455,-3.4734,-3.5297,-3.5688,-3.5781,-3.5739,-3.5708,-3.5702,-3.5701,-3.5704,-3.5704,-3.5704,-3.5704,-3.5704,-3.5704,-3.5704,-3.5704,-3.5704,-3.5679,-3.5637,-3.5626,-3.5571,-3.5515,-3.5496,-3.5502,-3.5494,-3.55,-3.55,-3.55,-3.55,-3.55,-3.55,-3.55,-3.55,-3.55,-3.5493,-3.5467,-3.546,-3.5479,-3.4754,-3.3338,-3.2857,-3.2218,-3.0717,-3.0366,-3.0356,-5.8304,-5.8946,-5.8128,-5.7309,-5.6489,-5.5103,-5.3541,-5.2001,-5.1568,-5.1398,-5.1399,-5.1385,-5.0956,-5.0156,-4.9297,-4.8437,-4.7558,-4.6699,-4.6289,-4.6289,-4.6289,-4.5391,-4.3808,-4.3711,-4.2812,-4.1269,-4.1191,-4.1191,-4.1172,-4.0742,-3.9863,-3.8594,-3.7676,-3.6777,-3.6055,-3.6016,-3.5781,-3.5312,-3.5293,-3.4687,-3.3437,-3.2969,-3.2148,-3.0918,-3.0488,-3.0312,-3.0293,-2.9922,-2.9902,-3.0293,-2.9473,-2.9199,-2.9551,-2.8769,-2.8281,-2.832,-2.875,-2.918,-2.959,-3.0039,-3.0488,-3.0879,-3.1348,-3.1601,-3.1621,-3.2383,-3.3047,-3.3535,-3.4687,-3.539,-3.5403,-3.5701,-3.5888,-3.5855,-3.5761,-3.5712,-3.5713,-3.5711,-3.5704,-3.5704,-3.5704,-3.5704,-3.5704,-3.5704,-3.5704,-3.5704,-3.5704,-3.5679,-3.5648,-3.5648,-3.5601,-3.5528,-3.549,-3.5489,-3.5494,-3.55,-3.55,-3.55,-3.55,-3.55,-3.55,-3.55,-3.55,-3.55,-3.55,-3.55,-3.55,-3.55,-3.4904,-3.4032,-3.3489,-3.2783,-3.1681,-3.1155,-3.0789,-5.807,-5.84,-5.715,-5.6274,-5.5532,-5.3346,-5.2019,-5.1416,-5.1403,-5.1387,-5.1389,-5.1401,-5.0955,-5.0155,-4.9297,-4.8418,-4.7558,-4.6699,-4.6289,-4.6289,-4.6289,-4.5371,-4.3828,-4.3711,-4.2832,-4.1367,-4.1191,-4.1191,-4.1113,-4.0508,-3.9648,-3.8535,-3.6875,-3.6016,-3.6016,-3.6016,-3.5664,-3.5019,-3.4805,-3.4199,-3.3144,-3.2519,-3.1797,-3.0996,-3.0918,-3.0918,-3.0918,-3.0918,-3.0918,-3.0879,-3.0254,-2.9902,-2.9863,-2.9258,-2.8887,-2.8965,-2.9512,-2.9902,-2.9941,-3.0527,-3.0918,-3.0937,-3.1699,-3.2266,-3.25,-3.3223,-3.3945,-3.4668,-3.5449,-3.5976,-3.5953,-3.5946,-3.5926,-3.5904,-3.5781,-3.5732,-3.5722,-3.5702,-3.5704,-3.5704,-3.5704,-3.5704,-3.5704,-3.5704,-3.5704,-3.5704,-3.5704,-3.5704,-3.5704,-3.5704,-3.5651,-3.5572,-3.5522,-3.5522,-3.5494,-3.55,-3.55,-3.55,-3.55,-3.55,-3.55,-3.55,-3.55,-3.55,-3.55,-3.55,-3.55,-3.55,-3.5115,-3.4327,-3.399,-3.3624,-3.2624,-3.2218,-3.175,-5.7426,-5.6858,-5.6626,-5.5201,-5.3114,-5.198,-5.1492,-5.1414,-5.1396,-5.1396,-5.14,-5.14,-5.0955,-5.0135,-4.9277,-4.8379,-4.7558,-4.6699,-4.6289,-4.6289,-4.6289,-4.5371,-4.3828,-4.3711,-4.2812,-4.1387,-4.1211,-4.1191,-4.1191,-4.1016,-4.0195,-3.8574,-3.6855,-3.6016,-3.6016,-3.6016,-3.5937,-3.5859,-3.5098,-3.3926,-3.2422,-3.2246,-3.1777,-3.0937,-3.0918,-3.0918,-3.0918,-3.0918,-3.0918,-3.0898,-3.082,-3.0762,-3.0762,-3.0684,-3.0644,-3.0605,-3.0703,-3.0781,-3.0781,-3.084,-3.0918,-3.0976,-3.1738,-3.2519,-3.3203,-3.4082,-3.459,-3.4883,-3.5527,-3.5996,-3.6014,-3.6011,-3.5962,-3.5927,-3.5819,-3.5795,-3.5788,-3.5737,-3.5704,-3.5704,-3.5704,-3.5704,-3.5704,-3.5704,-3.5704,-3.5704,-3.5704,-3.5704,-3.5704,-3.5704,-3.5687,-3.5616,-3.5591,-3.556,-3.5501,-3.55,-3.55,-3.55,-3.55,-3.55,-3.55,-3.55,-3.55,-3.55,-3.55,-3.55,-3.55,-3.5462,-3.5212,-3.4654,-3.4234,-3.3853,-3.2893,-3.2626,-3.2316,-5.6899,-5.6489,-5.5493,-5.4166,-5.2685,-5.1785,-5.1394,-5.1394,-5.1394,-5.1394,-5.1396,-5.1393,-5.0929,-5.0051,-4.8748,-4.7929,-4.7539,-4.6699,-4.6289,-4.6289,-4.6289,-4.5644,-4.4531,-4.3926,-4.3066,-4.1933,-4.1445,-4.1191,-4.1035,-4.0176,-3.9297,-3.8476,-3.6855,-3.6016,-3.6016,-3.6016,-3.5762,-3.5234,-3.4883,-3.4101,-3.3008,-3.2441,-3.2051,-3.166,-3.1172,-3.0918,-3.0918,-3.0918,-3.0918,-3.0918,-3.0918,-3.0918,-3.0918,-3.0918,-3.0918,-3.0918,-3.0918,-3.0918,-3.0918,-3.0918,-3.0918,-3.0918,-3.2148,-3.3066,-3.3437,-3.4648,-3.5469,-3.5508,-3.5801,-3.6016,-3.6016,-3.6016,-3.5972,-3.5947,-3.5846,-3.5807,-3.5791,-3.5747,-3.5704,-3.5704,-3.5704,-3.5704,-3.5704,-3.5704,-3.5704,-3.5704,-3.5704,-3.5704,-3.5704,-3.5704,-3.5668,-3.5639,-3.5622,-3.5566,-3.5508,-3.55,-3.55,-3.55,-3.55,-3.55,-3.55,-3.55,-3.55,-3.55,-3.55,-3.55,-3.55,-3.55,-3.5327,-3.4936,-3.4868,-3.4653,-3.4243,-3.411,-3.4001,-5.5962,-5.5337,-5.3912,-5.2917,-5.2292,-5.1687,-5.1394,-5.1394,-5.1394,-5.1394,-5.1375,-5.115,-5.0702,-4.9962,-4.8568,-4.7732,-4.7186,-4.6601,-4.6289,-4.6289,-4.6289,-4.584,-4.498,-4.4375,-4.3476,-4.2461,-4.1816,-4.1426,-4.1055,-3.9726,-3.8848,-3.8418,-3.709,-3.623,-3.6035,-3.6016,-3.5684,-3.5137,-3.5039,-3.4746,-3.4101,-3.332,-3.2656,-3.2207,-3.1582,-3.1152,-3.0918,-3.0918,-3.0918,-3.0918,-3.0918,-3.0918,-3.0918,-3.0918,-3.0918,-3.0918,-3.0918,-3.0918,-3.0918,-3.0918,-3.0996,-3.1348,-3.2617,-3.3496,-3.3945,-3.5137,-3.5937,-3.5976,-3.6016,-3.6016,-3.6016,-3.6016,-3.6016,-3.5999,-3.5888,-3.5819,-3.5803,-3.5757,-3.5706,-3.5701,-3.5709,-3.5704,-3.5704,-3.5704,-3.5704,-3.5704,-3.5704,-3.5704,-3.5704,-3.5704,-3.5673,-3.5626,-3.562,-3.5565,-3.5502,-3.5501,-3.5494,-3.55,-3.55,-3.55,-3.55,-3.55,-3.55,-3.55,-3.55,-3.55,-3.55,-3.55,-3.55,-3.5474,-3.54,-3.5299,-3.5135,-3.5251,-3.516,-5.4383,-5.288,-5.1921,-5.157,-5.1453,-5.1414,-5.1394,-5.1394,-5.1394,-5.1394,-5.1297,-5.0614,-5.0184,-5.0049,-4.9153,-4.7908,-4.6542,-4.6347,-4.6289,-4.6289,-4.6289,-4.584,-4.5019,-4.4922,-4.4062,-4.2695,-4.2344,-4.1894,-4.1191,-4.0273,-3.9414,-3.8574,-3.7637,-3.6797,-3.6133,-3.6016,-3.5996,-3.5859,-3.5859,-3.5879,-3.5723,-3.498,-3.3809,-3.25,-3.2148,-3.1719,-3.1055,-3.0918,-3.0918,-3.0918,-3.0918,-3.0918,-3.0918,-3.0937,-3.0976,-3.0957,-3.0957,-3.0976,-3.1016,-3.1055,-3.1328,-3.209,-3.2969,-3.3769,-3.4473,-3.543,-3.5976,-3.6016,-3.6016,-3.6016,-3.6016,-3.6016,-3.6016,-3.5987,-3.5926,-3.5866,-3.5807,-3.5743,-3.5699,-3.5707,-3.5701,-3.5709,-3.5704,-3.5704,-3.5704,-3.5704,-3.5704,-3.5704,-3.5723,-3.5723,-3.577,-3.5753,-3.5736,-3.5602,-3.5541,-3.5496,-3.5502,-3.5494,-3.55,-3.55,-3.55,-3.55,-3.55,-3.55,-3.55,-3.55,-3.55,-3.55,-3.55,-3.5481,-3.5481,-3.5453,-3.5432,-3.546,-3.5376,-5.3444,-5.1863,-5.1531,-5.1394,-5.1394,-5.1394,-5.1394,-5.1394,-5.1394,-5.1394,-5.1355,-5.1063,-5.0631,-5.0067,-4.9223,-4.8212,-4.7139,-4.656,-4.6288,-4.6288,-4.6289,-4.6133,-4.582,-4.5293,-4.4726,-4.4023,-4.2929,-4.1952,-4.1132,-4.0292,-3.9453,-3.8594,-3.7734,-3.6855,-3.6152,-3.6016,-3.6016,-3.6016,-3.6016,-3.6016,-3.5996,-3.5703,-3.4961,-3.3828,-3.2734,-3.207,-3.1738,-3.1211,-3.0918,-3.0918,-3.0918,-3.0918,-3.0957,-3.1426,-3.1719,-3.1777,-3.2207,-3.25,-3.25,-3.25,-3.2617,-3.2969,-3.375,-3.4316,-3.4746,-3.5488,-3.6016,-3.6016,-3.6016,-3.6016,-3.6016,-3.6016,-3.6015,-3.599,-3.5938,-3.589,-3.5839,-3.5768,-3.5697,-3.5699,-3.5716,-3.5704,-3.5704,-3.5704,-3.5704,-3.5704,-3.5704,-3.5742,-3.582,-3.6091,-3.6472,-3.6538,-3.6886,-3.7067,-3.6407,-3.5823,-3.5515,-3.5501,-3.55,-3.55,-3.55,-3.55,-3.55,-3.55,-3.55,-3.55,-3.55,-3.55,-3.55,-3.55,-3.55,-3.55,-3.55,-3.55,-3.5424,-5.2468,-5.1492,-5.1394,-5.1394,-5.1394,-5.1394,-5.1394,-5.1394,-5.1394,-5.1394,-5.1355,-5.1121,-5.0651,-4.9969,-4.8921,-4.8143,-4.7539,-4.6713,-4.6287,-4.6288,-4.6289,-4.6289,-4.6211,-4.5703,-4.5273,-4.4766,-4.324,-4.195,-4.1131,-4.0564,-3.9843,-3.9023,-3.8164,-3.7285,-3.6523,-3.6152,-3.6016,-3.6016,-3.6016,-3.6016,-3.6016,-3.6016,-3.5742,-3.5019,-3.373,-3.2734,-3.2246,-3.1621,-3.1172,-3.0957,-3.0918,-3.0918,-3.0996,-3.1719,-3.2187,-3.2285,-3.293,-3.3379,-3.3379,-3.3379,-3.3516,-3.3809,-3.4336,-3.4785,-3.5078,-3.5664,-3.5957,-3.6016,-3.6016,-3.6016,-3.6016,-3.6016,-3.6016,-3.6012,-3.5948,-3.5931,-3.5914,-3.584,-3.5753,-3.5722,-3.5707,-3.5701,-3.5709,-3.5704,-3.5839,-3.6033,-3.6071,-3.6149,-3.6535,-3.6922,-3.7328,-3.7348,-3.7748,-3.7775,-3.73,-3.6665,-3.5836,-3.5688,-3.5508,-3.5501,-3.55,-3.55,-3.55,-3.55,-3.55,-3.55,-3.55,-3.55,-3.55,-3.55,-3.55,-3.55,-3.55,-3.55,-3.5424,-5.1453,-5.1394,-5.1394,-5.1394,-5.1394,-5.1394,-5.1394,-5.1394,-5.1394,-5.1394,-5.1297,-5.0534,-5.0202,-4.9772,-4.8447,-4.7647,-4.7455,-4.6691,-4.6306,-4.6306,-4.6289,-4.6289,-4.6269,-4.6211,-4.5644,-4.4822,-4.3257,-4.1986,-4.113,-4.0994,-4.0565,-3.9824,-3.9004,-3.8105,-3.7266,-3.6504,-3.6074,-3.6016,-3.6016,-3.6016,-3.6016,-3.6016,-3.5976,-3.584,-3.5039,-3.3887,-3.2344,-3.2168,-3.1699,-3.1016,-3.0918,-3.0918,-3.1113,-3.1836,-3.2285,-3.2539,-3.3086,-3.3437,-3.3516,-3.3594,-3.4062,-3.4551,-3.4746,-3.5137,-3.5723,-3.5937,-3.6016,-3.6016,-3.6016,-3.6016,-3.6016,-3.6016,-3.6016,-3.6014,-3.5992,-3.5985,-3.5985,-3.5931,-3.5833,-3.5726,-3.5708,-3.5697,-3.5715,-3.582,-3.6091,-3.6593,-3.6884,-3.7135,-3.769,-3.8019,-3.8174,-3.8237,-3.8508,-3.867,-3.813,-3.7468,-3.6588,-3.5875,-3.5624,-3.5489,-3.5494,-3.55,-3.55,-3.55,-3.55,-3.55,-3.55,-3.55,-3.55,-3.55,-3.55,-3.55,-3.55,-3.5474,-3.5446,-5.1394,-5.1394,-5.1394,-5.1394,-5.1394,-5.1394,-5.1394,-5.1394,-5.1394,-5.1394,-5.1238,-5.0475,-5.0104,-4.9714,-4.8367,-4.7606,-4.753,-4.6704,-4.6299,-4.63,-4.6304,-4.6305,-4.6305,-4.6305,-4.5523,-4.4249,-4.3583,-4.2508,-4.1357,-4.1124,-4.0677,-3.9957,-3.9645,-3.8709,-3.744,-3.7011,-3.664,-3.6074,-3.6016,-3.6016,-3.6016,-3.6016,-3.6016,-3.5976,-3.5723,-3.4785,-3.3144,-3.25,-3.1777,-3.0957,-3.0918,-3.1172,-3.1816,-3.2559,-3.3281,-3.3926,-3.4707,-3.5195,-3.5195,-3.5156,-3.5234,-3.5547,-3.5586,-3.5703,-3.5957,-3.6016,-3.6016,-3.6016,-3.6016,-3.6016,-3.6016,-3.6016,-3.6016,-3.6016,-3.6015,-3.6013,-3.6003,-3.5949,-3.5843,-3.5736,-3.5703,-3.5698,-3.5836,-3.6071,-3.6651,-3.7013,-3.7464,-3.798,-3.8232,-3.8818,-3.9075,-3.9114,-3.9417,-3.9572,-3.9076,-3.8517,-3.7797,-3.689,-3.6338,-3.5862,-3.5751,-3.5865,-3.5788,-3.5577,-3.5558,-3.55,-3.55,-3.55,-3.55,-3.55,-3.55,-3.55,-3.55,-3.5467,-3.5446,-5.1394,-5.1394,-5.1394,-5.1394,-5.1394,-5.1394,-5.1394,-5.1336,-5.1043,-5.0906,-5.069,-4.9655,-4.9167,-4.8894,-4.7723,-4.7139,-4.7042,-4.6521,-4.6288,-4.629,-4.6299,-4.6301,-4.6301,-4.63,-4.5595,-4.434,-4.3851,-4.2953,-4.1626,-4.1236,-4.0848,-4.0403,-4.0052,-3.9409,-3.824,-3.7596,-3.6972,-3.6504,-3.6172,-3.6016,-3.6016,-3.6016,-3.6016,-3.6016,-3.6016,-3.5273,-3.3945,-3.3359,-3.2422,-3.1289,-3.1191,-3.1777,-3.2617,-3.3418,-3.4141,-3.4687,-3.5449,-3.5976,-3.6016,-3.5918,-3.6016,-3.6016,-3.6016,-3.6016,-3.6016,-3.6016,-3.6016,-3.6016,-3.6016,-3.6016,-3.6016,-3.6016,-3.6016,-3.6016,-3.6016,-3.6016,-3.5991,-3.5944,-3.5897,-3.5856,-3.6055,-3.6154,-3.6337,-3.6886,-3.7533,-3.7856,-3.8334,-3.8914,-3.9127,-3.9675,-3.9849,-4.0023,-4.0236,-4.0236,-4.0023,-3.9547,-3.8987,-3.8119,-3.7257,-3.6677,-3.629,-3.6661,-3.6776,-3.6115,-3.5904,-3.5538,-3.55,-3.55,-3.55,-3.55,-3.55,-3.55,-3.55,-3.55,-3.5467,-5.1394,-5.1394,-5.1394,-5.1394,-5.1394,-5.1394,-5.1394,-5.1258,-5.0514,-5.0202,-4.985,-4.8543,-4.7762,-4.7489,-4.6846,-4.6436,-4.6321,-4.636,-4.6302,-4.6305,-4.6294,-4.63,-4.6299,-4.6295,-4.5764,-4.4904,-4.4197,-4.3318,-4.2249,-4.1624,-4.114,-4.0949,-4.0363,-3.9936,-3.9449,-3.822,-3.7518,-3.7109,-3.6484,-3.6152,-3.6035,-3.6016,-3.6016,-3.6016,-3.5996,-3.5547,-3.4707,-3.4316,-3.332,-3.1523,-3.1914,-3.2617,-3.3437,-3.4258,-3.4668,-3.4863,-3.5586,-3.5918,-3.6016,-3.6016,-3.6016,-3.6016,-3.6016,-3.6016,-3.6016,-3.6016,-3.6016,-3.6016,-3.6016,-3.6016,-3.6016,-3.6016,-3.6016,-3.6016,-3.6016,-3.6016,-3.6012,-3.6056,-3.6187,-3.6228,-3.6648,-3.7152,-3.7138,-3.7825,-3.8568,-3.91,-3.9404,-3.9868,-4.0255,-4.0487,-4.07,-4.0777,-4.0739,-4.0661,-4.039,-4.0191,-3.9637,-3.8962,-3.8241,-3.7834,-3.7086,-3.7303,-3.7507,-3.6873,-3.6173,-3.5788,-3.5654,-3.5769,-3.5635,-3.5519,-3.55,-3.55,-3.55,-3.5519,-3.5577,-5.1394,-5.1394,-5.1394,-5.1394,-5.1394,-5.1394,-5.1394,-5.1297,-5.0475,-5.0046,-4.9714,-4.8347,-4.7547,-4.7508,-4.669,-4.6302,-4.6302,-4.6302,-4.6302,-4.6302,-4.6305,-4.6287,-4.6288,-4.6287,-4.5854,-4.5073,-4.4701,-4.386,-4.2477,-4.2126,-4.1698,-4.1115,-4.0862,-4.0454,-3.9871,-3.9404,-3.8507,-3.7476,-3.7125,-3.6599,-3.6112,-3.6015,-3.6015,-3.6016,-3.6016,-3.5566,-3.4726,-3.4062,-3.3535,-3.2891,-3.291,-3.3476,-3.4277,-3.4629,-3.5019,-3.5547,-3.582,-3.6016,-3.6016,-3.6016,-3.6016,-3.6016,-3.6016,-3.6016,-3.6016,-3.6016,-3.6016,-3.6016,-3.6016,-3.6016,-3.6016,-3.6035,-3.6035,-3.6016,-3.6152,-3.6152,-3.6172,-3.6577,-3.6938,-3.6957,-3.7561,-3.7936,-3.8162,-3.8685,-3.9317,-3.9602,-4.0023,-4.0448,-4.0719,-4.0797,-4.0797,-4.0797,-4.0777,-4.0797,-4.0719,-4.0623,-4.0256,-3.9644,-3.9283,-3.925,-3.8404,-3.788,-3.7892,-3.7623,-3.6731,-3.6192,-3.6308,-3.6442,-3.6096,-3.5808,-3.6096,-3.6308,-3.575,-3.5577,-3.5712,-5.1394,-5.1394,-5.1394,-5.1394,-5.1394,-5.1394,-5.1394,-5.1141,-5.0087,-4.956,-4.9189,-4.7781,-4.7061,-4.7002,-4.6515,-4.6302,-4.6302,-4.6302,-4.6302,-4.6302,-4.6302,-4.6302,-4.6302,-4.6282,-4.6027,-4.5558,-4.5168,-4.4231,-4.3079,-4.2611,-4.1927,-4.1246,-4.1109,-4.0839,-4.0454,-4.0005,-3.9461,-3.843,-3.7747,-3.7007,-3.658,-3.617,-3.6015,-3.6016,-3.5996,-3.5703,-3.5215,-3.4766,-3.4355,-3.4043,-3.3984,-3.4336,-3.5117,-3.5254,-3.5488,-3.5996,-3.6016,-3.6016,-3.6016,-3.6016,-3.6016,-3.6016,-3.6016,-3.6016,-3.6016,-3.6016,-3.6016,-3.6016,-3.6016,-3.6016,-3.6074,-3.6309,-3.6504,-3.6641,-3.6855,-3.6934,-3.6621,-3.7344,-3.7749,-3.7973,-3.8438,-3.8982,-3.8921,-3.9643,-3.9985,-4.0164,-4.0434,-4.0654,-4.0797,-4.0797,-4.0797,-4.0797,-4.0797,-4.0797,-4.0797,-4.0719,-4.0649,-4.0114,-3.994,-4.0002,-3.955,-3.8703,-3.8573,-3.8315,-3.7373,-3.6827,-3.7065,-3.7123,-3.6815,-3.6731,-3.7019,-3.7038,-3.6615,-3.6173,-3.625,-5.1394,-5.1394,-5.1394,-5.1394,-5.1394,-5.1394,-5.1394,-5.1082,-4.9618,-4.8876,-4.8525,-4.7061,-4.6456,-4.6302,-4.6339,-4.6302,-4.6302,-4.6302,-4.6302,-4.6302,-4.6302,-4.6302,-4.6302,-4.6302,-4.6243,-4.6085,-4.5441,-4.4602,-4.3665,-4.2884,-4.2045,-4.1343,-4.1109,-4.1112,-4.0881,-4.0394,-4.0026,-3.9483,-3.8447,-3.759,-3.7164,-3.6598,-3.6229,-3.6016,-3.6016,-3.5996,-3.5918,-3.582,-3.5547,-3.4863,-3.4844,-3.5195,-3.5879,-3.5976,-3.5996,-3.5996,-3.6016,-3.6016,-3.6016,-3.6016,-3.6016,-3.6016,-3.6016,-3.6016,-3.6035,-3.6152,-3.6289,-3.6289,-3.6211,-3.6484,-3.6601,-3.707,-3.7363,-3.7559,-3.8144,-3.8262,-3.7949,-3.8281,-3.8748,-3.8805,-3.9436,-3.9819,-4.0054,-4.0411,-4.0852,-4.0504,-4.0713,-4.075,-4.0809,-4.0797,-4.0797,-4.0797,-4.0797,-4.0797,-4.0797,-4.0797,-4.0739,-4.0559,-4.0442,-4.0407,-4.0297,-3.9752,-3.9511,-3.9073,-3.8354,-3.8007,-3.8027,-3.7911,-3.7603,-3.7565,-3.7796,-3.7911,-3.7873,-3.743,-3.7276,-5.1394,-5.1394,-5.1394,-5.1394,-5.1394,-5.1394,-5.1375,-5.1219,-4.954,-4.872,-4.8408,-4.7022,-4.6341,-4.6302,-4.6302,-4.6302,-4.6302,-4.6302,-4.6302,-4.6302,-4.6302,-4.6302,-4.6302,-4.6302,-4.6302,-4.6243,-4.6124,-4.5168,-4.3957,-4.3372,-4.2591,-4.1285,-4.1109,-4.1109,-4.1052,-4.0878,-4.0447,-3.9882,-3.9375,-3.8539,-3.7588,-3.7218,-3.6714,-3.619,-3.6055,-3.6035,-3.6016,-3.6015,-3.5898,-3.5761,-3.5781,-3.5957,-3.5996,-3.6016,-3.6016,-3.6016,-3.6016,-3.6016,-3.6016,-3.6016,-3.6035,-3.6074,-3.6133,-3.6016,-3.6055,-3.6699,-3.6973,-3.7148,-3.7617,-3.7812,-3.7871,-3.8144,-3.8301,-3.8496,-3.9062,-3.9551,-3.9394,-3.9492,-3.9609,-3.9766,-4.0249,-4.0805,-4.0766,-4.0758,-4.0953,-4.0893,-4.0853,-4.0804,-4.0808,-4.0809,-4.0809,-4.0796,-4.0796,-4.0796,-4.0796,-4.0809,-4.0784,-4.0746,-4.0706,-4.0653,-4.0561,-4.0468,-4.0096,-3.9792,-3.945,-3.92,-3.8931,-3.8815,-3.8546,-3.8565,-3.8565,-3.8623,-3.8623,-3.8373,-3.8334,-5.1394,-5.1394,-5.1394,-5.1394,-5.1336,-5.0984,-5.0809,-5.0457,-4.8974,-4.8232,-4.7978,-4.6827,-4.6321,-4.6302,-4.6302,-4.6302,-4.6302,-4.6302,-4.6302,-4.6302,-4.6302,-4.6302,-4.6302,-4.6302,-4.6302,-4.6302,-4.6282,-4.5306,-4.4135,-4.3569,-4.2788,-4.1246,-4.1109,-4.1109,-4.1109,-4.1109,-4.0875,-4.0426,-3.9976,-3.9334,-3.8637,-3.8092,-3.7491,-3.6795,-3.6582,-3.6465,-3.6054,-3.6444,-3.658,-3.6696,-3.6951,-3.6795,-3.6132,-3.6014,-3.6014,-3.6014,-3.6015,-3.6015,-3.6016,-3.6035,-3.6172,-3.6582,-3.6621,-3.6875,-3.7109,-3.7695,-3.7851,-3.7988,-3.8281,-3.8594,-3.8633,-3.9082,-3.916,-3.9355,-3.998,-4.0469,-4.0508,-4.0508,-4.0508,-4.0566,-4.0819,-4.101,-4.1076,-4.1048,-4.1011,-4.0953,-4.0887,-4.0859,-4.0809,-4.0812,-4.0812,-4.0812,-4.0806,-4.0806,-4.08,-4.0802,-4.0797,-4.0778,-4.0733,-4.0706,-4.0654,-4.0605,-4.0508,-4.0192,-3.9877,-3.9823,-3.9592,-3.9515,-3.9496,-3.9604,-3.9585,-3.9488,-3.9431,-3.9411,-3.9431,-5.1394,-5.1394,-5.1394,-5.1394,-5.1258,-5.0494,-5.0163,-4.9889,-4.8308,-4.7703,-4.745,-4.669,-4.6302,-4.6302,-4.6302,-4.6302,-4.6302,-4.6302,-4.6302,-4.6302,-4.6302,-4.6302,-4.6302,-4.6302,-4.6302,-4.6302,-4.6302,-4.5326,-4.4114,-4.3588,-4.2768,-4.1402,-4.1109,-4.1109,-4.1109,-4.1109,-4.107,-4.0875,-4.0424,-3.9938,-3.9649,-3.9047,-3.8349,-3.7671,-3.7479,-3.7245,-3.6912,-3.7145,-3.7515,-3.7551,-3.8214,-3.7726,-3.6868,-3.6401,-3.6401,-3.6479,-3.6619,-3.6679,-3.6737,-3.6641,-3.6875,-3.748,-3.75,-3.7812,-3.832,-3.8633,-3.8769,-3.8887,-3.9062,-3.9238,-3.9062,-3.9648,-4.0059,-4.0215,-4.0781,-4.1133,-4.1191,-4.1191,-4.1113,-4.1113,-4.1074,-4.1111,-4.1126,-4.1095,-4.1051,-4.1011,-4.094,-4.0881,-4.084,-4.0823,-4.0823,-4.0842,-4.0842,-4.0815,-4.0804,-4.0808,-4.0803,-4.0797,-4.0752,-4.0746,-4.0726,-4.0666,-4.0598,-4.0446,-4.0238,-4.0165,-4.0073,-3.9938,-4.0054,-4.0439,-4.0381,-4.0073,-4.0169,-4.0458,-4.0362,-5.1394,-5.1394,-5.1394,-5.1394,-5.1258,-5.0436,-5.0007,-4.9831,-4.823,-4.7606,-4.743,-4.671,-4.6302,-4.6302,-4.6302,-4.6302,-4.6302,-4.6302,-4.6302,-4.6302,-4.6302,-4.6302,-4.6302,-4.6302,-4.6302,-4.6302,-4.6243,-4.5382,-4.4076,-4.3608,-4.2749,-4.1461,-4.1109,-4.1109,-4.1109,-4.1109,-4.1109,-4.1109,-4.0836,-4.0485,-3.9997,-3.9707,-3.9221,-3.8487,-3.8393,-3.8218,-3.8159,-3.8234,-3.8407,-3.8406,-3.8539,-3.8439,-3.8246,-3.8154,-3.8118,-3.7943,-3.7906,-3.7829,-3.7869,-3.8027,-3.8184,-3.8359,-3.8398,-3.8418,-3.8789,-3.9258,-3.9609,-3.9844,-4.0234,-4.0664,-4.0762,-4.0762,-4.0898,-4.1016,-4.1035,-4.1191,-4.1191,-4.1191,-4.1191,-4.1191,-4.1191,-4.1172,-4.115,-4.1126,-4.1076,-4.1051,-4.0995,-4.0937,-4.0891,-4.0888,-4.0903,-4.0898,-4.0878,-4.0844,-4.0812,-4.0806,-4.0809,-4.0796,-4.0784,-4.0777,-4.0759,-4.0733,-4.0635,-4.0516,-4.0472,-4.0404,-4.0339,-4.0254,-4.0331,-4.0492,-4.0504,-4.0496,-4.0496,-4.0496,-4.0496,-5.1394,-5.1336,-5.0906,-5.0729,-5.0494,-4.9323,-4.8816,-4.8621,-4.7471,-4.6924,-4.6807,-4.6495,-4.6302,-4.6302,-4.6302,-4.6302,-4.6302,-4.6302,-4.6302,-4.6302,-4.6302,-4.6302,-4.6302,-4.6302,-4.6302,-4.6302,-4.6223,-4.5404,-4.3862,-4.3705,-4.2729,-4.15,-4.1109,-4.1109,-4.1109,-4.1109,-4.1109,-4.1109,-4.107,-4.0914,-4.0504,-4.0447,-4.0023,-3.9498,-3.9229,-3.9035,-3.874,-3.9128,-3.9242,-3.9318,-3.9647,-3.9821,-3.9861,-3.9768,-3.9479,-3.8855,-3.8683,-3.8646,-3.8627,-3.863,-3.873,-3.9219,-3.9277,-3.9531,-3.9883,-4.0332,-4.0508,-4.0644,-4.0781,-4.1191,-4.1133,-4.1191,-4.1191,-4.1191,-4.1191,-4.1191,-4.1191,-4.1191,-4.1191,-4.1191,-4.1191,-4.1191,-4.1191,-4.117,-4.1127,-4.1095,-4.1053,-4.1011,-4.0949,-4.0937,-4.0957,-4.0957,-4.0957,-4.0917,-4.0878,-4.0849,-4.084,-4.0829,-4.0806,-4.0814,-4.0784,-4.0752,-4.0707,-4.0647,-4.0605,-4.0576,-4.053,-4.0434,-4.0496,-4.0519,-4.0512,-4.0496,-4.0496,-4.0496,-4.0496,-5.1394,-5.1336,-5.0455,-5.0104,-4.9831,-4.8308,-4.7645,-4.743,-4.671,-4.6339,-4.6302,-4.6302,-4.6302,-4.6302,-4.6302,-4.6302,-4.6302,-4.6302,-4.6302,-4.6302,-4.6302,-4.6302,-4.6302,-4.6302,-4.6302,-4.6302,-4.6282,-4.5384,-4.3998,-4.3705,-4.271,-4.1578,-4.1109,-4.1109,-4.1109,-4.1109,-4.1109,-4.1109,-4.1109,-4.1109,-4.1111,-4.1074,-4.0823,-4.0218,-4.0125,-3.9814,-3.9458,-3.9808,-4.0079,-4.0232,-4.0582,-4.1031,-4.109,-4.1109,-4.0465,-3.9373,-3.9125,-3.9108,-3.915,-3.9234,-3.9608,-4.0077,-4.0136,-4.0547,-4.0859,-4.0976,-4.1133,-4.1191,-4.1191,-4.1191,-4.1191,-4.1191,-4.1191,-4.1191,-4.1191,-4.1191,-4.1191,-4.1191,-4.1191,-4.1191,-4.1191,-4.1191,-4.1191,-4.1191,-4.1151,-4.1129,-4.1095,-4.1058,-4.1022,-4.1014,-4.1011,-4.1031,-4.1028,-4.1013,-4.0967,-4.0925,-4.0906,-4.0874,-4.0858,-4.0851,-4.0806,-4.0777,-4.0733,-4.0726,-4.0713,-4.0673,-4.0633,-4.0586,-4.0569,-4.0546,-4.0512,-4.0504,-4.0496,-4.0496,-4.0496,-5.1394,-5.1336,-5.0436,-5.0104,-4.9831,-4.825,-4.7567,-4.7451,-4.6651,-4.6302,-4.6302,-4.6302,-4.6302,-4.6302,-4.6302,-4.6302,-4.6302,-4.6302,-4.6302,-4.6302,-4.6302,-4.6302,-4.6302,-4.6302,-4.6302,-4.6302,-4.6302,-4.5286,-4.4213,-4.3842,-4.2925,-4.1636,-4.1324,-4.1148,-4.1283,-4.1168,-4.1109,-4.1109,-4.1109,-4.1109,-4.1109,-4.1111,-4.0994,-4.0935,-4.0858,-4.0762,-4.0526,-4.072,-4.0816,-4.0875,-4.0992,-4.1109,-4.1109,-4.1109,-4.107,-4.0857,-4.0801,-4.0805,-4.0632,-4.052,-4.0524,-4.0779,-4.0878,-4.1074,-4.1152,-4.1191,-4.1191,-4.1191,-4.1191,-4.1191,-4.1191,-4.1191,-4.1191,-4.1191,-4.1191,-4.1191,-4.1191,-4.1191,-4.1191,-4.1191,-4.1191,-4.1191,-4.1191,-4.1191,-4.1191,-4.1171,-4.1129,-4.1099,-4.1069,-4.106,-4.1056,-4.1074,-4.1072,-4.1064,-4.1028,-4.1,-4.097,-4.0937,-4.0896,-4.0874,-4.0842,-4.0798,-4.0784,-4.0765,-4.0759,-4.0739,-4.0668,-4.0626,-4.0603,-4.0569,-4.0549,-4.0527,-4.0496,-4.0496,-4.0512,-5.1394,-5.1277,-4.993,-4.9364,-4.913,-4.7569,-4.6866,-4.6788,-4.6475,-4.6302,-4.6302,-4.6302,-4.6302,-4.6302,-4.6302,-4.6302,-4.6302,-4.6302,-4.6302,-4.6302,-4.6302,-4.6302,-4.6302,-4.6302,-4.6302,-4.6302,-4.6184,-4.5714,-4.4758,-4.4328,-4.3723,-4.2671,-4.2084,-4.1888,-4.1674,-4.1324,-4.1168,-4.1109,-4.1109,-4.1109,-4.1109,-4.1109,-4.1109,-4.1109,-4.1109,-4.1109,-4.1109,-4.1109,-4.1109,-4.1109,-4.1109,-4.1109,-4.1109,-4.1109,-4.109,-4.109,-4.1072,-4.1055,-4.1056,-4.1102,-4.1105,-4.1107,-4.1129,-4.1113,-4.1133,-4.1132,-4.1172,-4.1191,-4.1191,-4.1191,-4.1191,-4.1191,-4.1191,-4.1191,-4.1191,-4.1191,-4.1191,-4.1191,-4.1191,-4.1191,-4.1191,-4.1191,-4.1191,-4.1191,-4.1191,-4.1191,-4.1151,-4.1108,-4.1102,-4.11,-4.1099,-4.1099,-4.1098,-4.1095,-4.1085,-4.1051,-4.1052,-4.1025,-4.097,-4.0933,-4.0888,-4.0839,-4.0823,-4.0802,-4.0797,-4.0759,-4.0707,-4.068,-4.0653,-4.0619,-4.0586,-4.0564,-4.053,-4.0537,-4.0564,-5.1082,-5.0926,-4.9423,-4.8798,-4.8642,-4.7002,-4.6321,-4.63,-4.6302,-4.6302,-4.6302,-4.6302,-4.6302,-4.6302,-4.6302,-4.6302,-4.6302,-4.6302,-4.6302,-4.6302,-4.6302,-4.6302,-4.6302,-4.6302,-4.6302,-4.6302,-4.6302,-4.5909,-4.5558,-4.5187,-4.4758,-4.3744,-4.2982,-4.2572,-4.224,-4.183,-4.1441,-4.1109,-4.1109,-4.1109,-4.1109,-4.1109,-4.1109,-4.1109,-4.1109,-4.1109,-4.1109,-4.1109,-4.1109,-4.1109,-4.1109,-4.1109,-4.1109,-4.1109,-4.1109,-4.1109,-4.1109,-4.1109,-4.1112,-4.1116,-4.1117,-4.11,-4.1104,-4.111,-4.1111,-4.1111,-4.1132,-4.1191,-4.1191,-4.1191,-4.1191,-4.1191,-4.1191,-4.1191,-4.1191,-4.1191,-4.1191,-4.1191,-4.1191,-4.1191,-4.1191,-4.1191,-4.1191,-4.1191,-4.1191,-4.1191,-4.1171,-4.1113,-4.1113,-4.1133,-4.1133,-4.1133,-4.1191,-4.1172,-4.1133,-4.1113,-4.1113,-4.1094,-4.105,-4.101,-4.0937,-4.0869,-4.0823,-4.0823,-4.0802,-4.0797,-4.0752,-4.0733,-4.0713,-4.0673,-4.0633,-4.0588,-4.0581,-4.0595,-4.06,-5.0202,-5.0124,-4.9169,-4.8759,-4.8623,-4.7002,-4.6302,-4.6302,-4.6302,-4.6302,-4.6302,-4.6302,-4.6302,-4.6302,-4.6302,-4.6302,-4.6302,-4.6302,-4.6302,-4.6302,-4.6302,-4.6302,-4.6302,-4.6302,-4.6302,-4.6302,-4.6302,-4.6243,-4.6163,-4.5968,-4.5109,-4.3901,-4.3762,-4.3157,-4.2689,-4.2357,-4.181,-4.14,-4.1187,-4.1109,-4.1109,-4.1109,-4.1109,-4.1109,-4.1109,-4.1109,-4.1109,-4.1109,-4.1109,-4.1109,-4.1109,-4.1109,-4.1109,-4.1109,-4.1109,-4.1109,-4.1285,-4.1304,-4.1324,-4.1172,-4.1116,-4.11,-4.1103,-4.1107,-4.111,-4.1111,-4.1151,-4.1191,-4.1172,-4.1191,-4.1191,-4.1191,-4.1191,-4.1191,-4.1191,-4.1191,-4.1191,-4.1191,-4.1191,-4.1191,-4.1191,-4.1191,-4.1191,-4.1191,-4.1191,-4.1191,-4.1191,-4.1152,-4.1172,-4.1172,-4.1172,-4.1211,-4.1269,-4.1269,-4.1191,-4.123,-4.1367,-4.1233,-4.1081,-4.105,-4.1007,-4.0929,-4.0849,-4.0821,-4.08,-4.0796,-4.079,-4.0771,-4.0733,-4.0694,-4.0668,-4.0661,-4.0661,-4.0661,-4.0633,-5.0104,-4.9987,-4.8642,-4.8055,-4.7977,-4.6807,-4.6302,-4.6302,-4.6302,-4.6302,-4.6302,-4.6302,-4.6302,-4.6302,-4.6302,-4.6302,-4.6302,-4.6302,-4.6302,-4.6302,-4.6302,-4.6302,-4.6302,-4.6302,-4.6302,-4.6302,-4.6302,-4.6302,-4.6282,-4.6302,-4.6066,-4.5324,-4.4738,-4.4406,-4.3878,-4.296,-4.2279,-4.1908,-4.1402,-4.1129,-4.1109,-4.1109,-4.1109,-4.1109,-4.1109,-4.1109,-4.1109,-4.1109,-4.1109,-4.1109,-4.1109,-4.1109,-4.1109,-4.1109,-4.1148,-4.1246,-4.1557,-4.181,-4.1771,-4.1482,-4.1112,-4.1114,-4.1116,-4.1178,-4.1301,-4.1164,-4.1129,-4.1131,-4.1249,-4.1406,-4.125,-4.123,-4.1191,-4.1191,-4.1269,-4.1367,-4.1445,-4.1562,-4.1562,-4.1719,-4.1426,-4.1191,-4.1191,-4.1191,-4.1191,-4.1191,-4.1191,-4.123,-4.1308,-4.1406,-4.1484,-4.1699,-4.1836,-4.168,-4.1621,-4.1641,-4.168,-4.144,-4.1177,-4.107,-4.1022,-4.0949,-4.0869,-4.0837,-4.0806,-4.0796,-4.079,-4.0778,-4.0752,-4.0739,-4.0739,-4.0746,-4.0739,-4.0713,-4.068,-4.9343,-4.9167,-4.782,-4.7373,-4.745,-4.6671,-4.6302,-4.6302,-4.6302,-4.6302,-4.6302,-4.6302,-4.6302,-4.6302,-4.6302,-4.6302,-4.6302,-4.6302,-4.6302,-4.6302,-4.6302,-4.6302,-4.6302,-4.6302,-4.6302,-4.6302,-4.6302,-4.6302,-4.6302,-4.6302,-4.6184,-4.5987,-4.5714,-4.5304,-4.4582,-4.3665,-4.2786,-4.2591,-4.2006,-4.1518,-4.1518,-4.1226,-4.1109,-4.1109,-4.1109,-4.1109,-4.1109,-4.1109,-4.1109,-4.1109,-4.1109,-4.1109,-4.1109,-4.1148,-4.1246,-4.1596,-4.2006,-4.2474,-4.2552,-4.2337,-4.189,-4.2106,-4.2046,-4.2012,-4.1878,-4.1861,-4.2139,-4.2048,-4.1971,-4.1855,-4.1894,-4.2129,-4.2207,-4.2363,-4.2324,-4.2383,-4.2363,-4.2402,-4.2305,-4.2266,-4.207,-4.2129,-4.2168,-4.2207,-4.1699,-4.1543,-4.1191,-4.1406,-4.1777,-4.1875,-4.1992,-4.2266,-4.2598,-4.2383,-4.2148,-4.2168,-4.2129,-4.1811,-4.1508,-4.1129,-4.1022,-4.1031,-4.0956,-4.0818,-4.0812,-4.0809,-4.081,-4.0842,-4.0829,-4.079,-4.079,-4.0784,-4.0784,-4.0752,-4.0739,-4.7742,-4.7528,-4.6749,-4.6827,-4.7391,-4.6651,-4.6302,-4.6302,-4.6302,-4.6302,-4.6302,-4.6302,-4.6302,-4.6302,-4.6302,-4.6302,-4.6302,-4.6302,-4.6302,-4.6302,-4.6302,-4.6302,-4.6302,-4.6302,-4.6302,-4.6302,-4.6302,-4.6302,-4.6302,-4.6302,-4.6302,-4.6302,-4.6085,-4.5773,-4.4992,-4.4153,-4.3705,-4.3528,-4.2786,-4.2454,-4.224,-4.1771,-4.1558,-4.1322,-4.1342,-4.1361,-4.1129,-4.1324,-4.1304,-4.1129,-4.1283,-4.1265,-4.1109,-4.1226,-4.1558,-4.2201,-4.2454,-4.2982,-4.3608,-4.3627,-4.3569,-4.3295,-4.3042,-4.316,-4.3438,-4.3499,-4.3308,-4.3003,-4.3219,-4.3378,-4.3496,-4.3496,-4.3359,-4.3262,-4.3183,-4.3144,-4.3086,-4.3066,-4.2949,-4.2871,-4.3281,-4.3594,-4.3574,-4.3359,-4.2578,-4.2012,-4.1426,-4.1562,-4.2226,-4.2461,-4.2617,-4.291,-4.3281,-4.3223,-4.2969,-4.2715,-4.2539,-4.2226,-4.2034,-4.1853,-4.1616,-4.1607,-4.1402,-4.1047,-4.1249,-4.1646,-4.1293,-4.0913,-4.1261,-4.1564,-4.0932,-4.079,-4.0797,-4.079,-4.0778,-4.7606,-4.7528,-4.6671,-4.6456,-4.669,-4.6436,-4.6302,-4.6302,-4.6302,-4.6302,-4.6302,-4.6302,-4.6302,-4.6302,-4.6302,-4.6302,-4.6302,-4.6302,-4.6302,-4.6302,-4.6302,-4.6302,-4.6302,-4.6302,-4.6302,-4.6302,-4.6302,-4.6302,-4.6302,-4.6302,-4.6302,-4.6302,-4.6282,-4.6163,-4.5714,-4.5051,-4.4563,-4.4406,-4.3782,-4.3255,-4.3216,-4.2903,-4.2494,-4.1986,-4.1967,-4.1752,-4.1363,-4.1713,-4.1752,-4.1461,-4.1615,-4.1674,-4.148,-4.1558,-4.2084,-4.2747,-4.3196,-4.4524,-4.5168,-4.5343,-4.4816,-4.425,-4.3862,-4.3901,-4.3748,-4.3708,-4.3695,-4.3797,-4.3937,-4.3901,-4.3652,-4.3672,-4.3594,-4.3574,-4.3535,-4.3535,-4.3516,-4.3535,-4.3496,-4.3457,-4.3691,-4.3867,-4.3945,-4.4238,-4.3691,-4.3398,-4.2949,-4.2773,-4.3242,-4.3281,-4.3379,-4.3633,-4.3906,-4.3945,-4.3867,-4.3672,-4.3457,-4.3203,-4.3148,-4.3107,-4.283,-4.2365,-4.241,-4.232,-4.2438,-4.2522,-4.2221,-4.2041,-4.2364,-4.2396,-4.1738,-4.1216,-4.1177,-4.1048,-4.079,-4.7137,-4.7081,-4.6534,-4.6302,-4.6302,-4.6302,-4.6302,-4.6302,-4.6302,-4.6302,-4.6302,-4.6302,-4.6302,-4.6302,-4.6302,-4.6302,-4.6302,-4.6302,-4.6302,-4.6302,-4.6302,-4.6302,-4.6302,-4.6302,-4.6302,-4.6302,-4.6302,-4.6302,-4.6302,-4.6302,-4.6302,-4.6302,-4.6302,-4.6262,-4.6046,-4.5695,-4.5441,-4.5207,-4.466,-4.4153,-4.4036,-4.3762,-4.3352,-4.3001,-4.2786,-4.263,-4.2337,-4.2376,-4.2591,-4.2259,-4.2162,-4.2357,-4.2181,-4.2201,-4.2786,-4.3509,-4.4543,-4.5656,-4.6066,-4.6184,-4.5539,-4.4914,-4.4621,-4.4603,-4.4603,-4.4798,-4.4764,-4.4728,-4.4534,-4.4562,-4.4547,-4.4489,-4.4453,-4.4473,-4.4492,-4.4531,-4.457,-4.4609,-4.4609,-4.4512,-4.4453,-4.4492,-4.4492,-4.4707,-4.4805,-4.4687,-4.459,-4.4414,-4.418,-4.416,-4.4258,-4.457,-4.4805,-4.4941,-4.4902,-4.4687,-4.4453,-4.4199,-4.4067,-4.3933,-4.3536,-4.3023,-4.3331,-4.3495,-4.3253,-4.3117,-4.3201,-4.3241,-4.3241,-4.3002,-4.2492,-4.2048,-4.1699,-4.1545,-4.1429,-4.6302,-4.6302,-4.6302,-4.6302,-4.6302,-4.6302,-4.6302,-4.6302,-4.6302,-4.6302,-4.6302,-4.6302,-4.6302,-4.6302,-4.6302,-4.6302,-4.6302,-4.6302,-4.6302,-4.6302,-4.6302,-4.6302,-4.6302,-4.6302,-4.6302,-4.6302,-4.6302,-4.6302,-4.6302,-4.6302,-4.6302,-4.6302,-4.6302,-4.6302,-4.6243,-4.6184,-4.6066,-4.5812,-4.546,-4.507,-4.4953,-4.4445,-4.4094,-4.3821,-4.3704,-4.3567,-4.345,-4.3548,-4.3587,-4.3334,-4.3001,-4.3157,-4.3138,-4.2903,-4.3743,-4.4697,-4.581,-4.6101,-4.6257,-4.6277,-4.6261,-4.5812,-4.5989,-4.6184,-4.6067,-4.5814,-4.5718,-4.5761,-4.5724,-4.5928,-4.6051,-4.5993,-4.5918,-4.5937,-4.5937,-4.5957,-4.5976,-4.5996,-4.5976,-4.5918,-4.5879,-4.584,-4.5742,-4.584,-4.5527,-4.5586,-4.5469,-4.5332,-4.5156,-4.5058,-4.5215,-4.5644,-4.5859,-4.6055,-4.5898,-4.5488,-4.5351,-4.5039,-4.4618,-4.439,-4.3997,-4.3936,-4.426,-4.432,-4.3834,-4.3753,-4.4133,-4.4047,-4.3737,-4.3499,-4.3563,-4.3021,-4.2731,-4.2705,-4.2667,-4.6302,-4.6302,-4.6302,-4.6302,-4.6302,-4.6302,-4.6302,-4.6302,-4.6302,-4.6302,-4.6302,-4.6302,-4.6302,-4.6302,-4.6302,-4.6302,-4.6302,-4.6302,-4.6302,-4.6302,-4.6302,-4.6302,-4.6302,-4.6302,-4.6302,-4.6302,-4.6302,-4.6302,-4.6302,-4.6302,-4.6302,-4.6302,-4.6302,-4.6302,-4.6302,-4.6302,-4.6302,-4.6223,-4.5929,-4.5851,-4.5831,-4.548,-4.507,-4.4758,-4.4641,-4.4426,-4.4114,-4.4426,-4.4367,-4.3782,-4.4114,-4.427,-4.3569,-4.4016,-4.4871,-4.5633,-4.6101,-4.6238,-4.624,-4.6267,-4.6292,-4.63,-4.6302,-4.6302,-4.6282,-4.6302,-4.6302,-4.6305,-4.6306,-4.6294,-4.6299,-4.6301,-4.6305,-4.6288,-4.6289,-4.6289,-4.6289,-4.6289,-4.6289,-4.6289,-4.6289,-4.6289,-4.6289,-4.623,-4.5976,-4.6191,-4.623,-4.6055,-4.5937,-4.5781,-4.5781,-4.6191,-4.6289,-4.6289,-4.6289,-4.5976,-4.5976,-4.5857,-4.5403,-4.5164,-4.5254,-4.5279,-4.5377,-4.5208,-4.4869,-4.4982,-4.534,-4.5087,-4.4632,-4.5021,-4.5054,-4.435,-4.3802,-4.3776,-4.3672,-4.6302,-4.6302,-4.6302,-4.6302,-4.6302,-4.6302,-4.6302,-4.6302,-4.6302,-4.6302,-4.6302,-4.6302,-4.6302,-4.6302,-4.6302,-4.6302,-4.6302,-4.6302,-4.6302,-4.6302,-4.6302,-4.6302,-4.6302,-4.6302,-4.6302,-4.6302,-4.6302,-4.6302,-4.6302,-4.6302,-4.6302,-4.6302,-4.6302,-4.6302,-4.6302,-4.6302,-4.6302,-4.6302,-4.6262,-4.6302,-4.6302,-4.6302,-4.5909,-4.5617,-4.548,-4.5109,-4.4797,-4.5304,-4.509,-4.466,-4.5207,-4.4992,-4.4619,-4.5258,-4.5494,-4.61,-4.615,-4.6189,-4.6173,-4.6231,-4.6264,-4.6296,-4.63,-4.6302,-4.6302,-4.6302,-4.6302,-4.6302,-4.6302,-4.6303,-4.629,-4.6295,-4.6301,-4.6306,-4.6288,-4.6288,-4.6289,-4.6289,-4.6289,-4.6289,-4.6289,-4.6289,-4.6289,-4.6289,-4.6289,-4.6289,-4.6289,-4.623,-4.6172,-4.6113,-4.6074,-4.625,-4.6289,-4.6289,-4.6289,-4.6289,-4.623,-4.6172,-4.6054,-4.5973,-4.6289,-4.6201,-4.5898,-4.5933,-4.6011,-4.6002,-4.5855,-4.5891,-4.5705,-4.5944,-4.5917,-4.5286,-4.4789,-4.4762,-4.462,-4.6302,-4.6302,-4.6302,-4.6302,-4.6302,-4.6302,-4.6302,-4.6302,-4.6302,-4.6302,-4.6302,-4.6302,-4.6302,-4.6302,-4.6302,-4.6302,-4.6302,-4.6302,-4.6302,-4.6302,-4.6302,-4.6302,-4.6302,-4.6302,-4.6302,-4.6302,-4.6302,-4.6302,-4.6302,-4.6302,-4.6302,-4.6302,-4.6302,-4.6302,-4.6302,-4.6302,-4.6302,-4.6302,-4.6302,-4.6302,-4.6302,-4.6302,-4.6302,-4.6243,-4.6202,-4.6144,-4.6161,-4.6259,-4.6298,-4.6003,-4.5767,-4.5568,-4.5816,-4.6033,-4.6086,-4.6082,-4.6123,-4.6123,-4.6114,-4.6154,-4.6231,-4.6269,-4.6298,-4.63,-4.63,-4.63,-4.6302,-4.6302,-4.6302,-4.6303,-4.6287,-4.629,-4.6296,-4.6303,-4.6306,-4.6288,-4.6289,-4.6289,-4.6289,-4.6289,-4.6289,-4.6289,-4.6289,-4.6289,-4.6289,-4.6289,-4.6289,-4.6289,-4.6289,-4.6289,-4.6289,-4.6289,-4.6289,-4.6289,-4.6289,-4.6289,-4.6289,-4.6289,-4.6289,-4.6289,-4.6289,-4.6289,-4.6267,-4.6252,-4.6223,-4.6164,-4.6076,-4.6084,-4.6039,-4.6018,-4.5966,-4.5892,-4.5725,-4.5518,-4.5381,-4.6302,-4.6302,-4.6302,-4.6302,-4.6302,-4.6302,-4.6302,-4.6302,-4.6302,-4.6302,-4.6302,-4.6302,-4.6302,-4.6302,-4.6302,-4.6302,-4.6302,-4.6302,-4.6302,-4.6302,-4.6302,-4.6302,-4.6302,-4.6302,-4.6302,-4.6302,-4.6302,-4.6302,-4.6302,-4.6302,-4.6302,-4.6302,-4.6302,-4.6302,-4.6302,-4.6302,-4.6302,-4.6302,-4.6302,-4.63,-4.63,-4.63,-4.6302,-4.6302,-4.63,-4.6296,-4.629,-4.626,-4.6231,-4.6106,-4.6053,-4.6066,-4.62,-4.615,-4.6106,-4.6051,-4.6018,-4.6018,-4.6041,-4.608,-4.6154,-4.6228,-4.6264,-4.6292,-4.6298,-4.63,-4.6302,-4.6302,-4.6302,-4.6303,-4.6305,-4.6306,-4.629,-4.6299,-4.6304,-4.6288,-4.6289,-4.6289,-4.6289,-4.6289,-4.6289,-4.6289,-4.6289,-4.6289,-4.6289,-4.6289,-4.6289,-4.6289,-4.6289,-4.6289,-4.6289,-4.6289,-4.6289,-4.6289,-4.6289,-4.6289,-4.6289,-4.6289,-4.6289,-4.6289,-4.6289,-4.6289,-4.6288,-4.6283,-4.627,-4.622,-4.6189,-4.6167,-4.6138,-4.6096,-4.6056,-4.5972,-4.5898,-4.5738,-4.5744,-4.6302,-4.6302,-4.6302,-4.6302,-4.6302,-4.6302,-4.6302,-4.6302,-4.6302,-4.6302,-4.6302,-4.6302,-4.6302,-4.6302,-4.6302,-4.6302,-4.6302,-4.6302,-4.6302,-4.6302,-4.6302,-4.6302,-4.6302,-4.6302,-4.6302,-4.6302,-4.6302,-4.6302,-4.6302,-4.6302,-4.6302,-4.6302,-4.6302,-4.6302,-4.6302,-4.6302,-4.6302,-4.6302,-4.6302,-4.6298,-4.6296,-4.6298,-4.63,-4.6302,-4.6298,-4.6292,-4.6236,-4.6201,-4.6154,-4.6111,-4.6045,-4.6009,-4.6035,-4.6037,-4.5986,-4.5922,-4.5904,-4.5904,-4.5933,-4.5998,-4.6099,-4.6151,-4.6209,-4.624,-4.6298,-4.6302,-4.6302,-4.6302,-4.6302,-4.6302,-4.6302,-4.6303,-4.6291,-4.63,-4.6302,-4.6306,-4.6289,-4.6289,-4.6289,-4.6289,-4.6289,-4.6289,-4.6289,-4.6289,-4.6289,-4.6289,-4.6289,-4.6289,-4.6289,-4.6289,-4.6289,-4.6289,-4.6289,-4.6289,-4.6289,-4.6289,-4.6289,-4.6289,-4.6289,-4.6289,-4.6289,-4.6289,-4.6288,-4.6289,-4.6289,-4.6284,-4.6257,-4.6245,-4.621,-4.6167,-4.6114,-4.6065,-4.6002,-4.5923,-4.5861,-4.6302,-4.6302,-4.6302,-4.6302,-4.6302,-4.6302,-4.6302,-4.6302,-4.6302,-4.6302,-4.6302,-4.6302,-4.6302,-4.6302,-4.6302,-4.6302,-4.6302,-4.6302,-4.6302,-4.6302,-4.6302,-4.6302,-4.6302,-4.6302,-4.6302,-4.6302,-4.6302,-4.6302,-4.6302,-4.6302,-4.6302,-4.6302,-4.6302,-4.6302,-4.6302,-4.6302,-4.6302,-4.6302,-4.63,-4.6294,-4.6292,-4.6292,-4.6273,-4.6275,-4.6273,-4.6243,-4.6198,-4.6131,-4.6072,-4.6011,-4.5983,-4.5933,-4.5906,-4.591,-4.5854,-4.5801,-4.5787,-4.5787,-4.5834,-4.5923,-4.6008,-4.6088,-4.6135,-4.6206,-4.6245,-4.6273,-4.6273,-4.6277,-4.6277,-4.63,-4.63,-4.6303,-4.6291,-4.6299,-4.6301,-4.6305,-4.6289,-4.6289,-4.6289,-4.6289,-4.6289,-4.6289,-4.6289,-4.6289,-4.6289,-4.6289,-4.6289,-4.6289,-4.6289,-4.6289,-4.6289,-4.6289,-4.6289,-4.6289,-4.6289,-4.6289,-4.6289,-4.6289,-4.6289,-4.6289,-4.6289,-4.6289,-4.6289,-4.6289,-4.6289,-4.6289,-4.6289,-4.6283,-4.6257,-4.6225,-4.617,-4.613,-4.605,-4.5982,-4.5916,-4.6302,-4.6302,-4.6302,-4.6302,-4.6302,-4.6302,-4.6302,-4.6302,-4.6302,-4.6302,-4.6302,-4.6302,-4.6302,-4.6302,-4.6302,-4.6302,-4.6302,-4.6302,-4.6302,-4.6302,-4.6302,-4.6302,-4.6302,-4.6302,-4.6302,-4.6302,-4.6302,-4.6302,-4.6302,-4.6302,-4.63,-4.63,-4.63,-4.63,-4.63,-4.6298,-4.6275,-4.6273,-4.6271,-4.6286,-4.6211,-4.6209,-4.6226,-4.6217,-4.6222,-4.6187,-4.6146,-4.6123,-4.6065,-4.5993,-4.5941,-4.5867,-4.5822,-4.5807,-4.5757,-4.5727,-4.5712,-4.5712,-4.5757,-4.5854,-4.5927,-4.6003,-4.6059,-4.6119,-4.6167,-4.6192,-4.6201,-4.6238,-4.6243,-4.6296,-4.63,-4.63,-4.6288,-4.6296,-4.6301,-4.6305,-4.6289,-4.6289,-4.6289,-4.6289,-4.6289,-4.6289,-4.6289,-4.6289,-4.6289,-4.6289,-4.6289,-4.6289,-4.6289,-4.6289,-4.6289,-4.6289,-4.6289,-4.6289,-4.6289,-4.6289,-4.6289,-4.6289,-4.6289,-4.6289,-4.6289,-4.6289,-4.6289,-4.6289,-4.6289,-4.6289,-4.6289,-4.6288,-4.6286,-4.6258,-4.622,-4.6164,-4.6095,-4.6063,-4.6013]},{"header":{"parameterUnit":"m.s-1","parameterCategory":1,"la1":31.0,"la2":29.5877,"lo1":-88.7671,"lo2":-86.6584,"dy":0.0162,"dx":0.0185,"nx":115,"ny":88,"refTime":"2026-04-24T18:00:00:Z","depth":0,"parameterNumber":3,"parameterNumberName":"V-component_of_WINDS"},"data":[0.0,0.0,0.0,0.0,0.0,0.0,0.0,0.0,0.0,0.0,0.0,0.0,0.0,0.0,0.0,0.0,0.0,0.0,0.0,0.0,0.0,0.0,0.0,0.0,0.0,0.0,0.0,0.0,0.0,0.0,0.0,0.0,0.0,0.0,0.0,0.0,0.0,0.0,0.0,0.0,0.0,0.0,0.0,0.0,0.0,0.0,0.0,0.0,0.0,0.0,0.0,0.0,0.0,0.0,0.0,0.0,0.0,0.0,0.0,0.0,0.0,0.0,0.0,0.0,0.0,0.0,0.0,0.0,0.0,0.0,0.0,0.0,0.0,0.0,0.0,0.0,0.0,0.0,0.0,0.0,0.0,0.0,0.0,0.0,0.0,0.0,0.0,0.0,0.0,0.0,0.0,0.0,0.0,0.0,0.0,0.0,0.0,0.0,0.0,0.0,0.0,0.0,0.0,0.0,0.0,0.0,0.0,0.0,0.0,0.0,0.0,0.0,0.0,0.0,0.0,0.0,0.0,0.0,0.0,0.0,0.0,0.0,0.0,0.0,0.0,0.0,0.0,0.0,0.0,0.0,0.0,0.0,0.0,0.0,0.0,0.0,0.0,0.0,0.0,0.0,0.0,0.0,0.0,0.0,0.0,0.0,0.0,0.0,0.0,0.0,0.0,0.0,0.0,0.0,0.0,0.0,0.0,0.0,0.0,0.0,0.0,0.0,0.0,0.0,0.0,0.0,0.0,0.0,0.0,0.0,0.0,0.0,0.0,0.0,0.0,0.0,0.0,0.0,0.0,0.0,0.0,0.0,0.0,0.0,0.0,0.0,0.0,0.0,0.0,0.0,0.0,0.0,0.0,0.0,0.0,0.0,0.0,0.0,0.0,0.0,0.0,0.0,0.0,0.0,0.0,0.0,0.0,0.0,0.0,0.0,0.0,0.0,0.0,0.0,0.0,0.0,0.0,0.0,0.0,0.0,0.0,0.0,0.0,0.0,0.0,0.0,0.0,0.0,0.0,0.0,0.0,0.0,0.0,0.0,0.0,0.0,0.0,0.0,0.0,0.0,0.0,0.0,0.0,0.0,0.0,0.0,0.0,0.0,0.0,0.0,0.0,0.0,0.0,0.0,0.0,0.0,0.0,0.0,0.0,0.0,0.0,0.0,0.0,0.0,0.0,0.0,0.0,0.0,0.0,0.0,0.0,0.0,0.0,0.0,0.0,0.0,0.0,0.0,0.0,0.0,0.0,0.0,0.0,0.0,0.0,0.0,0.0,0.0,0.0,0.0,0.0,0.0,0.0,0.0,0.0,0.0,0.0,0.0,0.0,0.0,0.0,0.0,0.0,0.0,0.0,0.0,0.0,0.0,0.0,0.0,0.0,0.0,0.0,0.0,0.0,0.0,0.0,0.0,0.0,0.0,0.0,0.0,0.0,0.0,0.0,0.0,0.0,0.0,0.0,0.0,0.0,0.0,0.0,0.0,0.0,0.0,0.0,0.0,0.0,0.0,0.0,0.0,0.0,0.0,0.0,0.0,0.0,0.0,0.0,0.0,0.0,0.0,0.0,0.0,0.0,0.0,0.0,0.0,0.0,0.0,0.0,0.0,0.0,0.0,0.0,0.0,0.0,0.0,0.0,0.0,0.0,0.0,0.0,0.0,0.0,0.0,0.0,0.0,0.0,0.0,0.0,0.0,0.0,0.0,0.0,0.0,0.0,0.0,0.0,0.0,0.0,0.0,0.0,0.0,0.0,0.0,0.0,0.0,0.0,0.0,0.0,0.0,0.0,0.0,0.0,0.0,0.0,0.0,0.0,0.0,0.0,0.0,0.0,0.0,0.0,0.0,0.0,0.0,0.0,0.0,0.0,0.0,0.0,0.0,0.0,0.0,0.0,0.0,0.0,0.0,0.0,0.0,0.0,0.0,0.0,0.0,0.0,0.0,0.0,0.0,0.0,0.0,0.0,0.0,0.0,0.0,0.0,0.0,0.0,0.0,0.0,0.0,0.0,0.0,0.0,0.0,0.0,0.0,0.0,0.0,0.0,0.0,0.0,0.0,0.0,0.0,0.0,0.0,0.0,0.0,0.0,0.0,0.0,0.0,0.0,0.0,0.0,0.0,0.0,0.0,0.0,0.0,0.0,0.0,0.0,0.0,0.0,0.0,0.0,0.0,0.0,0.0,0.0,0.0,0.0,0.0,0.0,0.0,0.0,0.0,0.0,0.0,0.0,0.0,0.0,0.0,0.0,0.0,0.0,0.0,0.0,0.0,0.0,0.0,0.0,0.0,0.0,0.0,0.0,0.0,0.0,0.0,0.0,0.0,0.0,0.0,0.0,0.0,0.0,0.0,0.0,0.0,0.0,0.0,0.0,0.0,0.0,0.0,0.0,0.0,0.0,0.0,0.0,0.0,0.0,0.0,0.0,0.0,0.0,0.0,0.0,0.0,0.0,0.0,0.0,0.0,0.0,0.0,0.0,0.0,0.0,0.0,0.0,0.0,0.0,0.0,0.0,0.0,0.0,0.0,0.0,0.0,0.0,0.0,0.0,0.0,0.0,0.0,0.0,0.0,0.0,0.0,0.0,0.0,0.0,0.0,0.0,0.0,0.0,0.0,0.0,0.0,0.0,0.0,0.0,0.0,0.0,0.0,0.0,0.0,0.0,0.0,0.0,0.0,0.0,0.0,0.0,0.0,0.0,0.0,0.0,0.0,0.0,0.0,0.0,0.0,0.0,0.0,0.0,0.0,0.0,0.0,0.0,0.0,0.0,0.0,0.0,0.0,0.0,0.0,0.0,0.0,0.0,0.0,0.0,0.0,0.0,0.0,0.0,0.0,0.0,0.0,0.0,0.0,0.0,0.0,0.0,0.0,0.0,0.0,0.0,0.0,0.0,0.0,0.0,0.0,0.0,0.0,0.0,0.0,0.0,0.0,0.0,0.0,0.0,0.0,0.0,0.0,0.0,0.0,0.0,0.0,0.0,0.0,0.0,0.0,0.0,0.0,0.0,0.0,0.0,0.0,0.0,0.0,0.0,0.0,0.0,0.0,0.0,0.0,0.0,0.0,0.0,0.0,0.0,0.0,0.0,0.0,0.0,0.0,0.0,0.0,0.0,0.0,0.0,0.0,0.0,0.0,0.0,0.0,0.0,0.0,0.0,0.0,0.0,0.0,0.0,0.0,0.0,0.0,0.0,0.0,0.0,0.0,0.0,0.0,0.0,0.0,0.0,0.0,0.0,0.0,0.0,0.0,0.0,0.0,0.0,0.0,0.0,0.0,0.0,0.0,0.0,0.0,0.0,0.0,0.0,0.0,0.0,0.0,0.0,0.0,0.0,0.0,0.0,0.0,0.0,0.0,0.0,0.0,0.0,0.0,0.0,0.0,0.0,0.0,0.0,0.0,0.0,0.0,0.0,0.0,0.0,0.0,0.0,0.0,0.0,0.0,0.0,0.0,0.0,0.0,0.0,0.0,0.0,0.0,0.0,0.0,0.0,0.0,0.0,0.0,0.0,0.0,0.0,0.0,0.0,0.0,0.0,0.0,0.0,0.0,0.0,0.0,0.0,0.0,0.0,0.0,0.0,0.0,0.0,0.0,0.0,0.0,0.0,0.0,0.0,0.0,0.0,0.0,0.0,0.0,0.0,0.0,0.0,0.0,0.0,0.0,0.0,0.0,0.0,0.0,0.0,0.0,0.0,0.0,0.0,0.0,0.0,0.0,0.0,0.0,0.0,0.0,0.0,0.0,0.0,0.0,0.0,0.0,0.0,0.0,0.0,0.0,0.0,0.0,0.0,0.0,0.0,0.0,0.0,0.0,0.0,0.0,0.0,0.0,0.0,0.0,0.0,0.0,0.0,0.0,0.0,0.0,0.0,0.0,0.0,0.0,0.0,0.0,0.0,0.0,0.0,0.0,0.0,0.0,0.0,0.0,0.0,0.0,0.0,0.0,0.0,0.0,0.0,0.0,0.0,0.0,0.0,0.0,0.0,0.0,0.0,0.0,0.0,0.0,0.0,0.0,0.0,0.0,0.0,0.0,0.0,0.0,0.0,0.0,0.0,0.0,0.0,0.0,0.0,0.0,0.0,0.0,0.0,0.0,0.0,0.0,0.0,0.0,0.0,0.0,0.0,0.0,0.0,0.0,0.0,0.0,0.0,0.0,0.0,0.0,0.0,0.0,0.0,0.0,0.0,0.0,0.0,0.0,0.0,0.0,0.0,0.0,0.0,0.0,0.0,0.0,0.0,0.0,0.0,0.0,0.0,0.0,0.0,0.0,-0.4962,0.0,0.0,0.0,0.0,0.0,0.0,0.0,0.0,0.0,0.0,0.0,0.0,0.0,0.0,0.0,0.0,0.0,0.0,0.0,0.0,0.0,0.0,0.0,0.0,0.0,0.0,0.0,0.0,0.0,0.0,0.0,0.0,0.0,0.0,0.0,0.0,0.0,0.0,0.0,0.0,0.0,0.0,0.0,0.0,0.0,0.0,0.0,0.0,0.0,0.0,0.0,0.0,0.0,0.0,0.0,0.0,0.0,0.0,0.0,0.0,0.0,0.0,0.0,0.0,0.0,0.0,0.0,0.0,0.0,0.0,0.0,0.0,0.0,0.0,0.0,0.0,0.0,0.0,0.0,0.0,0.0,0.0,0.0,0.0,0.0,0.0,0.0,0.0,0.0,0.0,0.0,0.0,0.0,0.0,0.0,0.0,0.0,0.0,0.0,0.0,0.0,0.0,0.0,0.0,0.0,0.0,0.0,0.0,0.0,0.0,-0.519,-0.5395,-0.5395,-0.5255,-0.4901,0.0,0.0,0.0,0.0,0.0,0.0,0.0,0.0,0.0,0.0,0.0,0.0,0.0,0.0,0.0,0.0,0.0,0.0,0.0,0.0,0.0,0.0,0.0,0.0,0.0,0.0,0.0,0.0,0.0,0.0,0.0,0.0,0.0,0.0,0.0,0.0,0.0,0.0,0.0,0.0,0.0,0.0,0.0,0.0,0.0,0.0,0.0,0.0,0.0,0.0,0.0,0.0,0.0,0.0,0.0,0.0,0.0,0.0,0.0,0.0,0.0,0.0,0.0,0.0,0.0,0.0,0.0,0.0,0.0,0.0,0.0,0.0,0.0,0.0,0.0,0.0,0.0,0.0,0.0,0.0,0.0,0.0,0.0,0.0,0.0,0.0,0.0,0.0,0.0,0.0,0.0,0.0,0.0,0.0,0.0,0.0,0.0,0.0,0.0,0.0,0.0,0.0,0.0,0.0,0.0,0.0,0.0,0.0,0.0,0.0,0.0,0.0,-0.5463,-0.5257,-0.4897,0.0,0.0,0.0,0.0,0.0,0.0,0.0,0.0,0.0,0.0,0.0,0.0,0.0,0.0,0.0,0.0,0.0,0.0,0.0,0.0,0.0,0.0,0.0,0.0,0.0,0.0,0.0,0.0,0.0,0.0,0.0,0.0,0.0,0.0,0.0,0.0,0.0,0.0,0.0,0.0,0.0,0.0,0.0,0.0,0.0,0.0,0.0,0.0,0.0,0.0,0.0,0.0,0.0,0.0,0.0,0.0,0.0,0.0,0.0,0.0,0.0,0.0,0.0,0.0,0.0,0.0,0.0,0.0,0.0,0.0,0.0,0.0,0.0,0.0,0.0,0.0,0.0,0.0,0.0,0.0,0.0,0.0,0.0,0.0,0.0,0.0,0.0,0.0,0.0,0.0,0.0,0.0,0.0,0.0,0.0,0.0,0.0,0.0,0.0,0.0,0.0,0.0,0.0,0.0,0.0,0.0,0.0,0.0,0.0,0.0,-0.563,-0.5752,-0.5637,0.0,-0.4938,0.0,0.0,0.0,0.0,0.0,0.0,0.0,0.0,0.0,0.0,0.0,0.0,0.0,0.0,0.0,0.0,0.0,0.0,0.0,0.0,0.0,0.0,0.0,0.0,0.0,0.0,0.0,0.0,0.0,0.0,0.0,0.0,0.0,0.0,0.0,0.0,0.0,0.0,0.0,0.0,0.0,0.0,0.0,0.0,0.0,0.0,0.0,0.0,0.0,0.0,0.0,0.0,0.0,0.0,0.0,0.0,0.0,0.0,0.0,0.0,0.0,0.0,0.0,0.0,0.0,0.0,0.0,0.0,0.0,0.0,0.0,0.0,0.0,0.0,0.0,0.0,0.0,0.0,0.0,0.0,0.0,0.0,0.0,0.0,0.0,0.0,0.0,0.0,0.0,0.0,0.0,0.0,0.0,0.0,0.0,0.0,0.0,0.0,0.0,0.0,0.0,0.0,0.0,0.0,0.0,0.0,0.0,0.0,0.0,0.0,-0.5657,-0.58,-0.5664,-0.5416,0.0,0.0,0.0,0.0,0.0,0.0,0.0,0.0,0.0,0.0,0.0,0.0,0.0,0.0,0.0,0.0,0.0,0.0,0.0,0.0,0.0,0.0,0.0,0.0,0.0,0.0,0.0,0.0,0.0,0.0,0.0,0.0,0.0,0.0,0.0,0.0,0.0,0.0,0.0,0.0,0.0,0.0,0.0,0.0,0.0,0.0,0.0,0.0,0.0,0.0,0.0,0.0,0.0,0.0,0.0,0.0,0.0,0.0,0.0,0.0,0.0,0.0,0.0,0.0,0.0,0.0,0.0,0.0,0.0,0.0,0.0,0.0,0.0,0.0,0.0,0.0,0.0,0.0,0.0,0.0,0.0,0.0,0.0,0.0,0.0,0.0,0.0,0.0,0.0,0.0,0.0,0.0,0.0,0.0,0.0,0.0,0.0,0.0,0.0,0.0,0.0,0.0,0.0,0.0,0.0,0.0,0.0,0.0,0.0,0.0,-0.543,0.0,-0.5728,-0.5678,-0.541,-0.5023,0.0,0.0,0.0,0.0,0.0,0.0,0.0,0.0,0.0,0.0,0.0,0.0,0.0,0.0,0.0,0.0,0.0,0.0,0.0,0.0,0.0,0.0,0.0,0.0,0.0,0.0,0.0,0.0,0.0,0.0,0.0,0.0,0.0,0.0,0.0,0.0,0.0,0.0,0.0,0.0,0.0,0.0,0.0,0.0,0.0,0.0,0.0,0.0,0.0,0.0,0.0,0.0,0.0,0.0,0.0,0.0,0.0,0.0,0.0,0.0,0.0,0.0,0.0,0.0,0.0,0.0,0.0,0.0,0.0,0.0,0.0,0.0,0.0,0.0,0.0,0.0,0.0,0.0,0.0,0.0,0.0,0.0,0.0,0.0,0.0,0.0,0.0,0.0,0.0,0.0,0.0,0.0,0.0,0.0,0.0,0.0,0.0,0.0,0.0,0.0,0.0,0.0,0.0,0.0,0.0,0.0,0.0,0.0,0.0,-0.5433,-0.5627,-0.5603,-0.5627,-0.5315,0.0,0.0,0.0,0.0,0.0,0.0,0.0,0.0,0.0,0.0,0.0,0.0,0.0,0.0,0.0,0.0,0.0,0.0,0.0,0.0,0.0,0.0,0.0,0.0,0.0,0.0,0.0,0.0,0.0,0.0,0.0,0.0,0.0,0.0,0.0,0.0,0.0,0.0,0.0,0.0,0.0,0.0,0.0,0.0,0.0,0.0,0.0,0.0,0.0,0.0,0.0,0.0,0.0,0.0,0.0,0.0,0.0,0.0,0.0,0.0,0.0,0.0,0.0,0.0,0.0,0.0,0.0,0.0,0.0,0.0,0.0,0.0,0.0,0.0,0.0,0.0,0.0,0.0,0.0,0.0,0.0,0.0,0.0,0.0,0.0,0.0,0.0,0.0,0.0,0.0,0.0,0.0,0.0,0.0,0.0,0.0,0.0,0.0,0.0,0.0,0.0,0.0,0.0,0.0,0.0,0.0,0.0,0.0,0.0,-0.5123,-0.5518,-0.5681,-0.5596,-0.5589,-0.5308,0.0,0.0,0.0,0.0,0.0,0.0,0.0,0.0,0.0,0.0,0.0,0.0,0.0,0.0,0.0,0.0,0.0,0.0,0.0,0.0,0.0,0.0,0.0,0.0,0.0,0.0,0.0,0.0,0.0,0.0,0.0,0.0,0.0,0.0,0.0,0.0,0.0,0.0,0.0,0.0,0.0,0.0,0.0,0.0,0.0,0.0,0.0,0.0,0.0,0.0,0.0,0.0,0.0,0.0,0.0,0.0,0.0,0.0,0.0,0.0,0.0,0.0,0.0,0.0,0.0,0.0,0.0,0.0,0.0,0.0,0.0,0.0,0.0,0.0,0.0,0.0,0.0,0.0,0.0,0.0,0.0,0.0,0.0,0.0,0.0,0.0,0.0,0.0,0.0,0.0,0.0,0.0,0.0,0.0,0.0,0.0,0.0,0.0,0.0,0.0,0.0,0.0,0.0,0.0,0.0,0.0,0.0,0.0,0.0,-0.5094,0.0,-0.5522,0.0,-0.5401,-0.5156,0.0,0.0,0.0,0.0,0.0,0.0,0.0,0.0,0.0,0.0,0.0,0.0,0.0,0.0,0.0,0.0,0.0,0.0,0.0,0.0,0.0,0.0,0.0,0.0,0.0,0.0,0.0,0.0,0.0,0.0,0.0,0.0,0.0,0.0,0.0,0.0,0.0,0.0,0.0,0.0,0.0,0.0,0.0,0.0,0.0,0.0,0.0,0.0,0.0,0.0,0.0,0.0,0.0,0.0,0.0,0.0,0.0,0.0,0.0,0.0,0.0,0.0,0.0,0.0,0.0,0.0,0.0,0.0,0.0,0.0,0.0,0.0,0.0,0.0,0.0,0.0,0.0,0.0,0.0,0.0,0.0,0.0,0.0,0.0,0.0,0.0,0.0,0.0,0.0,0.0,0.0,0.0,0.0,0.0,0.0,0.0,0.0,0.0,0.0,0.0,0.0,0.0,0.0,0.0,0.0,0.0,0.0,0.0,-0.5066,-0.5001,-0.5095,-0.5072,-0.5004,-0.4968,-0.4791,0.0,0.0,0.0,0.0,0.0,0.0,0.0,0.0,0.0,0.0,0.0,0.0,0.0,0.0,0.0,0.0,0.0,0.0,0.0,0.0,0.0,0.0,0.0,0.0,0.0,0.0,0.0,0.0,0.0,0.0,0.0,0.0,0.0,0.0,0.0,0.0,0.0,0.0,0.0,0.0,0.0,0.0,0.0,0.0,0.0,0.0,0.0,0.0,0.0,0.0,0.0,0.0,0.0,0.0,0.0,0.0,0.0,0.0,0.0,0.0,0.0,0.0,0.0,0.0,0.0,0.0,0.0,0.0,0.0,0.0,0.0,0.0,0.0,0.0,0.0,0.0,0.0,0.0,0.0,0.0,0.0,0.0,0.0,0.0,0.0,0.0,0.0,0.0,0.0,0.0,0.0,0.0,0.0,0.0,0.0,0.0,0.0,0.0,0.0,0.0,0.0,0.0,0.0,0.0,0.0,0.0,0.0,0.0,0.0,-0.4533,-0.4157,-0.398,-0.403,-0.4178,-0.4204,0.0,0.0,0.0,0.0,0.0,0.0,0.0,0.0,0.0,0.0,0.0,0.0,0.0,0.0,0.0,0.0,0.0,0.0,0.0,0.0,0.0,0.0,0.0,0.0,0.0,0.0,0.0,0.0,0.0,0.0,0.0,0.0,0.0,0.0,0.0,0.0,0.0,0.0,0.0,0.0,0.0,0.0,0.0,0.0,0.0,0.0,0.0,0.0,0.0,0.0,0.0,0.0,0.0,0.0,0.0,0.0,0.0,0.0,0.0,0.0,0.0,0.0,0.0,0.0,0.0,0.0,0.0,0.0,0.0,0.0,0.0,0.0,0.0,0.0,0.0,0.0,0.0,0.0,0.0,0.0,0.0,0.0,0.0,0.0,0.0,0.0,0.0,0.0,0.0,0.0,0.0,0.0,0.0,0.0,0.0,0.0,0.0,0.0,0.0,0.0,0.0,0.0,0.0,0.0,0.0,0.0,0.0,0.0,0.0,-0.4609,-0.42,-0.3953,-0.3932,-0.4071,-0.4085,-0.3942,0.0,0.0,0.0,0.0,0.0,0.0,0.0,0.0,0.0,0.0,0.0,0.0,0.0,0.0,0.0,0.0,0.0,0.0,0.0,0.0,0.0,0.0,0.0,0.0,0.0,0.0,0.0,0.0,0.0,0.0,0.0,0.0,0.0,0.0,0.0,0.0,0.0,0.0,0.0,0.0,0.0,0.0,0.0,0.0,0.0,0.0,0.0,0.0,0.0,0.0,0.0,0.0,0.0,0.0,0.0,0.0,0.0,0.0,0.0,0.0,0.0,0.0,0.0,0.0,0.0,0.0,0.0,0.0,0.0,0.0,0.0,0.0,0.0,0.0,0.0,0.0,0.0,0.0,0.0,0.0,0.0,0.0,0.0,0.0,0.0,0.0,0.0,0.0,0.0,0.0,0.0,0.0,0.0,0.0,0.0,0.0,0.0,0.0,0.0,0.0,0.0,0.0,0.0,0.0,0.0,0.0,0.0,0.0,-0.5254,-0.5087,-0.4812,-0.4522,-0.4445,-0.4329,0.0,0.0,0.0,0.0,0.0,0.0,0.0,0.0,0.0,0.0,0.0,0.0,0.0,0.0,0.0,0.0,0.0,0.0,0.0,0.0,0.0,0.0,0.0,0.0,0.0,0.0,0.0,0.0,0.0,0.0,0.0,0.0,0.0,0.0,0.0,0.0,0.0,0.0,0.0,0.0,0.0,0.0,0.0,0.0,0.0,0.0,0.0,0.0,0.0,0.0,0.0,0.0,0.0,0.0,0.0,0.0,0.0,0.0,0.0,0.0,0.0,0.0,0.0,0.0,0.0,0.0,0.0,0.0,0.0,0.0,0.0,0.0,0.0,0.0,0.0,0.0,0.0,0.0,0.0,0.0,0.0,0.0,0.0,0.0,0.0,0.0,0.0,0.0,0.0,0.0,0.0,0.0,0.0,0.0,0.0,0.0,0.0,0.0,0.0,0.0,0.0,0.0,0.0,0.0,0.0,0.0,0.0,0.0,0.0,-0.6023,-0.6141,-0.5711,-0.4617,-0.4297,-0.4082,0.0,0.0,0.0,0.0,0.0,0.0,0.0,0.0,0.0,0.0,0.0,0.0,0.0,0.0,0.0,0.0,0.0,0.0,0.0,0.0,0.0,0.0,0.0,0.0,0.0,0.0,0.0,0.0,0.0,0.0,0.0,0.0,0.0,0.0,0.0,0.0,0.0,0.0,0.0,0.0,0.0,0.0,0.0,0.0,0.0,0.0,0.0,0.0,0.0,0.0,0.0,0.0,0.0,0.0,0.0,0.0,0.0,0.0,0.0,0.0,0.0,0.0,0.0,0.0,0.0,0.0,0.0,0.0,0.0,0.0,0.0,0.0,0.0,0.0,0.0,0.0,0.0,0.0,0.0,0.0,0.0,0.0,0.0,0.0,0.0,0.0,0.0,0.0,0.0,0.0,0.0,0.0,0.0,0.0,0.0,0.0,0.0,0.0,0.0,0.0,0.0,0.0,0.0,0.0,0.0,0.0,0.0,0.0,-0.6043,-0.6617,-0.7051,-0.6798,-0.5696,-0.4935,-0.4388,0.0,0.0,0.0,0.0,0.0,0.0,0.0,0.0,0.0,0.0,0.0,0.0,0.0,0.0,0.0,0.0,0.0,0.0,0.0,0.0,0.0,0.0,0.0,0.0,0.0,0.0,0.0,0.0,0.0,0.0,0.0,0.0,0.0,0.0,0.0,0.0,0.0,0.0,0.0,0.0,0.0,0.0,0.0,0.0,0.0,0.0,0.0,0.0,0.0,0.0,0.0,0.0,0.0,0.0,0.0,0.0,0.0,0.0,0.0,0.0,0.0,0.0,0.0,0.0,0.0,0.0,0.0,0.0,0.0,0.0,0.0,0.0,0.0,0.0,0.0,0.0,0.0,0.0,0.0,0.0,0.0,0.0,0.0,0.0,0.0,0.0,0.0,0.0,0.0,0.0,0.0,0.0,0.0,0.0,0.0,0.0,0.0,0.0,0.0,0.0,0.0,0.0,0.0,0.0,0.0,0.0,0.0,0.0,-0.6417,-0.7104,-0.7756,-0.7811,-0.7182,-0.6019,-0.5097,0.0,0.0,0.0,0.0,0.0,0.0,0.0,0.0,0.0,0.0,0.0,0.0,0.0,0.0,0.0,0.0,0.0,0.0,0.0,0.0,0.0,0.0,0.0,0.0,0.0,0.0,0.0,0.0,0.0,0.0,0.0,0.0,0.0,0.0,0.0,0.0,0.0,0.0,0.0,0.0,0.0,0.0,0.0,0.0,0.0,0.0,0.0,0.0,0.0,0.0,0.0,0.0,0.0,0.0,0.0,0.0,0.0,0.0,0.0,0.0,0.0,0.0,0.0,0.0,0.0,0.0,0.0,0.0,0.0,0.0,0.0,0.0,0.0,0.0,0.0,0.0,0.0,0.0,0.0,0.0,0.0,0.0,0.0,0.0,0.0,0.0,0.0,0.0,0.0,0.0,0.0,0.0,0.0,0.0,0.0,0.0,0.0,0.0,0.0,0.0,0.0,0.0,0.0,0.0,0.0,0.0,0.0,0.0,-0.6456,-0.7151,-0.7659,-0.7712,-0.7291,-0.6508,-0.58,0.0,0.0,0.0,0.0,0.0,0.0,0.0,0.0,0.0,0.0,0.0,0.0,0.0,0.0,0.0,0.0,0.0,0.0,0.0,0.0,0.0,0.0,0.0,0.0,0.0,0.0,0.0,0.0,0.0,0.0,0.0,0.0,0.0,0.0,0.0,0.0,0.0,0.0,0.0,0.0,0.0,0.0,0.0,0.0,0.0,0.0,0.0,0.0,-0.6988,0.0,0.0,0.0,0.0,0.0,0.0,0.0,0.0,0.0,0.0,0.0,0.0,0.0,0.0,0.0,0.0,0.0,0.0,0.0,0.0,0.0,0.0,0.0,0.0,0.0,0.0,0.0,0.0,0.0,0.0,0.0,0.0,0.0,0.0,0.0,0.0,0.0,0.0,0.0,0.0,0.0,0.0,0.0,0.0,0.0,0.0,0.0,0.0,0.0,0.0,0.0,0.0,0.0,0.0,0.0,0.0,0.0,0.0,0.0,-0.6449,-0.7063,-0.7369,-0.7379,-0.7089,-0.681,-0.6369,0.0,0.0,0.0,0.0,0.0,0.0,0.0,0.0,0.0,0.0,0.0,0.0,0.0,0.0,0.0,0.0,0.0,0.0,0.0,0.0,0.0,0.0,0.0,0.0,0.0,0.0,0.0,0.0,0.0,0.0,0.0,0.0,0.0,0.0,0.0,0.0,0.0,0.0,0.0,0.0,0.0,0.0,0.0,0.0,0.0,0.0,0.0,0.0,0.0,0.0,0.0,0.0,0.0,0.0,0.0,0.0,0.0,0.0,0.0,0.0,0.0,0.0,0.0,0.0,0.0,0.0,0.0,0.0,0.0,0.0,0.0,0.0,0.0,0.0,0.0,0.0,0.0,0.0,0.0,0.0,0.0,0.0,0.0,0.0,0.0,0.0,0.0,0.0,0.0,0.0,0.0,0.0,0.0,0.0,0.0,0.0,0.0,0.0,0.0,0.0,0.0,0.0,0.0,0.0,0.0,0.0,0.0,-0.6087,-0.64,-0.6949,-0.7027,-0.6937,-0.6787,-0.7013,-0.664,-0.5596,0.0,0.0,0.0,0.0,0.0,0.0,0.0,0.0,0.0,0.0,0.0,0.0,0.0,0.0,0.0,0.0,0.0,0.0,0.0,0.0,0.0,0.0,0.0,0.0,0.0,0.0,0.0,0.0,0.0,0.0,0.0,0.0,0.0,0.0,0.0,0.0,0.0,0.0,-0.5835,-0.5873,0.0,0.0,0.0,0.0,0.0,0.0,0.0,0.0,-0.6776,0.0,0.0,0.0,0.0,0.0,0.0,0.0,0.0,0.0,0.0,0.0,0.0,0.0,0.0,0.0,0.0,0.0,0.0,0.0,0.0,0.0,0.0,0.0,0.0,0.0,0.0,0.0,0.0,0.0,0.0,0.0,0.0,0.0,0.0,0.0,0.0,0.0,0.0,0.0,0.0,0.0,0.0,0.0,0.0,0.0,0.0,0.0,0.0,0.0,0.0,0.0,0.0,0.0,0.0,0.0,0.0,-0.5983,-0.6087,-0.6311,-0.6821,-0.6842,-0.6764,-0.6575,-0.6688,-0.6312,-0.5334,0.0,0.0,0.0,0.0,0.0,0.0,0.0,0.0,0.0,0.0,0.0,0.0,0.0,0.0,0.0,0.0,0.0,0.0,0.0,0.0,0.0,0.0,0.0,0.0,0.0,0.0,0.0,0.0,0.0,0.0,0.0,0.0,0.0,0.0,0.0,0.0,0.0,0.0,0.0,-0.5567,-0.563,0.0,0.0,0.0,0.0,0.0,0.0,0.0,0.0,-0.6982,0.0,0.0,0.0,0.0,0.0,0.0,0.0,0.0,0.0,0.0,0.0,0.0,0.0,0.0,0.0,0.0,0.0,0.0,0.0,0.0,0.0,0.0,0.0,0.0,0.0,0.0,0.0,0.0,0.0,0.0,0.0,0.0,0.0,0.0,0.0,0.0,0.0,0.0,0.0,0.0,0.0,0.0,0.0,0.0,0.0,0.0,0.0,0.0,0.0,0.0,0.0,0.0,0.0,0.0,0.0,-0.6091,-0.6196,-0.6418,-0.6785,-0.6651,-0.6429,-0.6223,-0.6272,-0.5861,0.0,0.0,0.0,0.0,0.0,0.0,0.0,0.0,0.0,0.0,0.0,0.0,0.0,0.0,0.0,0.0,0.0,0.0,0.0,0.0,0.0,0.0,0.0,0.0,0.0,0.0,0.0,0.0,0.0,0.0,0.0,0.0,0.0,0.0,0.0,0.0,0.0,0.0,0.0,0.0,-0.53,-0.5344,-0.5785,0.0,0.0,0.0,0.0,0.0,0.0,-0.7035,-0.71,0.0,0.0,0.0,0.0,0.0,0.0,0.0,0.0,0.0,0.0,0.0,0.0,0.0,0.0,0.0,0.0,0.0,0.0,0.0,0.0,0.0,0.0,0.0,0.0,0.0,0.0,0.0,0.0,0.0,0.0,0.0,0.0,0.0,0.0,0.0,0.0,0.0,0.0,0.0,0.0,0.0,0.0,0.0,0.0,0.0,0.0,0.0,0.0,0.0,0.0,0.0,0.0,0.0,0.0,0.0,-0.6163,-0.6268,-0.6442,-0.6698,-0.641,-0.6102,-0.5745,-0.5761,-0.5331,0.0,0.0,0.0,0.0,0.0,0.0,0.0,0.0,0.0,0.0,0.0,0.0,0.0,0.0,0.0,0.0,0.0,0.0,0.0,0.0,0.0,0.0,0.0,0.0,0.0,0.0,0.0,0.0,0.0,0.0,0.0,0.0,0.0,0.0,0.0,0.0,0.0,0.0,0.0,0.0,0.0,-0.5196,-0.5419,-0.5555,0.0,0.0,0.0,0.0,-0.6937,-0.7052,0.0,0.0,0.0,0.0,0.0,0.0,0.0,0.0,0.0,0.0,0.0,0.0,0.0,0.0,0.0,0.0,0.0,0.0,0.0,0.0,0.0,0.0,0.0,0.0,0.0,0.0,0.0,0.0,0.0,0.0,0.0,0.0,0.0,0.0,0.0,0.0,0.0,0.0,0.0,0.0,0.0,0.0,0.0,0.0,0.0,0.0,0.0,0.0,0.0,0.0,0.0,0.0,0.0,0.0,0.0,0.0,-0.5918,-0.613,-0.6263,-0.6336,-0.6236,-0.5847,-0.5293,-0.53,-0.4742,0.0,0.0,0.0,0.0,0.0,0.0,0.0,0.0,0.0,0.0,0.0,0.0,0.0,0.0,0.0,0.0,0.0,0.0,0.0,0.0,0.0,0.0,0.0,0.0,0.0,0.0,0.0,0.0,0.0,0.0,0.0,0.0,0.0,0.0,0.0,0.0,0.0,0.0,0.0,0.0,0.0,-0.5204,-0.5513,-0.5698,-0.5813,0.0,0.0,-0.6309,-0.6419,-0.6756,0.0,0.0,0.0,0.0,0.0,0.0,0.0,0.0,0.0,0.0,0.0,0.0,0.0,0.0,0.0,0.0,0.0,0.0,0.0,0.0,0.0,0.0,0.0,0.0,0.0,0.0,0.0,0.0,0.0,0.0,0.0,0.0,0.0,0.0,0.0,0.0,0.0,0.0,0.0,0.0,0.0,0.0,0.0,0.0,0.0,0.0,0.0,0.0,0.0,0.0,0.0,0.0,0.0,0.0,0.0,-0.4874,-0.5654,-0.5909,-0.6104,-0.6267,-0.6097,-0.5705,-0.5031,-0.4693,-0.4098,0.0,0.0,0.0,0.0,0.0,0.0,0.0,0.0,0.0,0.0,0.0,0.0,0.0,0.0,0.0,0.0,0.0,0.0,0.0,0.0,0.0,0.0,0.0,0.0,0.0,0.0,0.0,0.0,0.0,0.0,0.0,0.0,0.0,0.0,0.0,0.0,0.0,0.0,0.0,0.0,0.0,0.0,-0.5555,-0.5657,0.0,0.0,0.0,-0.6081,-0.6275,0.0,0.0,0.0,0.0,0.0,0.0,0.0,0.0,0.0,0.0,0.0,0.0,0.0,0.0,0.0,0.0,0.0,0.0,0.0,0.0,0.0,0.0,0.0,0.0,0.0,0.0,0.0,0.0,0.0,0.0,0.0,0.0,0.0,0.0,0.0,0.0,0.0,0.0,0.0,0.0,0.0,0.0,0.0,0.0,0.0,0.0,0.0,0.0,0.0,0.0,0.0,0.0,0.0,0.0,0.0,0.0,0.0,-0.5383,-0.5682,-0.5967,-0.613,-0.5954,-0.5521,-0.4815,-0.4241,0.0,0.0,0.0,0.0,0.0,0.0,0.0,0.0,0.0,0.0,0.0,0.0,0.0,0.0,0.0,0.0,0.0,0.0,0.0,0.0,0.0,0.0,0.0,0.0,0.0,0.0,0.0,-0.2809,0.0,0.0,0.0,0.0,0.0,0.0,0.0,0.0,0.0,0.0,0.0,0.0,0.0,0.0,-0.5295,-0.5559,-0.5684,-0.5769,0.0,0.0,-0.6,-0.6208,-0.6444,-0.6549,0.0,0.0,0.0,0.0,0.0,0.0,0.0,0.0,0.0,0.0,0.0,0.0,0.0,0.0,0.0,0.0,0.0,0.0,0.0,0.0,0.0,0.0,0.0,0.0,0.0,0.0,0.0,0.0,0.0,0.0,0.0,0.0,0.0,0.0,0.0,0.0,0.0,0.0,0.0,0.0,0.0,0.0,0.0,0.0,0.0,0.0,0.0,0.0,0.0,0.0,0.0,0.0,0.0,0.0,0.0,-0.5107,-0.5517,-0.5718,-0.5735,-0.5746,-0.5277,-0.4464,-0.3977,-0.3215,0.0,0.0,0.0,0.0,0.0,0.0,0.0,0.0,0.0,0.0,0.0,0.0,0.0,0.0,0.0,0.0,0.0,0.0,0.0,0.0,0.0,0.0,0.0,0.0,0.0,0.0,0.0,0.0,0.0,0.0,0.0,0.0,0.0,0.0,0.0,0.0,0.0,0.0,0.0,0.0,0.0,-0.5569,-0.5589,-0.5949,-0.6153,0.0,0.0,-0.6246,-0.6143,-0.6201,-0.6201,-0.6133,0.0,0.0,0.0,0.0,0.0,0.0,0.0,0.0,0.0,0.0,0.0,0.0,0.0,0.0,0.0,0.0,0.0,0.0,0.0,0.0,0.0,0.0,0.0,0.0,0.0,0.0,0.0,0.0,0.0,0.0,0.0,0.0,0.0,0.0,0.0,0.0,0.0,0.0,0.0,0.0,0.0,0.0,0.0,0.0,0.0,0.0,0.0,0.0,0.0,0.0,0.0,0.0,0.0,-0.4224,-0.4745,-0.5229,-0.5537,-0.5572,-0.565,-0.5221,-0.4241,-0.3572,-0.2726,0.0,0.0,0.0,0.0,0.0,0.0,0.0,0.0,0.0,0.0,0.0,0.0,0.0,0.0,0.0,0.0,0.0,0.0,0.0,0.0,0.0,0.0,0.0,0.0,0.0,0.0,0.0,0.0,-0.3182,-0.33,-0.3516,0.0,0.0,0.0,0.0,0.0,0.0,0.0,0.0,0.0,0.0,-0.5723,-0.5999,-0.619,0.0,0.0,-0.6376,-0.6392,-0.6349,-0.6294,-0.6222,-0.6128,-0.5697,0.0,0.0,0.0,0.0,0.0,0.0,0.0,0.0,0.0,0.0,0.0,0.0,0.0,0.0,0.0,0.0,0.0,0.0,0.0,0.0,0.0,0.0,0.0,0.0,0.0,0.0,0.0,0.0,0.0,0.0,0.0,0.0,0.0,0.0,0.0,0.0,0.0,0.0,0.0,0.0,0.0,0.0,0.0,0.0,0.0,0.0,0.0,0.0,0.0,0.0,0.0,0.0,-0.4052,-0.4503,-0.5101,-0.5386,-0.5419,-0.5447,-0.5,-0.3952,-0.31,-0.2251,0.0,0.0,0.0,0.0,0.0,0.0,0.0,0.0,0.0,0.0,0.0,0.0,0.0,0.0,0.0,0.0,0.0,0.0,0.0,0.0,0.0,0.0,0.0,0.0,0.0,0.0,0.0,0.0,-0.3321,-0.3442,-0.3527,0.0,0.0,0.0,0.0,0.0,0.0,0.0,0.0,0.0,0.0,-0.5833,-0.6146,-0.6306,-0.6419,-0.6546,-0.6552,-0.6512,-0.6463,-0.6364,-0.6259,-0.6119,0.0,0.0,0.0,0.0,0.0,0.0,0.0,0.0,0.0,0.0,0.0,0.0,0.0,0.0,0.0,0.0,0.0,0.0,0.0,0.0,0.0,0.0,0.0,0.0,0.0,0.0,0.0,0.0,0.0,0.0,0.0,0.0,0.0,0.0,0.0,0.0,0.0,0.0,0.0,0.0,0.0,0.0,0.0,0.0,0.0,0.0,0.0,0.0,0.0,0.0,0.0,0.0,0.0,-0.4024,-0.4503,-0.5103,-0.5341,-0.5196,-0.5088,-0.4515,-0.3451,-0.2561,-0.1711,-0.0948,0.0,0.0,0.0,0.0,0.0,0.0,0.0,0.0,0.0,0.0,0.0,0.0,0.0,0.0,0.0,0.0,0.0,0.0,0.0,0.0,0.0,0.0,0.0,0.0,0.0,0.0,-0.3535,-0.3582,-0.3536,0.0,0.0,0.0,0.0,0.0,0.0,0.0,0.0,0.0,0.0,-0.5609,-0.5986,-0.6006,-0.6285,-0.6463,-0.6344,-0.6515,-0.6593,-0.6354,-0.6303,-0.6259,0.0,0.0,0.0,0.0,0.0,0.0,0.0,0.0,0.0,0.0,0.0,0.0,0.0,0.0,0.0,0.0,0.0,0.0,0.0,0.0,0.0,0.0,0.0,0.0,0.0,0.0,0.0,-0.0255,0.0,0.0,0.0,0.0,0.0,0.0,0.0,0.0,0.0,0.0,0.0,0.0,-0.1323,-0.135,0.0,0.0,0.0,0.0,0.0,0.0,0.0,0.0,0.0,0.0,0.0,0.0,-0.4069,-0.4509,-0.5064,-0.522,-0.4882,-0.4638,-0.4062,-0.3025,-0.211,-0.1206,-0.0343,0.0,0.0,0.0,0.0,0.0,0.0,0.0,0.0,0.0,0.0,0.0,0.0,0.0,0.0,0.0,0.0,0.0,0.0,0.0,0.0,0.0,0.0,0.0,0.0,0.0,-0.3244,0.0,0.0,0.0,0.0,0.0,0.0,0.0,0.0,0.0,0.0,0.0,-0.4706,-0.5071,-0.5728,-0.6255,-0.6308,-0.6407,-0.6532,0.0,0.0,0.0,0.0,0.0,0.0,0.0,0.0,0.0,0.0,0.0,0.0,0.0,0.0,-0.9464,-0.8818,-0.8704,-0.8595,-0.8297,0.0,0.0,0.0,0.0,0.0,0.0,0.0,0.0,0.0,0.0,0.0,0.0,0.0,0.0,-0.0122,0.0,0.0,0.0,0.0,0.0,0.0,0.0,0.0,0.0,0.0,-0.0655,-0.0704,-0.0708,-0.0698,-0.0937,0.0,-0.1789,-0.2257,0.0,0.0,0.0,0.0,0.0,0.0,0.0,0.0,-0.4124,-0.4413,-0.4907,-0.4892,-0.4322,-0.3974,-0.3379,-0.2408,-0.149,-0.0683,0.0,0.0,0.0,0.0,0.0,0.0,0.0,0.0,0.0,0.0,0.0,0.0,0.0,0.0,0.0,0.0,0.0,0.0,0.0,0.0,0.0,0.0,0.0,0.0,0.0,0.0,-0.3146,0.0,0.0,0.0,0.0,0.0,0.0,0.0,0.0,0.0,-0.4081,-0.4534,-0.4961,-0.5274,-0.5865,-0.6334,-0.6426,0.0,0.0,0.0,0.0,0.0,0.0,0.0,-0.6225,-0.6455,-0.622,-0.6299,-0.7315,-0.8309,-0.9118,-0.9662,0.0,0.0,-0.988,-0.9709,-0.9548,-0.9205,-0.9444,-0.9641,-0.9426,-0.9624,-0.9963,0.0,0.0,0.0,0.0,0.0,0.0,0.0,0.0,0.0,0.0,0.0,0.0,0.0,0.0,0.0,0.0,0.0,0.0,0.0,0.0,0.0,0.0,0.0,0.0,-0.0218,-0.0609,-0.1129,-0.1721,-0.2308,-0.302,0.0,0.0,0.0,0.0,0.0,0.0,-0.4144,-0.4224,-0.4516,-0.4316,-0.3581,-0.309,-0.2459,-0.1665,-0.0776,-0.0222,0.0,0.0,0.0,0.0,0.0,0.0,0.0,0.0,0.0,0.0,0.0,0.0,0.0,0.0,0.0,0.0,0.0,0.0,0.0,0.0,0.0,0.0,0.0,0.0,0.0,-0.3196,0.0,0.0,0.0,0.0,0.0,0.0,0.0,0.0,0.0,0.0,-0.4565,-0.5014,-0.5387,-0.5653,0.0,0.0,0.0,0.0,-0.6515,-0.6521,-0.6729,-0.6814,-0.6529,-0.6511,-0.6441,-0.6351,0.0,0.0,-0.777,-0.8517,-0.9051,-0.9395,-0.9824,-1.0363,-1.0889,-1.0767,-1.0569,-1.0316,-1.0256,-1.0208,-1.0009,-1.0121,-1.0412,-0.2903,0.0,0.0,0.0,0.0,-0.078,-0.0341,0.0,0.0,0.0,0.0,0.0,0.0,0.0,0.0,0.0,0.0,0.0,0.0,0.0,0.0,0.0,0.0,0.0,-0.0136,-0.0454,-0.0761,-0.1311,-0.2109,-0.2852,-0.3405,-0.367,0.0,0.0,0.0,0.0,-0.4238,-0.4181,-0.4159,-0.3716,-0.2885,-0.2179,-0.1388,-0.0516,-0.0231,-0.0075,0.0,0.0,0.0,0.0,0.0,0.0,0.0,0.0,0.0,0.0,0.0,0.0,0.0,0.0,0.0,0.0,0.0,0.0,0.0,0.0,0.0,0.0,0.0,0.0,-0.3023,-0.3223,-0.3231,0.0,0.0,0.0,0.0,0.0,0.0,0.0,0.0,0.0,-0.4709,-0.5055,-0.5333,0.0,0.0,-0.6174,-0.6278,-0.6438,-0.6549,-0.662,-0.6712,0.0,-0.6651,-0.6458,-0.6368,-0.6417,-0.6601,-0.6949,-0.7551,-0.8041,-0.8496,-0.8835,-0.9299,-0.9679,-1.0137,-1.0536,-1.0723,-1.0605,-1.0575,-1.0551,-1.052,-1.0527,-1.0772,-0.1463,-0.212,-0.1714,-0.1409,-0.1135,-0.0468,-0.0052,0.0155,0.0156,0.0104,0.0,0.0,0.0,0.0,0.0,0.0,0.0,0.0,0.0,0.0,0.0,0.0,0.0,0.0,-0.0094,-0.0234,-0.0364,-0.0888,-0.1737,-0.257,-0.3169,-0.354,0.0,0.0,-0.4052,-0.3988,-0.3895,-0.3705,-0.3488,-0.2989,-0.2207,-0.1363,-0.0637,0.0,0.0,0.0,0.0,0.0,0.0,0.0,0.0,0.0,0.0,0.0,0.0,0.0,0.0,0.0,0.0,0.0,0.0,0.0,0.0,-0.105,-0.1226,0.0,0.0,0.0,-0.2096,-0.2614,-0.298,-0.3295,0.0,0.0,0.0,0.0,0.0,0.0,0.0,-0.4347,-0.4573,-0.4762,-0.4882,-0.5085,-0.53,-0.529,-0.575,-0.6089,-0.6159,0.0,-0.6545,-0.6597,-0.6661,-0.6678,-0.6617,-0.6501,-0.6399,-0.6422,-0.6624,-0.6868,-0.7211,-0.7518,-0.7859,-0.8169,-0.8623,-0.9117,-0.9571,-1.0137,-1.0628,-1.0802,-1.0876,-1.0839,-1.0876,-1.0839,-1.0998,0.0,-0.024,-0.0575,-0.0664,-0.043,0.0,0.0272,0.0376,0.0381,0.0274,0.0,0.0,0.0,0.0,0.0,0.0,0.0,0.0,0.0,0.0,0.0,0.0,0.0,0.0,0.0,0.0,0.0,-0.0445,-0.1307,-0.2219,-0.2838,-0.3235,-0.3665,-0.3825,-0.367,-0.3435,-0.3178,-0.2922,-0.2657,-0.2166,-0.1455,-0.0707,-0.0196,0.0,0.0,0.0,0.0,0.0,0.0,0.0,0.0,0.0,0.0,0.0,0.0,0.0,0.0,0.0,0.0,0.0,0.0,0.0,0.0,0.0,0.0,0.0,0.0,0.0,-0.2007,0.0,-0.2935,-0.3349,0.0,0.0,0.0,-0.3344,-0.3615,-0.3841,-0.4113,-0.4495,0.0,0.0,-0.5002,-0.5116,-0.5223,-0.526,-0.5711,-0.6032,-0.5914,-0.6241,-0.6474,-0.6505,-0.6614,-0.6651,-0.6542,-0.6525,-0.6457,-0.6337,-0.6451,-0.6637,-0.6826,-0.6984,-0.718,-0.7369,-0.7902,-0.8551,-0.9112,-0.9755,-1.0368,-1.0993,-1.1105,-1.1105,-1.1093,-1.1093,-1.1124,0.1488,0.1411,0.1334,0.0765,-0.0057,0.051,0.0619,0.0388,0.039,0.0223,0.0,0.0,0.0,0.0,0.0,0.0,0.0,0.0,0.0,0.0,0.0,0.0,0.0,0.0,0.0,0.0,0.0,-0.0403,-0.1157,-0.1868,-0.2376,-0.2627,-0.2942,-0.314,-0.3281,-0.2824,-0.2426,-0.2137,-0.1807,-0.1223,-0.0393,-0.0157,-0.0078,0.0,0.0,0.0,0.0,0.0,0.0,0.0,0.0,0.0,0.0,0.0,0.0,0.0,0.0,0.0,0.0,0.0,0.0,0.0,0.0,-0.0448,-0.055,0.0,-0.0689,0.0,-0.1456,-0.2129,-0.2661,-0.3147,0.0,0.0,-0.3696,-0.3863,-0.4105,-0.4257,-0.445,-0.4677,-0.4882,-0.4947,-0.5012,-0.5113,-0.5183,-0.5112,-0.5393,-0.5658,-0.5764,-0.6037,-0.6314,-0.6406,-0.6579,-0.6688,-0.6634,-0.6586,-0.6463,-0.632,-0.6338,-0.6377,-0.6412,-0.6451,-0.6532,-0.6644,-0.7219,-0.794,-0.8699,-0.9463,-1.0218,-1.0925,-1.1117,-1.1117,-1.1117,-1.1117,-1.1149,0.199,0.2038,0.2038,0.1575,0.0881,0.1166,0.109,0.0617,0.0617,0.0392,0.0,0.0,0.0,0.0,0.0,0.0,0.0,0.0,0.0,0.0,0.0,0.0,0.0,0.0,0.0,0.0,0.0,-0.0314,-0.0942,-0.1479,-0.1827,-0.1938,-0.2134,-0.217,-0.21,-0.193,-0.1742,-0.1451,-0.1059,-0.0588,0.0,0.0,0.0,0.0,0.0,0.0,0.0,0.0,0.0,0.0,0.0,0.0,0.0,0.0,0.0,0.0,0.0,0.0,0.0,0.0,0.0,0.0,0.0,0.0,0.0,0.0,-0.0391,-0.0511,-0.1072,-0.1703,-0.2358,-0.3012,-0.3512,-0.3824,-0.4091,-0.4308,-0.4479,-0.4561,-0.4686,-0.4782,-0.4903,-0.5018,-0.5021,-0.5072,-0.5089,-0.5023,-0.5151,-0.5337,-0.5514,-0.583,-0.6089,-0.62,-0.6381,-0.6545,-0.6505,-0.6434,-0.6392,-0.6317,-0.63,-0.63,-0.63,-0.63,-0.63,-0.6335,-0.6876,-0.7599,-0.8318,-0.9003,-0.9696,-1.0228,-1.0532,-1.0689,-1.1013,-1.1117,-1.1149,0.2041,0.2043,0.2044,0.1965,0.1935,0.1909,0.1511,0.09,0.0898,0.0561,0.0,0.0,0.0,0.0,0.0,0.0,0.0,0.0,0.0,0.0,0.0,0.0,0.0,0.0,0.0,0.0,0.0,-0.0225,-0.0673,-0.1121,-0.1343,-0.1294,-0.1287,-0.1092,-0.0711,-0.0964,-0.1022,-0.0786,-0.0432,-0.0196,0.0,0.0,0.0,0.0,0.0,0.0,0.0,0.0,0.0,0.0,0.0,0.0,0.0,0.0,0.0,0.0,0.0,0.0,0.0,0.0,0.0,0.0,0.0,0.0,0.0,0.0,-0.0087,-0.0371,-0.0797,-0.1344,-0.2092,-0.2873,-0.3511,-0.3919,-0.4401,-0.4695,-0.4712,-0.477,-0.4801,-0.4817,-0.4911,-0.5018,-0.5018,-0.5018,-0.5018,-0.5018,-0.5023,-0.5107,-0.5251,-0.5604,-0.5876,-0.5864,-0.6099,-0.6334,-0.6327,-0.631,-0.6306,-0.63,-0.63,-0.63,-0.63,-0.63,-0.63,-0.6335,-0.676,-0.7369,-0.7931,-0.8504,-0.9005,-0.9395,-0.9656,-1.005,-1.072,-1.0917,-1.0984,0.199,0.201,0.2011,0.1994,0.1967,0.1962,0.1552,0.0915,0.0903,0.0561,0.0,0.0,0.0,0.0,0.0,0.0,0.0,0.0,0.0,0.0,0.0,0.0,0.0,0.0,0.0,0.0,0.0,-0.018,-0.0448,-0.0718,-0.0845,-0.0832,-0.081,-0.0709,-0.045,0.0,0.0,0.0,-0.0079,-0.0039,0.0,0.0,0.0,0.0,0.0,0.0,0.0,0.0,0.0,0.0,0.0,0.0,0.0,0.0,0.0,0.0,0.0,0.0,0.0,0.0,0.0,0.0,0.0,0.0,0.0,0.0,-0.0092,-0.0287,-0.0492,-0.0944,-0.1734,-0.2528,-0.3222,-0.3779,-0.4364,-0.4728,-0.475,-0.4785,-0.4833,-0.4933,-0.4963,-0.5018,-0.5018,-0.5018,-0.5018,-0.5018,-0.5018,-0.5018,-0.5054,-0.5401,-0.5676,-0.5715,-0.6025,-0.6296,-0.63,-0.63,-0.63,-0.63,-0.63,-0.63,-0.63,-0.63,-0.63,-0.63,-0.6679,-0.7096,-0.7518,-0.7974,-0.8359,-0.8646,-0.8936,-0.9431,-1.0204,-1.0348,-1.0367,0.1993,0.0,0.2003,0.1998,0.0,0.195,0.1667,0.1162,0.1144,0.0791,0.0168,0.0055,0.0,0.0,0.0,0.0,0.0,0.0,0.0,0.0,0.0,0.0,0.0,0.0,0.0,0.0,0.0,-0.0045,-0.0224,-0.0311,-0.0352,-0.0348,-0.0337,-0.0288,-0.0203,-0.0079,0.0,0.0,0.0,0.0,0.0,0.0,0.0,0.0,0.0,0.0,0.0,0.0,0.0,0.0,0.0,0.0,0.0,0.0,0.0,0.0,0.0,0.0,0.0,0.0,0.0,0.0,0.0,0.0,0.0,0.0,-0.0033,-0.0134,-0.0207,-0.0602,-0.1417,-0.2245,-0.2979,-0.373,-0.4418,-0.486,-0.4874,-0.4887,-0.4947,-0.5004,-0.5018,-0.5018,-0.5018,-0.5018,-0.5018,-0.5018,-0.5018,-0.5018,-0.5054,-0.5365,-0.5637,-0.5909,-0.6106,-0.6296,-0.63,-0.63,-0.63,-0.63,-0.63,-0.63,-0.63,-0.63,-0.63,-0.63,-0.6563,-0.6868,-0.7134,-0.7442,-0.7698,-0.7737,-0.8055,-0.8551,-0.9184,-0.9637,-1.0055,0.2001,0.2024,0.2002,0.1999,0.2005,0.1932,0.1715,0.1465,0.0,0.0,0.0,0.0111,0.0,0.0,0.0,0.0,0.0,0.0,0.0,0.0,0.0,0.0,0.0,0.0,0.0,0.0,0.0,0.0,0.0,0.0,0.0,0.0,0.0,0.0,0.0,0.0,0.0,0.0,0.0,0.0,0.0,0.0,0.0,0.0,0.0,0.0,0.0,0.0,0.0,0.0,0.0,0.0,0.0,0.0,0.0,0.0,0.0,0.0,0.0,0.0,0.0,0.0,0.0,0.0,0.0,0.0,0.0,0.0,0.0,-0.0333,-0.1171,-0.1934,-0.2757,-0.3599,-0.4426,-0.4896,-0.4937,-0.4979,-0.5012,-0.5018,-0.5018,-0.5018,-0.5018,-0.5018,-0.5018,-0.5018,-0.5018,-0.5018,-0.5096,-0.5326,-0.5676,-0.6064,-0.618,-0.6219,-0.63,-0.63,-0.63,-0.63,-0.63,-0.63,-0.63,-0.63,-0.63,-0.63,-0.6451,-0.6602,-0.6753,-0.6945,-0.6946,-0.6769,-0.7158,-0.7684,-0.8166,-0.8947,-0.9679,0.203,0.2121,0.2053,0.2025,0.1981,0.1969,0.1919,0.1672,0.0907,0.0506,0.0392,0.0112,0.0,0.0,0.0,0.0,0.0,0.0,0.0,0.0,0.0,0.0,0.0,0.0,0.0,0.0,0.0,0.0,0.0,0.0,0.0,0.0,0.0,0.0,0.0,0.0,0.0,0.0,0.0,0.0,0.0,0.0,0.0,0.0,0.0,0.0,0.0,0.0,0.0,0.0,0.0,0.0,0.0,0.0,0.0,0.0,0.0,0.0,0.0,0.0,0.0,0.0,0.0,0.0,0.0,0.0,0.0,0.0,0.0,-0.0264,-0.091,-0.158,-0.23,-0.313,-0.3954,-0.4543,-0.474,-0.4898,-0.5018,-0.5018,-0.5018,-0.5018,-0.5018,-0.5018,-0.5018,-0.5018,-0.5018,-0.5054,-0.5207,-0.5285,-0.5515,-0.5864,-0.598,-0.606,-0.6219,-0.63,-0.63,-0.63,-0.63,-0.63,-0.63,-0.63,-0.63,-0.63,-0.6338,-0.6374,-0.6412,-0.6416,-0.6363,-0.6179,-0.661,-0.7179,-0.7588,-0.8243,-0.8992,0.2036,0.2123,0.203,0.2001,0.1973,0.1924,0.187,0.1759,0.1182,0.0897,0.0841,0.0392,0.0222,0.0219,0.0054,0.0,0.0,0.0,0.0,0.0,0.0,0.0,0.0,0.0,0.0,0.0,0.0,0.0,0.0,0.0,0.0,0.0,0.0,0.0,0.0,0.0,0.0,0.0,0.0,0.0,0.0,0.0,0.0,0.0,0.0,0.0,0.0,0.0,0.0,0.0,0.0,0.0,0.0,0.0,0.0,0.0,0.0,0.0,0.0,0.0,0.0,0.0,0.0,0.0,0.0,0.0,0.0,0.0,0.0,-0.0193,-0.0695,-0.1247,-0.1881,-0.2704,-0.3561,-0.4187,-0.4504,-0.482,-0.5018,-0.5018,-0.5018,-0.5018,-0.5018,-0.5018,-0.5018,-0.5018,-0.5018,-0.5054,-0.5129,-0.5129,-0.5321,-0.5786,-0.5899,-0.6018,-0.6219,-0.63,-0.63,-0.63,-0.63,-0.63,-0.63,-0.63,-0.63,-0.63,-0.63,-0.63,-0.63,-0.63,-0.6194,-0.6077,-0.6434,-0.6968,-0.7423,-0.8166,-0.8974,0.2028,0.2103,0.2058,0.1965,0.1939,0.1863,0.1817,0.1739,0.1514,0.1402,0.1346,0.0729,0.0389,0.0383,0.0108,0.0,0.0,0.0,0.0,0.0,0.0,0.0,0.0,0.0,0.0,0.0,0.0,0.0,0.0,0.0,0.0,0.0,0.0,0.0,0.0,0.0,0.0,0.0,0.0,0.0,0.0,0.0,0.0,0.0,0.0,0.0,0.0,0.0,0.0,0.0,0.0,0.0,0.0,0.0,0.0,0.0,0.0,0.0,0.0,0.0,0.0,0.0,0.0,0.0,0.0,0.0,0.0,0.0,0.0,-0.0157,-0.051,-0.0902,-0.149,-0.2275,-0.313,-0.3834,-0.4268,-0.474,-0.5018,-0.5018,-0.5018,-0.5018,-0.5018,-0.5018,-0.5018,-0.5018,-0.5018,-0.5018,-0.5018,-0.5018,-0.5249,-0.5634,-0.5825,-0.5944,-0.6219,-0.63,-0.63,-0.63,-0.63,-0.63,-0.63,-0.63,-0.63,-0.63,-0.63,-0.63,-0.63,-0.63,-0.6231,-0.6091,-0.6415,-0.6956,-0.7419,-0.8108,-0.8954,0.2005,0.2048,0.1977,0.1928,0.1797,0.1815,0.1798,0.1795,0.1739,0.1739,0.1627,0.0785,0.0445,0.0383,0.0108,0.0,0.0,0.0,0.0,0.0,0.0,0.0,0.0,0.0,0.0,0.0,0.0,0.0,0.0,0.0,0.0,0.0,0.0,0.0,0.0,0.0,0.0,0.0,0.0,0.0,0.0,0.0,0.0,0.0,0.0,0.0,0.0,0.0,0.0,0.0,0.0,0.0,0.0,0.0,0.0,0.0,0.0,0.0,0.0,0.0,0.0,0.0,0.0,0.0,0.0,0.0,0.0,0.0,0.0,0.0,-0.0314,-0.055,-0.102,-0.1883,-0.2662,-0.3407,-0.4038,-0.4626,-0.5018,-0.5018,-0.5018,-0.5018,-0.5018,-0.5018,-0.5018,-0.5018,-0.5018,-0.5018,-0.5018,-0.5018,-0.5135,-0.5482,-0.5637,-0.5831,-0.618,-0.63,-0.63,-0.63,-0.63,-0.63,-0.63,-0.63,-0.63,-0.63,-0.63,-0.63,-0.63,-0.6293,-0.6248,-0.6149,-0.6384,-0.6811,-0.7292,-0.7757,-0.8357,0.1987,0.1973,0.1938,0.1892,0.1782,0.1808,0.1795,0.1795,0.1795,0.1795,0.1739,0.1177,0.0945,0.0874,0.0479,0.0261,0.0207,0.0051,0.0,0.0,0.0,0.0,0.0,0.0,0.0,0.0,0.0,0.0,0.0,0.0,0.0,0.0,0.0,0.0,0.0,0.0,0.0,0.0,0.0,0.0,0.0,0.0,0.0,0.0,0.0,0.0,0.0,0.0,0.0,0.0,0.0,0.0,0.0,0.0,0.0,0.0,0.0,0.0,0.0,0.0,0.0,0.0,0.0,0.0,0.0,0.0,0.0,0.0,0.0,-0.0039,0.0,0.0,-0.0589,-0.1452,-0.2271,-0.3054,-0.3841,-0.4548,-0.5018,-0.5018,-0.5018,-0.5018,-0.5018,-0.5018,-0.5018,-0.5018,-0.5018,-0.5018,-0.5018,-0.5018,-0.5132,-0.5326,-0.5443,-0.5673,-0.6141,-0.63,-0.63,-0.63,-0.63,-0.63,-0.63,-0.63,-0.63,-0.63,-0.63,-0.63,-0.63,-0.63,-0.6269,-0.6239,-0.6502,-0.6893,-0.724,-0.7484,-0.7967,0.1954,0.1932,0.1883,0.1848,0.1826,0.1805,0.1795,0.1795,0.1795,0.1795,0.1794,0.1507,0.1438,0.1363,0.0742,0.0417,0.036,0.0102,0.0,0.0,0.0,0.0,0.0,0.0,0.0,0.0,0.0,0.0,0.0,0.0,0.0,0.0,0.0,0.0,0.0,0.0,0.0,0.0,0.0,0.0,0.0,0.0,0.0,0.0,0.0,0.0,0.0,0.0,0.0,0.0,0.0,0.0,0.0,0.0,0.0,0.0,0.0,0.0,0.0,0.0,0.0,0.0,0.0,0.0,0.0,0.0,0.0,0.0,0.0,0.0,0.0,0.0,0.0,-0.11,-0.1881,-0.2662,-0.3526,-0.4311,-0.4859,-0.4898,-0.4979,-0.5018,-0.5018,-0.5018,-0.5018,-0.5018,-0.5018,-0.5018,-0.5018,-0.5018,-0.5093,-0.5285,-0.5323,-0.5553,-0.606,-0.618,-0.6219,-0.63,-0.63,-0.63,-0.63,-0.63,-0.63,-0.63,-0.63,-0.63,-0.63,-0.63,-0.63,-0.6335,-0.6521,-0.6742,-0.6869,-0.7092,-0.7433,0.184,0.1789,0.1813,0.1801,0.1797,0.1795,0.1795,0.1795,0.1795,0.1795,0.1791,0.1767,0.1752,0.1693,0.0858,0.0418,0.0355,0.0152,0.0,0.0,0.0,0.0,0.0,0.0,0.0,0.0,0.0,0.0,0.0,0.0,0.0,0.0,0.0,0.0,0.0,0.0,0.0,0.0,0.0,0.0,0.0,0.0,0.0,0.0,0.0,0.0,0.0,0.0,0.0,0.0,0.0,0.0,0.0,0.0,0.0,0.0,0.0,0.0,0.0,0.0,0.0,0.0,0.0,0.0,0.0,0.0,0.0,0.0,0.0,0.0,0.0,0.0,0.0,-0.0825,-0.149,-0.2272,-0.3054,-0.3915,-0.4462,-0.4701,-0.4898,-0.4979,-0.5018,-0.5018,-0.5018,-0.5018,-0.5018,-0.5018,-0.5021,-0.5021,-0.5107,-0.5224,-0.5341,-0.544,-0.5828,-0.598,-0.606,-0.6219,-0.63,-0.63,-0.63,-0.63,-0.63,-0.63,-0.63,-0.63,-0.63,-0.63,-0.63,-0.6296,-0.6296,-0.6451,-0.6567,-0.6412,-0.6756,0.1866,0.1811,0.18,0.1795,0.1795,0.1795,0.1795,0.1795,0.1795,0.1795,0.1793,0.1783,0.1823,0.1748,0.1235,0.0999,0.0926,0.0508,0.0252,0.0252,0.0101,0.0,0.0,0.0,0.0,0.0,0.0187,0.0275,0.0269,0.0264,0.0172,0.0,0.0,0.0,0.0,0.0,0.0,0.0,0.0,0.0,0.0,0.0,0.0,0.0,0.0,0.0,0.0,0.0,0.0,0.0,0.0,0.0,0.0,0.0,0.0,0.0,0.0,0.0,0.0,0.0,0.0,0.0,0.0,0.0,0.0,0.0,0.0,0.0,0.0,0.0,0.0,0.0,-0.0196,-0.0667,-0.1176,-0.1842,-0.2663,-0.3483,-0.4146,-0.4462,-0.4781,-0.5018,-0.5018,-0.5018,-0.5018,-0.5018,-0.5018,-0.5023,-0.5034,-0.5072,-0.5166,-0.5257,-0.5307,-0.5416,-0.5604,-0.5794,-0.5983,-0.618,-0.63,-0.63,-0.63,-0.63,-0.63,-0.63,-0.63,-0.63,-0.63,-0.63,-0.63,-0.63,-0.63,-0.63,-0.63,-0.63,-0.6606,0.1832,0.1798,0.1795,0.1795,0.1795,0.1795,0.1795,0.1795,0.1795,0.1795,0.1793,0.1785,0.1824,0.1745,0.1548,0.1418,0.1349,0.0713,0.0404,0.0353,0.0101,0.0,0.0,0.0,0.0049,0.0,0.0377,0.0503,0.0404,0.0398,0.0261,0.0,0.0,0.0,0.0,0.0,0.0,0.0,0.0,0.0,0.0,0.0,0.0,0.0,0.0,0.0,0.0,0.0,0.0,0.0,0.0,0.0,0.0,0.0,0.0,0.0,0.0,0.0,0.0,0.0,0.0,0.0,0.0,0.0,0.0,0.0,0.0,0.0,0.0,0.0,0.0,0.0,0.0,-0.0471,-0.0824,-0.1372,-0.2118,-0.2899,-0.364,-0.4268,-0.4701,-0.4898,-0.4979,-0.5018,-0.5037,-0.5064,-0.5069,-0.508,-0.5135,-0.5189,-0.5246,-0.5249,-0.5347,-0.5435,-0.5575,-0.5725,-0.5836,-0.6012,-0.6141,-0.618,-0.63,-0.63,-0.63,-0.63,-0.63,-0.63,-0.63,-0.63,-0.63,-0.63,-0.63,-0.63,-0.63,-0.63,-0.6606,0.1797,0.1795,0.1795,0.1795,0.1795,0.1795,0.1795,0.1795,0.1795,0.1795,0.1791,0.182,0.1808,0.1792,0.1692,0.1664,0.1554,0.0866,0.0505,0.0455,0.0202,0.0,0.0,0.0,0.0199,0.044,0.0661,0.0687,0.0449,0.0447,0.0354,0.0,0.0,0.0,0.0,0.0,0.0,0.0,0.0,0.0,0.0,0.0,0.0,0.0,0.0,0.0,0.0,0.0,0.0,0.0,0.0,0.0,0.0,0.0,0.0,0.0,0.0,0.0,0.0,0.0,0.0,0.0,0.0,0.0,0.0,0.0,0.0,0.0,0.0,0.0,0.0,0.0,0.0,-0.0275,-0.051,-0.0903,-0.1492,-0.2158,-0.2978,-0.407,-0.4543,-0.4779,-0.494,-0.5034,-0.5072,-0.5143,-0.5184,-0.5219,-0.5339,-0.5385,-0.5407,-0.5374,-0.5412,-0.5521,-0.5571,-0.5641,-0.5713,-0.5843,-0.5922,-0.6018,-0.6219,-0.63,-0.63,-0.63,-0.63,-0.63,-0.63,-0.63,-0.63,-0.63,-0.63,-0.63,-0.63,-0.6335,-0.649,0.1795,0.1795,0.1795,0.1795,0.1795,0.1795,0.1795,0.1795,0.1795,0.1795,0.1789,0.1818,0.1804,0.179,0.1742,0.1714,0.166,0.1172,0.096,0.0909,0.0657,0.0556,0.0556,0.0556,0.0646,0.0869,0.0951,0.0974,0.0902,0.0852,0.0754,0.0523,0.0476,0.0422,0.0286,0.0283,0.02,0.0,0.0,0.0,0.0,0.0,0.0,0.0,0.0,0.0,0.0,0.0,0.0,0.0,0.0,0.0,0.0,0.0,0.0,0.0,0.0,0.0,0.0,0.0,0.0,0.0,0.0,0.0,0.0,0.0,0.0,0.0,0.0,0.0,0.0,0.0,0.0,0.0,-0.0157,-0.0393,-0.0943,-0.1845,-0.286,-0.3795,-0.4265,-0.4621,-0.4917,-0.5069,-0.5151,-0.5243,-0.5265,-0.538,-0.5416,-0.5455,-0.5448,-0.5454,-0.554,-0.5561,-0.5579,-0.5628,-0.5691,-0.5802,-0.5918,-0.6041,-0.6224,-0.6364,-0.6351,-0.6313,-0.631,-0.63,-0.63,-0.63,-0.63,-0.63,-0.63,-0.63,-0.63,-0.6374,-0.649,0.1795,0.1795,0.1795,0.1795,0.1795,0.1795,0.1795,0.1793,0.1782,0.1778,0.1825,0.1788,0.1771,0.1761,0.1719,0.1646,0.1643,0.1421,0.1364,0.1313,0.096,0.0808,0.0808,0.0909,0.0995,0.1161,0.1196,0.1172,0.109,0.108,0.098,0.0749,0.0699,0.0602,0.0417,0.0369,0.0242,0.0,0.0,0.0,0.0,0.0,0.0,0.0,0.0,0.0,0.0,0.0,0.0,0.0,0.0,0.0,0.0,0.0,0.0,0.0,0.0,0.0,0.0,0.0,0.0,0.0,0.0,0.0,0.0,0.0,0.0,0.0,0.0,0.0,0.0,0.0,0.0,0.0,0.0,0.0,-0.0628,-0.153,-0.2392,-0.3176,-0.375,-0.4279,-0.4703,-0.502,-0.5191,-0.5278,-0.5388,-0.5469,-0.5499,-0.5532,-0.5556,-0.558,-0.561,-0.561,-0.558,-0.5602,-0.5653,-0.5782,-0.5984,-0.6138,-0.6317,-0.6464,-0.6485,-0.6409,-0.6371,-0.6306,-0.63,-0.63,-0.63,-0.63,-0.63,-0.63,-0.63,-0.63,-0.6374,0.1795,0.1795,0.1795,0.1795,0.1795,0.1795,0.1795,0.179,0.1819,0.1808,0.1795,0.1748,0.172,0.171,0.1636,0.1622,0.1567,0.1568,0.1566,0.1465,0.1162,0.0909,0.096,0.1111,0.1248,0.1274,0.1399,0.1371,0.1199,0.1181,0.0987,0.0804,0.0793,0.0654,0.0559,0.0459,0.0368,0.0,0.0,0.0,0.0,0.0,0.0,0.0,0.0,0.0,0.0,0.0,0.0,0.0,0.0,0.0,0.0,0.0,0.0,0.0,0.0,0.0,0.0,0.0,0.0,0.0,0.0,0.0,0.0,0.0,0.0,0.0,0.0,0.0,0.0,0.0,0.0,0.0,0.0,0.0,-0.0511,-0.1141,-0.1778,-0.2414,-0.3085,-0.3782,-0.4437,-0.477,-0.512,-0.5408,-0.5494,-0.5559,-0.5613,-0.5645,-0.5675,-0.5686,-0.568,-0.5669,-0.5632,-0.5648,-0.5659,-0.5823,-0.6014,-0.6204,-0.6414,-0.6536,-0.6614,-0.6502,-0.6419,-0.6351,-0.6327,-0.6347,-0.6323,-0.6303,-0.63,-0.63,-0.63,-0.6303,-0.6313,0.1795,0.1795,0.1795,0.1795,0.1795,0.1795,0.1795,0.1791,0.1818,0.1802,0.179,0.1741,0.1712,0.1711,0.163,0.1566,0.1566,0.1566,0.1566,0.1566,0.1465,0.1414,0.1364,0.1414,0.1501,0.1476,0.1512,0.1532,0.1391,0.1379,0.132,0.1211,0.1159,0.1103,0.0957,0.0903,0.0798,0.0572,0.0526,0.0399,0.0236,0.0236,0.0157,0.0,0.0,0.0,0.0,0.0,0.0,0.0,0.0,0.0,0.0,0.0,0.0,0.0,0.0,0.0,0.0,0.0,0.0,0.0,0.0,0.0,0.0,0.0,0.0,0.0,0.0,0.0,0.0,0.0,0.0,0.0,0.0,0.0,0.0,-0.0599,-0.1048,-0.1614,-0.238,-0.3152,-0.3885,-0.4493,-0.4958,-0.5346,-0.558,-0.564,-0.5677,-0.5688,-0.5688,-0.5688,-0.5686,-0.5688,-0.5677,-0.5664,-0.5747,-0.5881,-0.6046,-0.626,-0.647,-0.6637,-0.6681,-0.6634,-0.6518,-0.6422,-0.6443,-0.6467,-0.6405,-0.6354,-0.6405,-0.6443,-0.6344,-0.6313,-0.6337,0.1795,0.1795,0.1795,0.1795,0.1795,0.1795,0.1795,0.1786,0.1749,0.1731,0.1718,0.1721,0.1643,0.1641,0.1624,0.1566,0.1566,0.1566,0.1566,0.1566,0.1566,0.1566,0.1566,0.1566,0.1607,0.1591,0.1577,0.1545,0.1504,0.1488,0.1464,0.1395,0.1391,0.1292,0.1103,0.1091,0.0947,0.0755,0.07,0.0565,0.0359,0.0316,0.0196,0.0,0.0,0.0,0.0,0.0,0.0,0.0,0.0,0.0,0.0,0.0,0.0,0.0,0.0,0.0,0.0,0.0,0.0,0.0,0.0,0.0,0.0,0.0,0.0,0.0,0.0,0.0,0.0,0.0,0.0,0.0,0.0,0.0,0.0,0.0,-0.0618,-0.1077,-0.172,-0.2512,-0.332,-0.3992,-0.4644,-0.511,-0.5458,-0.5578,-0.5688,-0.5688,-0.5688,-0.5688,-0.5688,-0.5688,-0.5688,-0.5677,-0.5758,-0.5906,-0.6147,-0.638,-0.6485,-0.6694,-0.6758,-0.6756,-0.659,-0.6535,-0.6536,-0.6546,-0.6491,-0.6518,-0.6569,-0.6573,-0.6497,-0.6419,-0.6433,0.1795,0.1795,0.1795,0.1795,0.1795,0.1795,0.1795,0.1784,0.1733,0.1707,0.1695,0.1643,0.1622,0.1566,0.1618,0.1566,0.1566,0.1566,0.1566,0.1566,0.1566,0.1566,0.1566,0.1566,0.1564,0.1609,0.1587,0.1558,0.1525,0.1498,0.1468,0.1399,0.1391,0.1301,0.1204,0.1146,0.1004,0.0862,0.0881,0.0738,0.0568,0.0479,0.0316,0.0,0.0,0.0,0.0,0.0,0.0,0.0,0.0,0.0,0.0,0.0,0.0,0.0,0.0,0.0,0.0,0.0,0.0,0.0,0.0,0.0,0.0,0.0,0.0,0.0,0.0,0.0,0.0,0.0,0.0,0.0,0.0,0.0,0.0,-0.0167,-0.0338,-0.055,-0.1162,-0.1869,-0.2581,-0.3314,-0.4069,-0.4749,-0.5134,-0.5455,-0.5599,-0.5688,-0.5688,-0.5688,-0.5688,-0.5688,-0.5688,-0.5688,-0.5816,-0.5971,-0.6225,-0.6445,-0.6518,-0.6697,-0.6834,-0.6846,-0.6763,-0.6702,-0.6705,-0.6685,-0.663,-0.6624,-0.6664,-0.6685,-0.6678,-0.66,-0.6573,0.1795,0.1795,0.1795,0.1795,0.1795,0.1795,0.1794,0.1789,0.173,0.1701,0.169,0.1642,0.1568,0.1566,0.1566,0.1566,0.1566,0.1566,0.1566,0.1566,0.1566,0.1566,0.1566,0.1566,0.1566,0.1564,0.1611,0.1577,0.1535,0.1515,0.1487,0.1397,0.1391,0.1391,0.1344,0.1294,0.1324,0.1262,0.1246,0.1093,0.0861,0.0812,0.0601,0.0276,0.0079,0.0,0.0,0.0157,0.0235,0.0195,0.0,0.0,0.0,0.0,0.0,0.0,0.0,0.0,0.0,0.0,0.0,0.0,0.0,0.0,0.0,0.0,0.0,0.0,0.0,0.0,0.0,0.0,0.0,0.0,0.0,0.0,0.0,0.0,0.0,0.0,-0.0615,-0.1113,-0.1691,-0.2582,-0.3403,-0.4253,-0.479,-0.5191,-0.5463,-0.5599,-0.5599,-0.5552,-0.5552,-0.5552,-0.5552,-0.5599,-0.5777,-0.5908,-0.6174,-0.6393,-0.647,-0.6681,-0.689,-0.6927,-0.6956,-0.6912,-0.6865,-0.6844,-0.6797,-0.68,-0.68,-0.681,-0.681,-0.6766,-0.6759,0.1795,0.1795,0.1795,0.1795,0.1793,0.178,0.1774,0.1762,0.171,0.1684,0.1675,0.1635,0.1567,0.1566,0.1566,0.1566,0.1566,0.1566,0.1566,0.1566,0.1566,0.1566,0.1566,0.1566,0.1566,0.1566,0.1566,0.1533,0.1493,0.1474,0.1447,0.1395,0.1391,0.1391,0.1391,0.1391,0.1383,0.1368,0.1396,0.1288,0.1096,0.0997,0.0818,0.0401,0.016,0.004,0.0157,0.0278,0.0399,0.044,0.0363,0.0321,0.0276,0.0275,0.0275,0.0275,0.0157,0.0157,0.0,0.0,0.0,0.0,0.0,0.0,0.0,0.0,0.0,0.0,0.0,0.0,0.0,0.0,0.0,0.0,0.0,0.0,0.0,0.0,0.0,0.0,-0.0356,-0.0671,-0.121,-0.1927,-0.2598,-0.3403,-0.4117,-0.4565,-0.5146,-0.5282,-0.5282,-0.5282,-0.5327,-0.5327,-0.5371,-0.5508,-0.5688,-0.5822,-0.5997,-0.6174,-0.6257,-0.6567,-0.6915,-0.6906,-0.6897,-0.6977,-0.6937,-0.6923,-0.692,-0.6983,-0.698,-0.6963,-0.6953,-0.6949,-0.6953,0.1795,0.1795,0.1795,0.1795,0.179,0.1818,0.1807,0.1797,0.174,0.1718,0.1709,0.163,0.1566,0.1566,0.1566,0.1566,0.1566,0.1566,0.1566,0.1566,0.1566,0.1566,0.1566,0.1566,0.1566,0.1566,0.1566,0.1533,0.154,0.1475,0.1447,0.1401,0.1391,0.1391,0.1391,0.1391,0.1389,0.1383,0.1412,0.1351,0.1211,0.1108,0.0879,0.0575,0.0286,0.0244,0.0362,0.0486,0.0573,0.0737,0.0792,0.0782,0.0724,0.0635,0.0635,0.0597,0.0399,0.028,0.024,0.0,0.0,0.0,0.0,0.0,0.0,0.0,0.0,0.0,0.0,0.0,0.0,0.0,0.0,0.0,0.0,0.0,0.0,0.0,0.0,0.0,-0.0179,-0.0404,-0.0718,-0.1211,-0.1882,-0.2598,-0.3312,-0.3981,-0.4563,-0.4877,-0.4877,-0.4879,-0.4879,-0.5102,-0.5191,-0.5463,-0.5644,-0.5688,-0.5863,-0.5908,-0.6041,-0.6305,-0.6612,-0.6814,-0.6869,-0.6947,-0.7021,-0.6997,-0.7018,-0.7085,-0.7075,-0.7021,-0.7038,-0.7088,-0.7071,0.1795,0.1795,0.1795,0.1795,0.179,0.1816,0.1801,0.1795,0.1737,0.1714,0.1708,0.1631,0.1566,0.1566,0.1566,0.1566,0.1566,0.1566,0.1566,0.1566,0.1566,0.1566,0.1566,0.1566,0.1566,0.1566,0.1564,0.1585,0.1491,0.1475,0.1446,0.1403,0.1391,0.1391,0.1391,0.1391,0.1391,0.1391,0.1381,0.137,0.1353,0.1257,0.1155,0.084,0.0628,0.0584,0.0624,0.0793,0.0922,0.0964,0.1093,0.1174,0.1085,0.0874,0.0749,0.0704,0.0538,0.0454,0.0413,0.0,0.0,0.0,0.0,0.0,0.0,0.0,0.0,0.0,0.0,0.0,0.0,0.0,0.0,0.0,0.0,0.0,0.0,0.0,0.0,0.0,0.0,-0.0135,-0.0404,-0.0718,-0.121,-0.1882,-0.2552,-0.3357,-0.4072,-0.4297,-0.4344,-0.4389,-0.4387,-0.4699,-0.4966,-0.5327,-0.5599,-0.5552,-0.5641,-0.5686,-0.5819,-0.5997,-0.6254,-0.6508,-0.6773,-0.6943,-0.6977,-0.7007,-0.7021,-0.7003,-0.7051,-0.7095,-0.7095,-0.7095,-0.7095,0.1795,0.1793,0.1778,0.1827,0.1818,0.1776,0.1758,0.1751,0.1658,0.1639,0.1635,0.1624,0.1566,0.1566,0.1566,0.1566,0.1566,0.1566,0.1566,0.1566,0.1566,0.1566,0.1566,0.1566,0.1566,0.1566,0.1564,0.1536,0.1484,0.1478,0.1445,0.1404,0.1391,0.1391,0.1391,0.1391,0.1391,0.1391,0.1389,0.1384,0.137,0.1324,0.1135,0.1034,0.0856,0.0767,0.0888,0.0982,0.1113,0.1201,0.1298,0.1347,0.1305,0.1172,0.1034,0.0975,0.0802,0.0717,0.0674,0.0421,0.0,0.0,0.0086,0.0,0.0,0.0,0.0,0.0,0.0,0.0,0.0,0.0,0.0,0.0,0.0,0.0,0.0,0.0,0.0,0.0,0.0,0.0,-0.009,-0.0359,-0.0673,-0.1211,-0.1837,-0.2598,-0.3448,-0.3582,-0.3583,-0.3583,-0.3583,-0.3805,-0.4206,-0.4654,-0.506,-0.5149,-0.5327,-0.5419,-0.5641,-0.5863,-0.6038,-0.6302,-0.6567,-0.6745,-0.6782,-0.6766,-0.6868,-0.6962,-0.7007,-0.7095,-0.7095,-0.7095,-0.7095,0.1795,0.1793,0.1817,0.1804,0.1795,0.174,0.1716,0.1708,0.1631,0.1618,0.1566,0.1566,0.1566,0.1566,0.1566,0.1566,0.1566,0.1566,0.1566,0.1566,0.1566,0.1566,0.1566,0.1566,0.1566,0.1566,0.1566,0.1535,0.1488,0.1478,0.1445,0.1407,0.1391,0.1391,0.1391,0.1391,0.1391,0.1391,0.1391,0.1391,0.1346,0.1255,0.1158,0.1141,0.0963,0.0912,0.1076,0.1129,0.1225,0.1317,0.1373,0.1388,0.139,0.1391,0.1369,0.1289,0.111,0.1024,0.0897,0.0599,0.0346,0.035,0.0131,0.0,0.0,0.0,0.0,0.0,0.0,0.0,0.0,0.0,0.0,0.0,0.0,0.0,0.0,0.0,0.0,0.0,0.0,0.0,0.0,-0.009,-0.0359,-0.0583,-0.1211,-0.1703,-0.2419,-0.2553,-0.2598,-0.2599,-0.2644,-0.2868,-0.3224,-0.3715,-0.4119,-0.4431,-0.4746,-0.4971,-0.5327,-0.5686,-0.5861,-0.6041,-0.613,-0.626,-0.639,-0.6564,-0.6789,-0.6922,-0.7007,-0.7051,-0.7095,-0.7095,-0.7095,0.1795,0.1793,0.1816,0.1804,0.1795,0.1738,0.1713,0.1657,0.1629,0.1566,0.1566,0.1566,0.1566,0.1566,0.1566,0.1566,0.1566,0.1566,0.1566,0.1566,0.1566,0.1566,0.1566,0.1566,0.1566,0.1566,0.1566,0.1532,0.1496,0.1483,0.1452,0.1408,0.1398,0.1392,0.1442,0.1393,0.1391,0.1391,0.1391,0.1391,0.1391,0.1346,0.1342,0.134,0.1293,0.1245,0.1282,0.1333,0.1381,0.1383,0.1387,0.1391,0.1391,0.1391,0.1389,0.1338,0.1247,0.1113,0.102,0.0751,0.0486,0.0445,0.0223,0.0,0.0,0.0,0.0,0.0,0.0,0.0,0.0,0.0,0.0,0.0,0.0,0.0,0.0,0.0,0.0,0.0,0.0,0.0,0.0,0.0,-0.009,-0.0269,-0.0538,-0.1076,-0.1434,-0.1658,-0.1748,-0.1793,-0.1838,-0.2017,-0.233,-0.2777,-0.3179,-0.3582,-0.4028,-0.4431,-0.4879,-0.5235,-0.5641,-0.5774,-0.5819,-0.5952,-0.6169,-0.6435,-0.6704,-0.6789,-0.6786,-0.6918,-0.7095,-0.7095,-0.7007,0.1795,0.1791,0.1744,0.1724,0.1716,0.1661,0.1637,0.1634,0.1623,0.1566,0.1566,0.1566,0.1566,0.1566,0.1566,0.1566,0.1566,0.1566,0.1566,0.1566,0.1566,0.1566,0.1566,0.1566,0.1566,0.1566,0.1562,0.1596,0.1563,0.1548,0.1527,0.1443,0.147,0.1463,0.1455,0.1398,0.1393,0.1391,0.1391,0.1391,0.1391,0.1391,0.1391,0.1391,0.1391,0.1391,0.1391,0.1391,0.1391,0.1391,0.1391,0.1391,0.1391,0.1391,0.139,0.139,0.1345,0.1254,0.121,0.0942,0.0807,0.0718,0.0538,0.0,0.0,0.0224,0.0135,0.0,0.0,0.0,0.0,0.0,0.0,0.0,0.0,0.0,0.0,0.0,0.0,0.0,0.0,0.0,0.0,0.0,0.0,-0.0135,-0.0314,-0.0673,-0.0942,-0.1031,-0.1076,-0.1076,-0.1121,-0.1211,-0.1524,-0.1882,-0.2241,-0.2689,-0.3179,-0.3626,-0.4297,-0.4743,-0.5193,-0.5508,-0.5688,-0.5819,-0.6038,-0.6216,-0.6393,-0.6479,-0.6564,-0.6697,-0.6782,-0.6738,-0.6697,0.1784,0.1778,0.1726,0.1704,0.1699,0.1641,0.1567,0.1617,0.1566,0.1566,0.1566,0.1566,0.1566,0.1566,0.1566,0.1566,0.1566,0.1566,0.1566,0.1566,0.1566,0.1566,0.1566,0.1566,0.1566,0.1566,0.1566,0.1603,0.1591,0.1578,0.1563,0.148,0.1501,0.1487,0.1475,0.1461,0.1402,0.1391,0.1391,0.1391,0.1391,0.1391,0.1391,0.1391,0.1391,0.1391,0.1391,0.1391,0.1391,0.1391,0.1391,0.1391,0.1391,0.1391,0.1391,0.1391,0.1391,0.1391,0.1301,0.1166,0.1122,0.1031,0.0852,0.0538,0.0404,0.0404,0.0314,0.0,0.0,0.0,0.0,0.0,0.0,0.0,0.0,0.0,0.0,0.0,0.0,0.0,0.0,0.0,0.0,0.0,0.0,0.0,-0.018,0.0,0.0,0.0,0.0,0.0,0.0,0.0,0.0,0.0,0.0,-0.1794,-0.2286,-0.2913,-0.3582,-0.4295,-0.4877,-0.5193,-0.5508,-0.5688,-0.5863,-0.5997,-0.613,-0.626,-0.639,-0.6428,-0.6473,-0.6384,-0.6476,0.1808,0.1805,0.1717,0.1703,0.1698,0.1641,0.1566,0.1566,0.1566,0.1566,0.1566,0.1566,0.1566,0.1566,0.1566,0.1566,0.1566,0.1566,0.1566,0.1566,0.1566,0.1566,0.1566,0.1566,0.1566,0.1566,0.1566,0.1564,0.1612,0.1605,0.1575,0.1485,0.1528,0.1507,0.1491,0.1479,0.146,0.1446,0.1393,0.1391,0.1391,0.1391,0.1391,0.1391,0.1391,0.1391,0.1391,0.1391,0.1391,0.1391,0.1391,0.1391,0.1391,0.1391,0.1391,0.1391,0.1397,0.1397,0.1398,0.1258,0.1166,0.1031,0.0897,0.0718,0.0538,0.0448,0.0269,0.0135,0.0,0.0,0.0,0.0,0.0,0.0,0.0,0.0,0.0,0.0,0.0,0.0,0.0,0.0,0.0,0.0,0.0,0.0,0.0,0.0,0.0,0.0,0.0,0.0,0.0,0.0,0.0,0.0,0.0,-0.117,-0.1614,-0.2286,-0.2957,-0.3671,-0.4654,-0.5057,-0.5371,-0.5552,-0.5733,-0.5866,-0.5997,-0.6127,-0.6169,-0.6213,-0.6213,-0.6213,-0.639,0.1804,0.18,0.1699,0.1731,0.1728,0.1635,0.1566,0.1566,0.1566,0.1566,0.1566,0.1566,0.1566,0.1566,0.1566,0.1566,0.1566,0.1566,0.1566,0.1566,0.1566,0.1566,0.1566,0.1566,0.1566,0.1566,0.1566,0.1566,0.1566,0.1566,0.1609,0.1583,0.1562,0.1551,0.158,0.1547,0.1476,0.1463,0.1401,0.1391,0.1391,0.1391,0.1391,0.1391,0.1391,0.1391,0.1391,0.1391,0.1391,0.1391,0.1391,0.1391,0.1391,0.1391,0.1392,0.1395,0.1451,0.146,0.1459,0.1358,0.1301,0.1256,0.1166,0.1033,0.0811,0.0808,0.0583,0.0404,0.0225,0.0181,0.0,0.0,0.0,0.0,0.0,0.0,0.0,0.0,0.0,0.0,0.0,0.0,0.0,0.0,0.0,0.0,0.0,0.0,0.0,0.0,0.0,0.0,0.0,0.0,0.0,0.0,0.0,-0.0633,-0.1078,-0.1883,-0.2734,-0.3673,-0.4476,-0.4924,-0.5327,-0.5552,-0.5733,-0.5822,-0.5863,-0.5952,-0.5952,-0.5908,-0.5952,-0.5994,-0.6216,0.1777,0.1771,0.1722,0.1654,0.1709,0.163,0.1566,0.1566,0.1566,0.1566,0.1566,0.1566,0.1566,0.1566,0.1566,0.1566,0.1566,0.1566,0.1566,0.1566,0.1566,0.1566,0.1566,0.1566,0.1566,0.1566,0.1566,0.1566,0.1566,0.1566,0.1562,0.1606,0.1596,0.1582,0.1557,0.1525,0.1494,0.1487,0.1467,0.145,0.145,0.1395,0.1391,0.1391,0.1391,0.1391,0.1391,0.1391,0.1391,0.1391,0.1391,0.1391,0.1391,0.1392,0.1395,0.1453,0.1467,0.1483,0.1486,0.1478,0.1417,0.1378,0.1422,0.1284,0.1188,0.1096,0.0873,0.0459,0.0366,0.0,0.0,0.0,0.0,0.0,0.0,0.0,0.0,0.0,0.0,0.0,0.0,0.0,0.0,0.0,0.0,0.0,0.0,0.0,0.0,0.0,0.0,0.0,0.0,0.0,0.0,0.0,0.0,-0.0639,-0.1132,-0.1886,-0.2734,-0.3635,-0.4395,-0.4921,-0.5282,-0.5599,-0.5735,-0.5785,-0.5738,-0.5733,-0.5733,-0.5777,-0.5777,-0.5863,-0.5952,0.1719,0.1712,0.1633,0.1635,0.1707,0.1629,0.1566,0.1566,0.1566,0.1566,0.1566,0.1566,0.1566,0.1566,0.1566,0.1566,0.1566,0.1566,0.1566,0.1566,0.1566,0.1566,0.1566,0.1566,0.1566,0.1566,0.1566,0.1566,0.1566,0.1566,0.1566,0.1566,0.1609,0.1598,0.1571,0.1542,0.1478,0.152,0.1494,0.1483,0.1475,0.1459,0.1406,0.1443,0.1444,0.1444,0.1391,0.1398,0.1397,0.1391,0.1442,0.1396,0.1391,0.1395,0.1406,0.1474,0.1483,0.1501,0.1475,0.1476,0.1474,0.1465,0.1456,0.1413,0.128,0.1187,0.104,0.0657,0.0519,0.0331,0.0,0.0,0.0,0.0,0.0,0.0,0.0,0.0,0.0,0.0,0.0,0.0,0.0,0.0,0.0,0.0,0.0,0.0,0.0,0.0,0.0,0.0,0.0,0.0,0.0,0.0,0.0,0.0,-0.1192,-0.1873,-0.2636,-0.3549,-0.426,-0.4813,-0.5248,-0.5529,-0.5666,-0.5704,-0.5753,-0.5841,-0.5707,-0.5733,-0.5688,-0.5733,-0.5822,0.1714,0.1712,0.163,0.1622,0.163,0.1622,0.1566,0.1566,0.1566,0.1566,0.1566,0.1566,0.1566,0.1566,0.1566,0.1566,0.1566,0.1566,0.1566,0.1566,0.1566,0.1566,0.1566,0.1566,0.1566,0.1566,0.1566,0.1566,0.1566,0.1566,0.1566,0.1566,0.1566,0.1612,0.1596,0.1573,0.1556,0.1551,0.1529,0.151,0.1509,0.1498,0.1484,0.1466,0.1466,0.1458,0.1399,0.1457,0.1458,0.1403,0.1453,0.1455,0.1403,0.1406,0.147,0.1493,0.1508,0.1555,0.1577,0.1583,0.1565,0.1545,0.1484,0.1485,0.1384,0.1383,0.1192,0.1003,0.0863,0.067,0.0,0.0,0.0,0.0,0.0,0.0,0.0,0.0,0.0,0.0,0.0,0.0,0.0,0.0,0.0,0.0,0.0,0.0,0.0,0.0,0.0,0.0,0.0,0.0,0.0,0.0,0.0,0.0,-0.1177,-0.1788,-0.262,-0.3381,-0.399,-0.4495,-0.5023,-0.5457,-0.5652,-0.5815,-0.5907,-0.5958,-0.5866,-0.5793,-0.5787,-0.5723,-0.5733,0.1698,0.1644,0.1625,0.1566,0.1566,0.1566,0.1566,0.1566,0.1566,0.1566,0.1566,0.1566,0.1566,0.1566,0.1566,0.1566,0.1566,0.1566,0.1566,0.1566,0.1566,0.1566,0.1566,0.1566,0.1566,0.1566,0.1566,0.1566,0.1566,0.1566,0.1566,0.1566,0.1566,0.1565,0.1608,0.1596,0.1587,0.1579,0.156,0.1542,0.1538,0.1528,0.1514,0.1502,0.1494,0.1489,0.1478,0.148,0.1487,0.1476,0.1472,0.1479,0.1473,0.1474,0.1494,0.1519,0.1555,0.1594,0.1609,0.1562,0.159,0.1568,0.1558,0.1509,0.1509,0.1515,0.1368,0.1269,0.1215,0.0875,0.0535,0.0485,0.0,0.0,0.0,0.0,0.0,0.0,0.0,0.0,0.0,0.0,0.0,0.0,0.0,0.0,0.0,0.0,0.0,0.0,0.0,0.0,0.0,0.0,0.0,0.0,0.0,0.0,-0.1154,-0.1678,-0.2234,-0.2961,-0.3553,-0.414,-0.4594,-0.5103,-0.5688,-0.5981,-0.5981,-0.5996,-0.5972,-0.5909,-0.586,-0.5839,-0.5822,0.1566,0.1566,0.1566,0.1566,0.1566,0.1566,0.1566,0.1566,0.1566,0.1566,0.1566,0.1566,0.1566,0.1566,0.1566,0.1566,0.1566,0.1566,0.1566,0.1566,0.1566,0.1566,0.1566,0.1566,0.1566,0.1566,0.1566,0.1566,0.1566,0.1566,0.1566,0.1566,0.1566,0.1566,0.1564,0.1562,0.1609,0.16,0.1588,0.1574,0.157,0.1552,0.154,0.153,0.1526,0.1521,0.1517,0.1521,0.1522,0.1466,0.1502,0.1507,0.1506,0.1498,0.1528,0.161,0.165,0.1711,0.1716,0.1717,0.1615,0.16,0.1556,0.1562,0.1558,0.155,0.1497,0.1348,0.1297,0.0952,0.0603,0.0502,0.0,0.0,0.0,0.0,0.0,0.0,0.0,0.0,0.0,0.0,0.0,0.0,0.0,0.0,0.0,0.0,0.0,0.0,0.0,0.0,0.0,0.0,0.0,0.0,0.0,0.0,-0.0974,-0.1453,-0.2017,-0.2447,-0.2901,-0.3439,-0.4076,-0.4695,-0.5321,-0.5701,-0.5952,-0.5968,-0.5929,-0.5998,-0.5958,-0.6002,-0.5996,0.1566,0.1566,0.1566,0.1566,0.1566,0.1566,0.1566,0.1566,0.1566,0.1566,0.1566,0.1566,0.1566,0.1566,0.1566,0.1566,0.1566,0.1566,0.1566,0.1566,0.1566,0.1566,0.1566,0.1566,0.1566,0.1566,0.1566,0.1566,0.1566,0.1566,0.1566,0.1566,0.1566,0.1566,0.1566,0.1566,0.1566,0.1564,0.1604,0.1601,0.16,0.1588,0.1574,0.1563,0.1559,0.1551,0.154,0.1551,0.1549,0.1529,0.154,0.1546,0.1474,0.1537,0.1665,0.2142,0.2164,0.217,0.212,0.1969,0.1819,0.1617,0.1566,0.1566,0.1566,0.1566,0.1566,0.1465,0.1415,0.1162,0.096,0.0808,0.0606,0.0353,0.0202,0.0,0.0,0.0,0.0,0.0,0.0,0.0,0.0,0.0,0.0,0.0,0.0,0.0,0.0,0.0,0.0,0.0,0.0,0.0,0.0,0.0,0.0,-0.045,-0.0793,-0.1035,-0.1333,-0.173,-0.218,-0.2765,-0.3433,-0.4183,-0.4915,-0.5237,-0.5431,-0.5777,-0.5831,-0.5937,-0.6059,-0.6104,-0.6138,0.1566,0.1566,0.1566,0.1566,0.1566,0.1566,0.1566,0.1566,0.1566,0.1566,0.1566,0.1566,0.1566,0.1566,0.1566,0.1566,0.1566,0.1566,0.1566,0.1566,0.1566,0.1566,0.1566,0.1566,0.1566,0.1566,0.1566,0.1566,0.1566,0.1566,0.1566,0.1566,0.1566,0.1566,0.1566,0.1566,0.1566,0.1566,0.1565,0.1566,0.1566,0.1566,0.1603,0.1593,0.1588,0.1575,0.1564,0.1582,0.1575,0.156,0.1579,0.1571,0.1607,0.1778,0.2185,0.2567,0.2722,0.2724,0.2672,0.2322,0.202,0.1718,0.1617,0.1566,0.1566,0.1566,0.1566,0.1566,0.1566,0.1516,0.1313,0.1111,0.0808,0.0455,0.0353,0.0252,0.0,0.0,0.0,0.0,0.0,0.0,0.0,0.0,0.0,0.0,0.0,0.0,0.0,0.0,0.0,0.0,0.0,0.0,0.0,0.0,0.0,0.0,-0.0301,-0.0552,0.0,-0.0958,-0.1352,-0.2005,-0.2764,-0.3469,-0.4062,-0.452,-0.4804,-0.5133,-0.5536,-0.5862,-0.6046,-0.6241,-0.6271,0.1566,0.1566,0.1566,0.1566,0.1566,0.1566,0.1566,0.1566,0.1566,0.1566,0.1566,0.1566,0.1566,0.1566,0.1566,0.1566,0.1566,0.1566,0.1566,0.1566,0.1566,0.1566,0.1566,0.1566,0.1566,0.1566,0.1566,0.1566,0.1566,0.1566,0.1566,0.1566,0.1566,0.1566,0.1566,0.1566,0.1566,0.1566,0.1566,0.1566,0.1566,0.1566,0.1566,0.1564,0.1613,0.1611,0.1662,0.1666,0.1667,0.1707,0.1748,0.184,0.2,0.2362,0.2819,0.3172,0.3428,0.3428,0.3275,0.2975,0.2322,0.1919,0.1667,0.1617,0.1617,0.1617,0.1566,0.1566,0.1566,0.1516,0.1414,0.1313,0.1061,0.0707,0.0505,0.0303,0.0,0.0,0.0,0.0,0.0,0.0,0.0,0.0,0.0,0.0,0.0,0.0,0.0,0.0,0.0,0.0,0.0,0.0,0.0,0.0,0.0,0.0,0.0,0.0,0.0,0.0,-0.0454,-0.1262,-0.2069,-0.247,-0.297,-0.3425,-0.3977,-0.4431,-0.4933,-0.5584,-0.5969,-0.6195,-0.6327,0.1566,0.1566,0.1566,0.1566,0.1566,0.1566,0.1566,0.1566,0.1566,0.1566,0.1566,0.1566,0.1566,0.1566,0.1566,0.1566,0.1566,0.1566,0.1566,0.1566,0.1566,0.1566,0.1566,0.1566,0.1566,0.1566,0.1566,0.1566,0.1566,0.1566,0.1566,0.1566,0.1566,0.1566,0.1566,0.1566,0.1566,0.1566,0.1566,0.1617,0.1617,0.1617,0.1566,0.1566,0.1617,0.1718,0.1869,0.2121,0.2322,0.2467,0.2716,0.2818,0.2876,0.3328,0.3882,0.4282,0.4431,0.4431,0.418,0.3728,0.2975,0.2372,0.202,0.1819,0.1667,0.1617,0.1566,0.1566,0.1566,0.1516,0.1465,0.1415,0.1313,0.096,0.0657,0.0353,0.0,0.0,0.0,0.0,0.0,0.0,0.0,0.0,0.0,0.0,0.0,0.0,0.0,0.0,0.0,0.0,0.0,0.0,0.0,0.0,0.0,0.0,0.0,0.0,0.0,0.0,-0.0353,-0.0757,-0.1313,-0.1665,-0.1966,-0.242,-0.2923,-0.3527,-0.4232,-0.4883,-0.5534,-0.5869,-0.6124,0.1566,0.1566,0.1566,0.1566,0.1566,0.1566,0.1566,0.1566,0.1566,0.1566,0.1566,0.1566,0.1566,0.1566,0.1566,0.1566,0.1566,0.1566,0.1566,0.1566,0.1566,0.1566,0.1566,0.1566,0.1566,0.1566,0.1566,0.1566,0.1566,0.1566,0.1566,0.1566,0.1566,0.1566,0.1566,0.1566,0.1566,0.1566,0.1566,0.1667,0.1718,0.1667,0.1617,0.1566,0.1667,0.1819,0.2221,0.2522,0.2975,0.3325,0.3674,0.3874,0.4028,0.4433,0.4935,0.5334,0.5484,0.5484,0.5233,0.4632,0.3729,0.3025,0.2371,0.212,0.1667,0.1566,0.1566,0.1566,0.1566,0.1566,0.1566,0.1516,0.1263,0.0909,0.0758,0.0505,0.0,0.0,0.0,0.0,0.0,0.0,0.0,0.0,0.0,0.0,0.0,0.0,0.0,0.0,0.0,0.0,0.0,0.0,0.0,0.0,0.0,0.0,0.0,0.0,0.0,0.0,-0.0303,0.0,0.0,-0.0656,-0.106,-0.1514,-0.1917,-0.242,-0.3275,-0.4131,-0.4784,-0.5486,-0.5834,0.1566,0.1566,0.1566,0.1566,0.1566,0.1566,0.1566,0.1566,0.1566,0.1566,0.1566,0.1566,0.1566,0.1566,0.1566,0.1566,0.1566,0.1566,0.1566,0.1566,0.1566,0.1566,0.1566,0.1566,0.1566,0.1566,0.1566,0.1566,0.1566,0.1566,0.1566,0.1566,0.1566,0.1566,0.1566,0.1566,0.1566,0.1566,0.1617,0.1768,0.1819,0.1819,0.1818,0.1768,0.1818,0.207,0.2573,0.3024,0.3575,0.4076,0.458,0.4878,0.5129,0.5434,0.5884,0.6284,0.6384,0.6384,0.6187,0.5486,0.4531,0.3627,0.2973,0.2422,0.2019,0.1818,0.1818,0.1717,0.1717,0.1617,0.1617,0.1516,0.1263,0.096,0.0808,0.0606,0.0,0.0,0.0,0.0,0.0,0.0,0.0,0.0,0.0,0.0,0.0,0.0,0.0,0.0,0.0,0.0,0.0,0.0,0.0,0.0,0.0,0.0,0.0,0.0,0.0,0.0,0.0,0.0,0.0,0.0,0.0,-0.0757,-0.106,-0.1513,-0.2369,-0.3327,-0.4079,-0.4782,-0.5384,0.1566,0.1566,0.1566,0.1566,0.1566,0.1566,0.1566,0.1566,0.1566,0.1566,0.1566,0.1566,0.1566,0.1566,0.1566,0.1566,0.1566,0.1566,0.1566,0.1566,0.1566,0.1566,0.1566,0.1566,0.1566,0.1566,0.1566,0.1566,0.1566,0.1566,0.1617,0.1617,0.1617,0.1617,0.1617,0.1667,0.1768,0.1818,0.1869,0.197,0.2321,0.2371,0.2423,0.2574,0.2827,0.3078,0.3379,0.3681,0.4131,0.4682,0.5336,0.5784,0.6134,0.6387,0.6736,0.6936,0.7036,0.7036,0.6736,0.6189,0.5284,0.4582,0.3979,0.3478,0.3077,0.2674,0.2522,0.217,0.207,0.1718,0.1617,0.1617,0.1364,0.1061,0.0808,0.0606,0.0,0.0,0.0,0.0,0.0,0.0,0.0,0.0,0.0,0.0,0.0,0.0,0.0,0.0,0.0,0.0,0.0,0.0,0.0,0.0,0.0,0.0,0.0,0.0,0.0,0.0,0.0,0.0,0.0,0.0,0.0,-0.0303,-0.0505,-0.1009,-0.1665,-0.247,-0.3274,-0.3929,-0.4481]}]]